<?xml version="1.0" encoding="UTF-8" standalone="no" ?>
<gpx xmlns="http://www.topografix.com/GPX/1/1" xmlns:xsi="http://www.w3.org/2001/XMLSchema-instance" xsi:schemaLocation="http://www.topografix.com/GPX/1/1 http://www.topografix.com/GPX/1/1/gpx.xsd" version="1.1" creator="VisuGPX - https://www.visugpx.com">
  <metadata>
    <name>Randonnée PLUZUNET Danot-Craou Moc\'h</name>
    <desc><![CDATA[Randonnée départ DANOT]]></desc>
  </metadata>
  <trk>
    <name><![CDATA[Pluzunet ]]></name>
    <trkseg>
      <trkpt lat="48.64573" lon="-3.40923">
        <ele>97</ele>
        <time>2013-01-04T13:45:54Z</time>
      </trkpt>
      <trkpt lat="48.64552" lon="-3.40897">
        <ele>106</ele>
        <time>2013-01-04T13:46:35Z</time>
      </trkpt>
      <trkpt lat="48.64546" lon="-3.40894">
        <ele>106</ele>
        <time>2013-01-04T13:46:40Z</time>
      </trkpt>
      <trkpt lat="48.6454" lon="-3.40894">
        <ele>106</ele>
        <time>2013-01-04T13:46:45Z</time>
      </trkpt>
      <trkpt lat="48.64534" lon="-3.40893">
        <ele>106</ele>
        <time>2013-01-04T13:46:50Z</time>
      </trkpt>
      <trkpt lat="48.64528" lon="-3.40893">
        <ele>104</ele>
        <time>2013-01-04T13:46:55Z</time>
      </trkpt>
      <trkpt lat="48.64521" lon="-3.40891">
        <ele>103</ele>
        <time>2013-01-04T13:47:00Z</time>
      </trkpt>
      <trkpt lat="48.64515" lon="-3.4089">
        <ele>102</ele>
        <time>2013-01-04T13:47:05Z</time>
      </trkpt>
      <trkpt lat="48.64508" lon="-3.40889">
        <ele>102</ele>
        <time>2013-01-04T13:47:10Z</time>
      </trkpt>
      <trkpt lat="48.64502" lon="-3.40887">
        <ele>102</ele>
        <time>2013-01-04T13:47:15Z</time>
      </trkpt>
      <trkpt lat="48.64494" lon="-3.40886">
        <ele>101</ele>
        <time>2013-01-04T13:47:20Z</time>
      </trkpt>
      <trkpt lat="48.64486" lon="-3.40885">
        <ele>100</ele>
        <time>2013-01-04T13:47:25Z</time>
      </trkpt>
      <trkpt lat="48.64479" lon="-3.40884">
        <ele>100</ele>
        <time>2013-01-04T13:47:30Z</time>
      </trkpt>
      <trkpt lat="48.64471" lon="-3.40883">
        <ele>100</ele>
        <time>2013-01-04T13:47:35Z</time>
      </trkpt>
      <trkpt lat="48.64463" lon="-3.40883">
        <ele>99</ele>
        <time>2013-01-04T13:47:40Z</time>
      </trkpt>
      <trkpt lat="48.64456" lon="-3.40881">
        <ele>98</ele>
        <time>2013-01-04T13:47:45Z</time>
      </trkpt>
      <trkpt lat="48.64448" lon="-3.4088">
        <ele>97</ele>
        <time>2013-01-04T13:47:50Z</time>
      </trkpt>
      <trkpt lat="48.64442" lon="-3.40879">
        <ele>96</ele>
        <time>2013-01-04T13:47:55Z</time>
      </trkpt>
      <trkpt lat="48.64434" lon="-3.40879">
        <ele>96</ele>
        <time>2013-01-04T13:48:00Z</time>
      </trkpt>
      <trkpt lat="48.64427" lon="-3.40877">
        <ele>95</ele>
        <time>2013-01-04T13:48:05Z</time>
      </trkpt>
      <trkpt lat="48.6442" lon="-3.40876">
        <ele>95</ele>
        <time>2013-01-04T13:48:10Z</time>
      </trkpt>
      <trkpt lat="48.64413" lon="-3.40876">
        <ele>94</ele>
        <time>2013-01-04T13:48:15Z</time>
      </trkpt>
      <trkpt lat="48.64405" lon="-3.40875">
        <ele>94</ele>
        <time>2013-01-04T13:48:20Z</time>
      </trkpt>
      <trkpt lat="48.64398" lon="-3.40874">
        <ele>94</ele>
        <time>2013-01-04T13:48:25Z</time>
      </trkpt>
      <trkpt lat="48.6439" lon="-3.40874">
        <ele>94</ele>
        <time>2013-01-04T13:48:30Z</time>
      </trkpt>
      <trkpt lat="48.64383" lon="-3.40874">
        <ele>94</ele>
        <time>2013-01-04T13:48:35Z</time>
      </trkpt>
      <trkpt lat="48.64375" lon="-3.40874">
        <ele>94</ele>
        <time>2013-01-04T13:48:40Z</time>
      </trkpt>
      <trkpt lat="48.64368" lon="-3.40875">
        <ele>94</ele>
        <time>2013-01-04T13:48:45Z</time>
      </trkpt>
      <trkpt lat="48.6436" lon="-3.40876">
        <ele>94</ele>
        <time>2013-01-04T13:48:50Z</time>
      </trkpt>
      <trkpt lat="48.64353" lon="-3.40878">
        <ele>94</ele>
        <time>2013-01-04T13:48:55Z</time>
      </trkpt>
      <trkpt lat="48.64346" lon="-3.4088">
        <ele>94</ele>
        <time>2013-01-04T13:49:00Z</time>
      </trkpt>
      <trkpt lat="48.64339" lon="-3.40882">
        <ele>94</ele>
        <time>2013-01-04T13:49:05Z</time>
      </trkpt>
      <trkpt lat="48.64333" lon="-3.40883">
        <ele>94</ele>
        <time>2013-01-04T13:49:10Z</time>
      </trkpt>
      <trkpt lat="48.64325" lon="-3.40883">
        <ele>94</ele>
        <time>2013-01-04T13:49:16Z</time>
      </trkpt>
      <trkpt lat="48.64318" lon="-3.40882">
        <ele>94</ele>
        <time>2013-01-04T13:49:21Z</time>
      </trkpt>
      <trkpt lat="48.64311" lon="-3.40881">
        <ele>94</ele>
        <time>2013-01-04T13:49:26Z</time>
      </trkpt>
      <trkpt lat="48.64304" lon="-3.40878">
        <ele>94</ele>
        <time>2013-01-04T13:49:31Z</time>
      </trkpt>
      <trkpt lat="48.64297" lon="-3.40874">
        <ele>94</ele>
        <time>2013-01-04T13:49:36Z</time>
      </trkpt>
      <trkpt lat="48.6429" lon="-3.40869">
        <ele>94</ele>
        <time>2013-01-04T13:49:41Z</time>
      </trkpt>
      <trkpt lat="48.64282" lon="-3.40866">
        <ele>94</ele>
        <time>2013-01-04T13:49:46Z</time>
      </trkpt>
      <trkpt lat="48.64277" lon="-3.40874">
        <ele>94</ele>
        <time>2013-01-04T13:49:51Z</time>
      </trkpt>
      <trkpt lat="48.64275" lon="-3.40885">
        <ele>94</ele>
        <time>2013-01-04T13:49:56Z</time>
      </trkpt>
      <trkpt lat="48.64273" lon="-3.40896">
        <ele>94</ele>
        <time>2013-01-04T13:50:01Z</time>
      </trkpt>
      <trkpt lat="48.64267" lon="-3.40902">
        <ele>94</ele>
        <time>2013-01-04T13:50:06Z</time>
      </trkpt>
      <trkpt lat="48.6426" lon="-3.40904">
        <ele>94</ele>
        <time>2013-01-04T13:50:11Z</time>
      </trkpt>
      <trkpt lat="48.64253" lon="-3.40905">
        <ele>94</ele>
        <time>2013-01-04T13:50:16Z</time>
      </trkpt>
      <trkpt lat="48.64246" lon="-3.40907">
        <ele>94</ele>
        <time>2013-01-04T13:50:21Z</time>
      </trkpt>
      <trkpt lat="48.64239" lon="-3.40908">
        <ele>94</ele>
        <time>2013-01-04T13:50:26Z</time>
      </trkpt>
      <trkpt lat="48.64232" lon="-3.4091">
        <ele>93</ele>
        <time>2013-01-04T13:50:31Z</time>
      </trkpt>
      <trkpt lat="48.64225" lon="-3.4091">
        <ele>93</ele>
        <time>2013-01-04T13:50:36Z</time>
      </trkpt>
      <trkpt lat="48.64217" lon="-3.40911">
        <ele>93</ele>
        <time>2013-01-04T13:50:41Z</time>
      </trkpt>
      <trkpt lat="48.6421" lon="-3.40912">
        <ele>93</ele>
        <time>2013-01-04T13:50:46Z</time>
      </trkpt>
      <trkpt lat="48.64203" lon="-3.40915">
        <ele>93</ele>
        <time>2013-01-04T13:50:51Z</time>
      </trkpt>
      <trkpt lat="48.64197" lon="-3.40918">
        <ele>93</ele>
        <time>2013-01-04T13:50:56Z</time>
      </trkpt>
      <trkpt lat="48.6419" lon="-3.4092">
        <ele>93</ele>
        <time>2013-01-04T13:51:01Z</time>
      </trkpt>
      <trkpt lat="48.64184" lon="-3.40924">
        <ele>93</ele>
        <time>2013-01-04T13:51:07Z</time>
      </trkpt>
      <trkpt lat="48.64179" lon="-3.40928">
        <ele>92</ele>
        <time>2013-01-04T13:51:12Z</time>
      </trkpt>
      <trkpt lat="48.64173" lon="-3.40933">
        <ele>92</ele>
        <time>2013-01-04T13:51:17Z</time>
      </trkpt>
      <trkpt lat="48.64167" lon="-3.40937">
        <ele>91</ele>
        <time>2013-01-04T13:51:23Z</time>
      </trkpt>
      <trkpt lat="48.64161" lon="-3.4094">
        <ele>90</ele>
        <time>2013-01-04T13:51:28Z</time>
      </trkpt>
      <trkpt lat="48.64156" lon="-3.40944">
        <ele>89</ele>
        <time>2013-01-04T13:51:33Z</time>
      </trkpt>
      <trkpt lat="48.64151" lon="-3.40948">
        <ele>86</ele>
        <time>2013-01-04T13:51:38Z</time>
      </trkpt>
      <trkpt lat="48.64145" lon="-3.40953">
        <ele>84</ele>
        <time>2013-01-04T13:51:43Z</time>
      </trkpt>
      <trkpt lat="48.64139" lon="-3.40958">
        <ele>84</ele>
        <time>2013-01-04T13:51:48Z</time>
      </trkpt>
      <trkpt lat="48.64134" lon="-3.40963">
        <ele>84</ele>
        <time>2013-01-04T13:51:54Z</time>
      </trkpt>
      <trkpt lat="48.6413" lon="-3.40967">
        <ele>84</ele>
        <time>2013-01-04T13:52:00Z</time>
      </trkpt>
      <trkpt lat="48.64126" lon="-3.4097">
        <ele>84</ele>
        <time>2013-01-04T13:52:08Z</time>
      </trkpt>
      <trkpt lat="48.64125" lon="-3.40972">
        <ele>84</ele>
        <time>2013-01-04T13:52:13Z</time>
      </trkpt>
      <trkpt lat="48.64124" lon="-3.40973">
        <ele>84</ele>
        <time>2013-01-04T13:52:20Z</time>
      </trkpt>
      <trkpt lat="48.64121" lon="-3.40975">
        <ele>84</ele>
        <time>2013-01-04T13:52:25Z</time>
      </trkpt>
      <trkpt lat="48.64118" lon="-3.40977">
        <ele>84</ele>
        <time>2013-01-04T13:52:37Z</time>
      </trkpt>
      <trkpt lat="48.64117" lon="-3.40978">
        <ele>85</ele>
        <time>2013-01-04T13:52:45Z</time>
      </trkpt>
      <trkpt lat="48.64116" lon="-3.40978">
        <ele>85</ele>
        <time>2013-01-04T13:52:50Z</time>
      </trkpt>
      <trkpt lat="48.64114" lon="-3.40978">
        <ele>86</ele>
        <time>2013-01-04T13:52:59Z</time>
      </trkpt>
      <trkpt lat="48.64112" lon="-3.40979">
        <ele>86</ele>
        <time>2013-01-04T13:53:04Z</time>
      </trkpt>
      <trkpt lat="48.64109" lon="-3.40983">
        <ele>86</ele>
        <time>2013-01-04T13:53:10Z</time>
      </trkpt>
      <trkpt lat="48.64104" lon="-3.40984">
        <ele>85</ele>
        <time>2013-01-04T13:53:16Z</time>
      </trkpt>
      <trkpt lat="48.64098" lon="-3.40982">
        <ele>84</ele>
        <time>2013-01-04T13:53:21Z</time>
      </trkpt>
      <trkpt lat="48.64092" lon="-3.40979">
        <ele>83</ele>
        <time>2013-01-04T13:53:26Z</time>
      </trkpt>
      <trkpt lat="48.64087" lon="-3.40976">
        <ele>83</ele>
        <time>2013-01-04T13:53:31Z</time>
      </trkpt>
      <trkpt lat="48.64082" lon="-3.40974">
        <ele>83</ele>
        <time>2013-01-04T13:53:36Z</time>
      </trkpt>
      <trkpt lat="48.64076" lon="-3.40971">
        <ele>83</ele>
        <time>2013-01-04T13:53:41Z</time>
      </trkpt>
      <trkpt lat="48.6407" lon="-3.40965">
        <ele>83</ele>
        <time>2013-01-04T13:53:46Z</time>
      </trkpt>
      <trkpt lat="48.64064" lon="-3.40963">
        <ele>83</ele>
        <time>2013-01-04T13:53:51Z</time>
      </trkpt>
      <trkpt lat="48.64059" lon="-3.40955">
        <ele>83</ele>
        <time>2013-01-04T13:53:56Z</time>
      </trkpt>
      <trkpt lat="48.64058" lon="-3.40945">
        <ele>83</ele>
        <time>2013-01-04T13:54:01Z</time>
      </trkpt>
      <trkpt lat="48.64056" lon="-3.40933">
        <ele>83</ele>
        <time>2013-01-04T13:54:08Z</time>
      </trkpt>
      <trkpt lat="48.64054" lon="-3.40925">
        <ele>83</ele>
        <time>2013-01-04T13:54:13Z</time>
      </trkpt>
      <trkpt lat="48.64054" lon="-3.40915">
        <ele>83</ele>
        <time>2013-01-04T13:54:18Z</time>
      </trkpt>
      <trkpt lat="48.64054" lon="-3.40905">
        <ele>83</ele>
        <time>2013-01-04T13:54:23Z</time>
      </trkpt>
      <trkpt lat="48.64053" lon="-3.40894">
        <ele>83</ele>
        <time>2013-01-04T13:54:28Z</time>
      </trkpt>
      <trkpt lat="48.64051" lon="-3.40884">
        <ele>83</ele>
        <time>2013-01-04T13:54:33Z</time>
      </trkpt>
      <trkpt lat="48.64046" lon="-3.40874">
        <ele>83</ele>
        <time>2013-01-04T13:54:39Z</time>
      </trkpt>
      <trkpt lat="48.64041" lon="-3.40864">
        <ele>83</ele>
        <time>2013-01-04T13:54:45Z</time>
      </trkpt>
      <trkpt lat="48.64037" lon="-3.40857">
        <ele>83</ele>
        <time>2013-01-04T13:54:51Z</time>
      </trkpt>
      <trkpt lat="48.64032" lon="-3.40849">
        <ele>83</ele>
        <time>2013-01-04T13:54:56Z</time>
      </trkpt>
      <trkpt lat="48.64027" lon="-3.4084">
        <ele>83</ele>
        <time>2013-01-04T13:55:01Z</time>
      </trkpt>
      <trkpt lat="48.6402" lon="-3.40829">
        <ele>83</ele>
        <time>2013-01-04T13:55:07Z</time>
      </trkpt>
      <trkpt lat="48.64016" lon="-3.40821">
        <ele>83</ele>
        <time>2013-01-04T13:55:12Z</time>
      </trkpt>
      <trkpt lat="48.6401" lon="-3.40813">
        <ele>83</ele>
        <time>2013-01-04T13:55:18Z</time>
      </trkpt>
      <trkpt lat="48.64004" lon="-3.40804">
        <ele>83</ele>
        <time>2013-01-04T13:55:24Z</time>
      </trkpt>
      <trkpt lat="48.63996" lon="-3.40795">
        <ele>83</ele>
        <time>2013-01-04T13:55:31Z</time>
      </trkpt>
      <trkpt lat="48.63994" lon="-3.40786">
        <ele>83</ele>
        <time>2013-01-04T13:55:37Z</time>
      </trkpt>
      <trkpt lat="48.63991" lon="-3.40773">
        <ele>83</ele>
        <time>2013-01-04T13:55:43Z</time>
      </trkpt>
      <trkpt lat="48.63986" lon="-3.40762">
        <ele>83</ele>
        <time>2013-01-04T13:55:49Z</time>
      </trkpt>
      <trkpt lat="48.63982" lon="-3.40751">
        <ele>83</ele>
        <time>2013-01-04T13:55:55Z</time>
      </trkpt>
      <trkpt lat="48.63977" lon="-3.40741">
        <ele>83</ele>
        <time>2013-01-04T13:56:01Z</time>
      </trkpt>
      <trkpt lat="48.63972" lon="-3.40735">
        <ele>83</ele>
        <time>2013-01-04T13:56:06Z</time>
      </trkpt>
      <trkpt lat="48.63967" lon="-3.4073">
        <ele>83</ele>
        <time>2013-01-04T13:56:12Z</time>
      </trkpt>
      <trkpt lat="48.63961" lon="-3.40726">
        <ele>82</ele>
        <time>2013-01-04T13:56:18Z</time>
      </trkpt>
      <trkpt lat="48.63956" lon="-3.40726">
        <ele>79</ele>
        <time>2013-01-04T13:56:23Z</time>
      </trkpt>
      <trkpt lat="48.63948" lon="-3.40727">
        <ele>77</ele>
        <time>2013-01-04T13:56:29Z</time>
      </trkpt>
      <trkpt lat="48.63943" lon="-3.40727">
        <ele>76</ele>
        <time>2013-01-04T13:56:34Z</time>
      </trkpt>
      <trkpt lat="48.63937" lon="-3.40727">
        <ele>75</ele>
        <time>2013-01-04T13:56:39Z</time>
      </trkpt>
      <trkpt lat="48.63931" lon="-3.40728">
        <ele>74</ele>
        <time>2013-01-04T13:56:44Z</time>
      </trkpt>
      <trkpt lat="48.63925" lon="-3.40729">
        <ele>73</ele>
        <time>2013-01-04T13:56:50Z</time>
      </trkpt>
      <trkpt lat="48.6392" lon="-3.40729">
        <ele>72</ele>
        <time>2013-01-04T13:56:55Z</time>
      </trkpt>
      <trkpt lat="48.63916" lon="-3.40729">
        <ele>72</ele>
        <time>2013-01-04T13:57:02Z</time>
      </trkpt>
      <trkpt lat="48.63915" lon="-3.40728">
        <ele>72</ele>
        <time>2013-01-04T13:57:09Z</time>
      </trkpt>
      <trkpt lat="48.63913" lon="-3.40726">
        <ele>72</ele>
        <time>2013-01-04T13:57:14Z</time>
      </trkpt>
      <trkpt lat="48.6391" lon="-3.40728">
        <ele>72</ele>
        <time>2013-01-04T13:57:21Z</time>
      </trkpt>
      <trkpt lat="48.63909" lon="-3.40727">
        <ele>72</ele>
        <time>2013-01-04T13:57:29Z</time>
      </trkpt>
      <trkpt lat="48.63909" lon="-3.4073">
        <ele>72</ele>
        <time>2013-01-04T13:57:35Z</time>
      </trkpt>
      <trkpt lat="48.63908" lon="-3.40726">
        <ele>73</ele>
        <time>2013-01-04T13:57:40Z</time>
      </trkpt>
      <trkpt lat="48.63906" lon="-3.40723">
        <ele>75</ele>
        <time>2013-01-04T13:57:46Z</time>
      </trkpt>
      <trkpt lat="48.63905" lon="-3.40723">
        <ele>76</ele>
        <time>2013-01-04T13:57:53Z</time>
      </trkpt>
      <trkpt lat="48.63902" lon="-3.40724">
        <ele>77</ele>
        <time>2013-01-04T13:57:58Z</time>
      </trkpt>
      <trkpt lat="48.63901" lon="-3.40726">
        <ele>77</ele>
        <time>2013-01-04T13:58:05Z</time>
      </trkpt>
      <trkpt lat="48.63899" lon="-3.40729">
        <ele>77</ele>
        <time>2013-01-04T13:58:12Z</time>
      </trkpt>
      <trkpt lat="48.63897" lon="-3.4073">
        <ele>77</ele>
        <time>2013-01-04T13:58:21Z</time>
      </trkpt>
      <trkpt lat="48.63896" lon="-3.4073">
        <ele>77</ele>
        <time>2013-01-04T13:58:29Z</time>
      </trkpt>
      <trkpt lat="48.63893" lon="-3.40729">
        <ele>77</ele>
        <time>2013-01-04T13:58:41Z</time>
      </trkpt>
      <trkpt lat="48.63891" lon="-3.40733">
        <ele>75</ele>
        <time>2013-01-04T13:58:48Z</time>
      </trkpt>
      <trkpt lat="48.63892" lon="-3.40735">
        <ele>73</ele>
        <time>2013-01-04T13:58:54Z</time>
      </trkpt>
      <trkpt lat="48.63889" lon="-3.40737">
        <ele>72</ele>
        <time>2013-01-04T13:59:00Z</time>
      </trkpt>
      <trkpt lat="48.63888" lon="-3.40735">
        <ele>69</ele>
        <time>2013-01-04T13:59:13Z</time>
      </trkpt>
      <trkpt lat="48.63888" lon="-3.40731">
        <ele>67</ele>
        <time>2013-01-04T13:59:23Z</time>
      </trkpt>
      <trkpt lat="48.63882" lon="-3.40732">
        <ele>67</ele>
        <time>2013-01-04T13:59:30Z</time>
      </trkpt>
      <trkpt lat="48.63879" lon="-3.40733">
        <ele>67</ele>
        <time>2013-01-04T13:59:35Z</time>
      </trkpt>
      <trkpt lat="48.63881" lon="-3.40733">
        <ele>67</ele>
        <time>2013-01-04T13:59:55Z</time>
      </trkpt>
      <trkpt lat="48.63882" lon="-3.40728">
        <ele>73</ele>
        <time>2013-01-04T14:00:03Z</time>
      </trkpt>
      <trkpt lat="48.63882" lon="-3.40724">
        <ele>75</ele>
        <time>2013-01-04T14:00:10Z</time>
      </trkpt>
      <trkpt lat="48.63881" lon="-3.40721">
        <ele>75</ele>
        <time>2013-01-04T14:00:20Z</time>
      </trkpt>
      <trkpt lat="48.63881" lon="-3.40715">
        <ele>75</ele>
        <time>2013-01-04T14:00:25Z</time>
      </trkpt>
      <trkpt lat="48.63882" lon="-3.4071">
        <ele>75</ele>
        <time>2013-01-04T14:00:30Z</time>
      </trkpt>
      <trkpt lat="48.63884" lon="-3.40703">
        <ele>75</ele>
        <time>2013-01-04T14:00:36Z</time>
      </trkpt>
      <trkpt lat="48.63884" lon="-3.40695">
        <ele>75</ele>
        <time>2013-01-04T14:00:42Z</time>
      </trkpt>
      <trkpt lat="48.63884" lon="-3.40688">
        <ele>75</ele>
        <time>2013-01-04T14:00:47Z</time>
      </trkpt>
      <trkpt lat="48.63882" lon="-3.40681">
        <ele>75</ele>
        <time>2013-01-04T14:00:52Z</time>
      </trkpt>
      <trkpt lat="48.63882" lon="-3.40676">
        <ele>75</ele>
        <time>2013-01-04T14:00:57Z</time>
      </trkpt>
      <trkpt lat="48.63881" lon="-3.40668">
        <ele>75</ele>
        <time>2013-01-04T14:01:02Z</time>
      </trkpt>
      <trkpt lat="48.63878" lon="-3.40658">
        <ele>75</ele>
        <time>2013-01-04T14:01:09Z</time>
      </trkpt>
      <trkpt lat="48.63877" lon="-3.40648">
        <ele>75</ele>
        <time>2013-01-04T14:01:15Z</time>
      </trkpt>
      <trkpt lat="48.63875" lon="-3.40637">
        <ele>75</ele>
        <time>2013-01-04T14:01:21Z</time>
      </trkpt>
      <trkpt lat="48.63872" lon="-3.4063">
        <ele>75</ele>
        <time>2013-01-04T14:01:26Z</time>
      </trkpt>
      <trkpt lat="48.63869" lon="-3.40622">
        <ele>75</ele>
        <time>2013-01-04T14:01:31Z</time>
      </trkpt>
      <trkpt lat="48.63866" lon="-3.40612">
        <ele>76</ele>
        <time>2013-01-04T14:01:36Z</time>
      </trkpt>
      <trkpt lat="48.63866" lon="-3.40603">
        <ele>76</ele>
        <time>2013-01-04T14:01:41Z</time>
      </trkpt>
      <trkpt lat="48.6386" lon="-3.40593">
        <ele>76</ele>
        <time>2013-01-04T14:01:47Z</time>
      </trkpt>
      <trkpt lat="48.63856" lon="-3.40584">
        <ele>76</ele>
        <time>2013-01-04T14:01:52Z</time>
      </trkpt>
      <trkpt lat="48.63852" lon="-3.40574">
        <ele>76</ele>
        <time>2013-01-04T14:01:58Z</time>
      </trkpt>
      <trkpt lat="48.63849" lon="-3.40567">
        <ele>76</ele>
        <time>2013-01-04T14:02:03Z</time>
      </trkpt>
      <trkpt lat="48.63845" lon="-3.40557">
        <ele>76</ele>
        <time>2013-01-04T14:02:09Z</time>
      </trkpt>
      <trkpt lat="48.63841" lon="-3.40546">
        <ele>76</ele>
        <time>2013-01-04T14:02:14Z</time>
      </trkpt>
      <trkpt lat="48.63838" lon="-3.40538">
        <ele>76</ele>
        <time>2013-01-04T14:02:19Z</time>
      </trkpt>
      <trkpt lat="48.63837" lon="-3.40529">
        <ele>76</ele>
        <time>2013-01-04T14:02:25Z</time>
      </trkpt>
      <trkpt lat="48.63834" lon="-3.40513">
        <ele>76</ele>
        <time>2013-01-04T14:02:32Z</time>
      </trkpt>
      <trkpt lat="48.63829" lon="-3.40507">
        <ele>76</ele>
        <time>2013-01-04T14:02:37Z</time>
      </trkpt>
      <trkpt lat="48.63821" lon="-3.40505">
        <ele>76</ele>
        <time>2013-01-04T14:02:42Z</time>
      </trkpt>
      <trkpt lat="48.63815" lon="-3.40505">
        <ele>76</ele>
        <time>2013-01-04T14:02:47Z</time>
      </trkpt>
      <trkpt lat="48.63807" lon="-3.40504">
        <ele>75</ele>
        <time>2013-01-04T14:02:52Z</time>
      </trkpt>
      <trkpt lat="48.63801" lon="-3.40501">
        <ele>74</ele>
        <time>2013-01-04T14:02:57Z</time>
      </trkpt>
      <trkpt lat="48.63795" lon="-3.405">
        <ele>74</ele>
        <time>2013-01-04T14:03:03Z</time>
      </trkpt>
      <trkpt lat="48.63791" lon="-3.40498">
        <ele>74</ele>
        <time>2013-01-04T14:03:10Z</time>
      </trkpt>
      <trkpt lat="48.63789" lon="-3.40497">
        <ele>74</ele>
        <time>2013-01-04T14:03:15Z</time>
      </trkpt>
      <trkpt lat="48.63786" lon="-3.40496">
        <ele>74</ele>
        <time>2013-01-04T14:03:20Z</time>
      </trkpt>
      <trkpt lat="48.63781" lon="-3.40496">
        <ele>73</ele>
        <time>2013-01-04T14:03:26Z</time>
      </trkpt>
      <trkpt lat="48.63777" lon="-3.40493">
        <ele>73</ele>
        <time>2013-01-04T14:03:34Z</time>
      </trkpt>
      <trkpt lat="48.63775" lon="-3.40491">
        <ele>73</ele>
        <time>2013-01-04T14:03:42Z</time>
      </trkpt>
      <trkpt lat="48.63772" lon="-3.4049">
        <ele>73</ele>
        <time>2013-01-04T14:03:50Z</time>
      </trkpt>
      <trkpt lat="48.63769" lon="-3.40489">
        <ele>72</ele>
        <time>2013-01-04T14:03:56Z</time>
      </trkpt>
      <trkpt lat="48.63765" lon="-3.40488">
        <ele>72</ele>
        <time>2013-01-04T14:04:02Z</time>
      </trkpt>
      <trkpt lat="48.6376" lon="-3.40485">
        <ele>71</ele>
        <time>2013-01-04T14:04:08Z</time>
      </trkpt>
      <trkpt lat="48.63756" lon="-3.40481">
        <ele>71</ele>
        <time>2013-01-04T14:04:14Z</time>
      </trkpt>
      <trkpt lat="48.63751" lon="-3.40478">
        <ele>71</ele>
        <time>2013-01-04T14:04:20Z</time>
      </trkpt>
      <trkpt lat="48.63747" lon="-3.40476">
        <ele>70</ele>
        <time>2013-01-04T14:04:25Z</time>
      </trkpt>
      <trkpt lat="48.63742" lon="-3.40469">
        <ele>69</ele>
        <time>2013-01-04T14:04:31Z</time>
      </trkpt>
      <trkpt lat="48.63739" lon="-3.40466">
        <ele>69</ele>
        <time>2013-01-04T14:04:36Z</time>
      </trkpt>
      <trkpt lat="48.63734" lon="-3.40465">
        <ele>69</ele>
        <time>2013-01-04T14:04:43Z</time>
      </trkpt>
      <trkpt lat="48.63727" lon="-3.40465">
        <ele>69</ele>
        <time>2013-01-04T14:04:48Z</time>
      </trkpt>
      <trkpt lat="48.63723" lon="-3.40467">
        <ele>69</ele>
        <time>2013-01-04T14:04:53Z</time>
      </trkpt>
      <trkpt lat="48.63717" lon="-3.40472">
        <ele>69</ele>
        <time>2013-01-04T14:05:00Z</time>
      </trkpt>
      <trkpt lat="48.63713" lon="-3.40476">
        <ele>69</ele>
        <time>2013-01-04T14:05:06Z</time>
      </trkpt>
      <trkpt lat="48.63707" lon="-3.4048">
        <ele>69</ele>
        <time>2013-01-04T14:05:12Z</time>
      </trkpt>
      <trkpt lat="48.63699" lon="-3.40485">
        <ele>67</ele>
        <time>2013-01-04T14:05:18Z</time>
      </trkpt>
      <trkpt lat="48.63696" lon="-3.40487">
        <ele>63</ele>
        <time>2013-01-04T14:05:23Z</time>
      </trkpt>
      <trkpt lat="48.63691" lon="-3.40491">
        <ele>61</ele>
        <time>2013-01-04T14:05:28Z</time>
      </trkpt>
      <trkpt lat="48.63685" lon="-3.40498">
        <ele>60</ele>
        <time>2013-01-04T14:05:34Z</time>
      </trkpt>
      <trkpt lat="48.63678" lon="-3.40505">
        <ele>60</ele>
        <time>2013-01-04T14:05:40Z</time>
      </trkpt>
      <trkpt lat="48.63673" lon="-3.40511">
        <ele>58</ele>
        <time>2013-01-04T14:05:46Z</time>
      </trkpt>
      <trkpt lat="48.63669" lon="-3.40518">
        <ele>57</ele>
        <time>2013-01-04T14:05:51Z</time>
      </trkpt>
      <trkpt lat="48.63663" lon="-3.40526">
        <ele>57</ele>
        <time>2013-01-04T14:05:56Z</time>
      </trkpt>
      <trkpt lat="48.63657" lon="-3.40535">
        <ele>57</ele>
        <time>2013-01-04T14:06:03Z</time>
      </trkpt>
      <trkpt lat="48.63654" lon="-3.40539">
        <ele>57</ele>
        <time>2013-01-04T14:06:08Z</time>
      </trkpt>
      <trkpt lat="48.6365" lon="-3.40544">
        <ele>57</ele>
        <time>2013-01-04T14:06:14Z</time>
      </trkpt>
      <trkpt lat="48.63646" lon="-3.4055">
        <ele>57</ele>
        <time>2013-01-04T14:06:20Z</time>
      </trkpt>
      <trkpt lat="48.63642" lon="-3.40553">
        <ele>57</ele>
        <time>2013-01-04T14:06:26Z</time>
      </trkpt>
      <trkpt lat="48.6364" lon="-3.4055">
        <ele>60</ele>
        <time>2013-01-04T14:06:32Z</time>
      </trkpt>
      <trkpt lat="48.63641" lon="-3.40546">
        <ele>62</ele>
        <time>2013-01-04T14:06:37Z</time>
      </trkpt>
      <trkpt lat="48.63642" lon="-3.40541">
        <ele>64</ele>
        <time>2013-01-04T14:06:43Z</time>
      </trkpt>
      <trkpt lat="48.63644" lon="-3.40533">
        <ele>67</ele>
        <time>2013-01-04T14:06:50Z</time>
      </trkpt>
      <trkpt lat="48.63646" lon="-3.40526">
        <ele>69</ele>
        <time>2013-01-04T14:06:56Z</time>
      </trkpt>
      <trkpt lat="48.63646" lon="-3.40519">
        <ele>71</ele>
        <time>2013-01-04T14:07:02Z</time>
      </trkpt>
      <trkpt lat="48.63648" lon="-3.40515">
        <ele>71</ele>
        <time>2013-01-04T14:07:07Z</time>
      </trkpt>
      <trkpt lat="48.63648" lon="-3.40511">
        <ele>71</ele>
        <time>2013-01-04T14:07:13Z</time>
      </trkpt>
      <trkpt lat="48.63648" lon="-3.40509">
        <ele>71</ele>
        <time>2013-01-04T14:07:18Z</time>
      </trkpt>
      <trkpt lat="48.63648" lon="-3.40502">
        <ele>71</ele>
        <time>2013-01-04T14:07:25Z</time>
      </trkpt>
      <trkpt lat="48.63651" lon="-3.405">
        <ele>72</ele>
        <time>2013-01-04T14:07:33Z</time>
      </trkpt>
      <trkpt lat="48.63652" lon="-3.40494">
        <ele>73</ele>
        <time>2013-01-04T14:07:39Z</time>
      </trkpt>
      <trkpt lat="48.63652" lon="-3.4049">
        <ele>75</ele>
        <time>2013-01-04T14:07:45Z</time>
      </trkpt>
      <trkpt lat="48.63653" lon="-3.40483">
        <ele>75</ele>
        <time>2013-01-04T14:07:51Z</time>
      </trkpt>
      <trkpt lat="48.63655" lon="-3.40476">
        <ele>77</ele>
        <time>2013-01-04T14:07:57Z</time>
      </trkpt>
      <trkpt lat="48.63656" lon="-3.4047">
        <ele>79</ele>
        <time>2013-01-04T14:08:03Z</time>
      </trkpt>
      <trkpt lat="48.63658" lon="-3.40463">
        <ele>79</ele>
        <time>2013-01-04T14:08:09Z</time>
      </trkpt>
      <trkpt lat="48.63659" lon="-3.40457">
        <ele>79</ele>
        <time>2013-01-04T14:08:15Z</time>
      </trkpt>
      <trkpt lat="48.63662" lon="-3.4045">
        <ele>79</ele>
        <time>2013-01-04T14:08:21Z</time>
      </trkpt>
      <trkpt lat="48.63665" lon="-3.40443">
        <ele>79</ele>
        <time>2013-01-04T14:08:27Z</time>
      </trkpt>
      <trkpt lat="48.63666" lon="-3.40436">
        <ele>79</ele>
        <time>2013-01-04T14:08:32Z</time>
      </trkpt>
      <trkpt lat="48.63667" lon="-3.40429">
        <ele>79</ele>
        <time>2013-01-04T14:08:38Z</time>
      </trkpt>
      <trkpt lat="48.63668" lon="-3.40417">
        <ele>79</ele>
        <time>2013-01-04T14:08:43Z</time>
      </trkpt>
      <trkpt lat="48.6367" lon="-3.40408">
        <ele>79</ele>
        <time>2013-01-04T14:08:48Z</time>
      </trkpt>
      <trkpt lat="48.63672" lon="-3.40399">
        <ele>79</ele>
        <time>2013-01-04T14:08:53Z</time>
      </trkpt>
      <trkpt lat="48.63674" lon="-3.40389">
        <ele>79</ele>
        <time>2013-01-04T14:08:58Z</time>
      </trkpt>
      <trkpt lat="48.63675" lon="-3.4038">
        <ele>79</ele>
        <time>2013-01-04T14:09:03Z</time>
      </trkpt>
      <trkpt lat="48.63675" lon="-3.4037">
        <ele>79</ele>
        <time>2013-01-04T14:09:08Z</time>
      </trkpt>
      <trkpt lat="48.63677" lon="-3.40361">
        <ele>79</ele>
        <time>2013-01-04T14:09:14Z</time>
      </trkpt>
      <trkpt lat="48.63678" lon="-3.40354">
        <ele>79</ele>
        <time>2013-01-04T14:09:19Z</time>
      </trkpt>
      <trkpt lat="48.6368" lon="-3.40345">
        <ele>79</ele>
        <time>2013-01-04T14:09:24Z</time>
      </trkpt>
      <trkpt lat="48.63682" lon="-3.40334">
        <ele>79</ele>
        <time>2013-01-04T14:09:30Z</time>
      </trkpt>
      <trkpt lat="48.63684" lon="-3.40327">
        <ele>79</ele>
        <time>2013-01-04T14:09:35Z</time>
      </trkpt>
      <trkpt lat="48.63686" lon="-3.40319">
        <ele>79</ele>
        <time>2013-01-04T14:09:40Z</time>
      </trkpt>
      <trkpt lat="48.63689" lon="-3.40309">
        <ele>79</ele>
        <time>2013-01-04T14:09:46Z</time>
      </trkpt>
      <trkpt lat="48.63692" lon="-3.40301">
        <ele>79</ele>
        <time>2013-01-04T14:09:52Z</time>
      </trkpt>
      <trkpt lat="48.63695" lon="-3.40293">
        <ele>79</ele>
        <time>2013-01-04T14:09:57Z</time>
      </trkpt>
      <trkpt lat="48.63697" lon="-3.40285">
        <ele>79</ele>
        <time>2013-01-04T14:10:02Z</time>
      </trkpt>
      <trkpt lat="48.63699" lon="-3.40277">
        <ele>79</ele>
        <time>2013-01-04T14:10:07Z</time>
      </trkpt>
      <trkpt lat="48.63701" lon="-3.4027">
        <ele>79</ele>
        <time>2013-01-04T14:10:12Z</time>
      </trkpt>
      <trkpt lat="48.63702" lon="-3.4026">
        <ele>79</ele>
        <time>2013-01-04T14:10:18Z</time>
      </trkpt>
      <trkpt lat="48.63701" lon="-3.40253">
        <ele>79</ele>
        <time>2013-01-04T14:10:23Z</time>
      </trkpt>
      <trkpt lat="48.637" lon="-3.40244">
        <ele>79</ele>
        <time>2013-01-04T14:10:29Z</time>
      </trkpt>
      <trkpt lat="48.63697" lon="-3.40236">
        <ele>79</ele>
        <time>2013-01-04T14:10:35Z</time>
      </trkpt>
      <trkpt lat="48.63694" lon="-3.40227">
        <ele>79</ele>
        <time>2013-01-04T14:10:41Z</time>
      </trkpt>
      <trkpt lat="48.63691" lon="-3.40218">
        <ele>79</ele>
        <time>2013-01-04T14:10:47Z</time>
      </trkpt>
      <trkpt lat="48.63686" lon="-3.40211">
        <ele>79</ele>
        <time>2013-01-04T14:10:53Z</time>
      </trkpt>
      <trkpt lat="48.63682" lon="-3.40205">
        <ele>79</ele>
        <time>2013-01-04T14:10:58Z</time>
      </trkpt>
      <trkpt lat="48.63678" lon="-3.40198">
        <ele>79</ele>
        <time>2013-01-04T14:11:04Z</time>
      </trkpt>
      <trkpt lat="48.63674" lon="-3.40194">
        <ele>79</ele>
        <time>2013-01-04T14:11:10Z</time>
      </trkpt>
      <trkpt lat="48.6367" lon="-3.4019">
        <ele>79</ele>
        <time>2013-01-04T14:11:15Z</time>
      </trkpt>
      <trkpt lat="48.63666" lon="-3.40187">
        <ele>79</ele>
        <time>2013-01-04T14:11:20Z</time>
      </trkpt>
      <trkpt lat="48.63662" lon="-3.4018">
        <ele>79</ele>
        <time>2013-01-04T14:11:26Z</time>
      </trkpt>
      <trkpt lat="48.63658" lon="-3.40175">
        <ele>79</ele>
        <time>2013-01-04T14:11:32Z</time>
      </trkpt>
      <trkpt lat="48.63652" lon="-3.40172">
        <ele>79</ele>
        <time>2013-01-04T14:11:38Z</time>
      </trkpt>
      <trkpt lat="48.63648" lon="-3.4017">
        <ele>80</ele>
        <time>2013-01-04T14:11:44Z</time>
      </trkpt>
      <trkpt lat="48.63644" lon="-3.40168">
        <ele>81</ele>
        <time>2013-01-04T14:11:50Z</time>
      </trkpt>
      <trkpt lat="48.63639" lon="-3.40165">
        <ele>82</ele>
        <time>2013-01-04T14:11:56Z</time>
      </trkpt>
      <trkpt lat="48.63633" lon="-3.4016">
        <ele>82</ele>
        <time>2013-01-04T14:12:01Z</time>
      </trkpt>
      <trkpt lat="48.63628" lon="-3.40155">
        <ele>83</ele>
        <time>2013-01-04T14:12:07Z</time>
      </trkpt>
      <trkpt lat="48.63623" lon="-3.40155">
        <ele>84</ele>
        <time>2013-01-04T14:12:12Z</time>
      </trkpt>
      <trkpt lat="48.63618" lon="-3.40155">
        <ele>84</ele>
        <time>2013-01-04T14:12:18Z</time>
      </trkpt>
      <trkpt lat="48.63613" lon="-3.40152">
        <ele>84</ele>
        <time>2013-01-04T14:12:24Z</time>
      </trkpt>
      <trkpt lat="48.63607" lon="-3.4015">
        <ele>84</ele>
        <time>2013-01-04T14:12:30Z</time>
      </trkpt>
      <trkpt lat="48.63601" lon="-3.40148">
        <ele>84</ele>
        <time>2013-01-04T14:12:35Z</time>
      </trkpt>
      <trkpt lat="48.63595" lon="-3.40146">
        <ele>84</ele>
        <time>2013-01-04T14:12:41Z</time>
      </trkpt>
      <trkpt lat="48.63589" lon="-3.40144">
        <ele>84</ele>
        <time>2013-01-04T14:12:47Z</time>
      </trkpt>
      <trkpt lat="48.63583" lon="-3.40142">
        <ele>84</ele>
        <time>2013-01-04T14:12:52Z</time>
      </trkpt>
      <trkpt lat="48.63577" lon="-3.40143">
        <ele>85</ele>
        <time>2013-01-04T14:12:58Z</time>
      </trkpt>
      <trkpt lat="48.6357" lon="-3.40143">
        <ele>85</ele>
        <time>2013-01-04T14:13:03Z</time>
      </trkpt>
      <trkpt lat="48.63565" lon="-3.40142">
        <ele>85</ele>
        <time>2013-01-04T14:13:08Z</time>
      </trkpt>
      <trkpt lat="48.63559" lon="-3.40142">
        <ele>85</ele>
        <time>2013-01-04T14:13:14Z</time>
      </trkpt>
      <trkpt lat="48.63552" lon="-3.40142">
        <ele>85</ele>
        <time>2013-01-04T14:13:20Z</time>
      </trkpt>
      <trkpt lat="48.63546" lon="-3.40141">
        <ele>85</ele>
        <time>2013-01-04T14:13:26Z</time>
      </trkpt>
      <trkpt lat="48.63541" lon="-3.4014">
        <ele>86</ele>
        <time>2013-01-04T14:13:31Z</time>
      </trkpt>
      <trkpt lat="48.63536" lon="-3.40142">
        <ele>87</ele>
        <time>2013-01-04T14:13:37Z</time>
      </trkpt>
      <trkpt lat="48.6353" lon="-3.40144">
        <ele>89</ele>
        <time>2013-01-04T14:13:43Z</time>
      </trkpt>
      <trkpt lat="48.63525" lon="-3.40146">
        <ele>90</ele>
        <time>2013-01-04T14:13:48Z</time>
      </trkpt>
      <trkpt lat="48.6352" lon="-3.40146">
        <ele>90</ele>
        <time>2013-01-04T14:13:54Z</time>
      </trkpt>
      <trkpt lat="48.63513" lon="-3.40144">
        <ele>90</ele>
        <time>2013-01-04T14:14:00Z</time>
      </trkpt>
      <trkpt lat="48.63508" lon="-3.40141">
        <ele>90</ele>
        <time>2013-01-04T14:14:05Z</time>
      </trkpt>
      <trkpt lat="48.63503" lon="-3.40138">
        <ele>91</ele>
        <time>2013-01-04T14:14:10Z</time>
      </trkpt>
      <trkpt lat="48.63498" lon="-3.40138">
        <ele>91</ele>
        <time>2013-01-04T14:14:15Z</time>
      </trkpt>
      <trkpt lat="48.63491" lon="-3.40135">
        <ele>91</ele>
        <time>2013-01-04T14:14:21Z</time>
      </trkpt>
      <trkpt lat="48.63486" lon="-3.40134">
        <ele>91</ele>
        <time>2013-01-04T14:14:26Z</time>
      </trkpt>
      <trkpt lat="48.6348" lon="-3.40133">
        <ele>91</ele>
        <time>2013-01-04T14:14:32Z</time>
      </trkpt>
      <trkpt lat="48.63474" lon="-3.40134">
        <ele>91</ele>
        <time>2013-01-04T14:14:37Z</time>
      </trkpt>
      <trkpt lat="48.63469" lon="-3.40134">
        <ele>91</ele>
        <time>2013-01-04T14:14:42Z</time>
      </trkpt>
      <trkpt lat="48.63464" lon="-3.40133">
        <ele>91</ele>
        <time>2013-01-04T14:14:47Z</time>
      </trkpt>
      <trkpt lat="48.63459" lon="-3.40129">
        <ele>91</ele>
        <time>2013-01-04T14:14:53Z</time>
      </trkpt>
      <trkpt lat="48.63456" lon="-3.40126">
        <ele>91</ele>
        <time>2013-01-04T14:14:58Z</time>
      </trkpt>
      <trkpt lat="48.63451" lon="-3.40124">
        <ele>91</ele>
        <time>2013-01-04T14:15:05Z</time>
      </trkpt>
      <trkpt lat="48.63446" lon="-3.40121">
        <ele>91</ele>
        <time>2013-01-04T14:15:11Z</time>
      </trkpt>
      <trkpt lat="48.63439" lon="-3.40118">
        <ele>91</ele>
        <time>2013-01-04T14:15:17Z</time>
      </trkpt>
      <trkpt lat="48.63433" lon="-3.40114">
        <ele>91</ele>
        <time>2013-01-04T14:15:22Z</time>
      </trkpt>
      <trkpt lat="48.63429" lon="-3.40112">
        <ele>91</ele>
        <time>2013-01-04T14:15:27Z</time>
      </trkpt>
      <trkpt lat="48.63423" lon="-3.40108">
        <ele>91</ele>
        <time>2013-01-04T14:15:33Z</time>
      </trkpt>
      <trkpt lat="48.63417" lon="-3.40102">
        <ele>91</ele>
        <time>2013-01-04T14:15:39Z</time>
      </trkpt>
      <trkpt lat="48.63412" lon="-3.40096">
        <ele>91</ele>
        <time>2013-01-04T14:15:44Z</time>
      </trkpt>
      <trkpt lat="48.63407" lon="-3.40088">
        <ele>91</ele>
        <time>2013-01-04T14:15:49Z</time>
      </trkpt>
      <trkpt lat="48.63403" lon="-3.40078">
        <ele>91</ele>
        <time>2013-01-04T14:15:55Z</time>
      </trkpt>
      <trkpt lat="48.634" lon="-3.40066">
        <ele>92</ele>
        <time>2013-01-04T14:16:00Z</time>
      </trkpt>
      <trkpt lat="48.63398" lon="-3.40055">
        <ele>94</ele>
        <time>2013-01-04T14:16:05Z</time>
      </trkpt>
      <trkpt lat="48.63398" lon="-3.40046">
        <ele>95</ele>
        <time>2013-01-04T14:16:10Z</time>
      </trkpt>
      <trkpt lat="48.63399" lon="-3.40037">
        <ele>95</ele>
        <time>2013-01-04T14:16:15Z</time>
      </trkpt>
      <trkpt lat="48.63399" lon="-3.40028">
        <ele>95</ele>
        <time>2013-01-04T14:16:20Z</time>
      </trkpt>
      <trkpt lat="48.634" lon="-3.40019">
        <ele>95</ele>
        <time>2013-01-04T14:16:25Z</time>
      </trkpt>
      <trkpt lat="48.634" lon="-3.40009">
        <ele>95</ele>
        <time>2013-01-04T14:16:30Z</time>
      </trkpt>
      <trkpt lat="48.63401" lon="-3.4">
        <ele>96</ele>
        <time>2013-01-04T14:16:35Z</time>
      </trkpt>
      <trkpt lat="48.63402" lon="-3.39991">
        <ele>96</ele>
        <time>2013-01-04T14:16:41Z</time>
      </trkpt>
      <trkpt lat="48.63403" lon="-3.39983">
        <ele>96</ele>
        <time>2013-01-04T14:16:46Z</time>
      </trkpt>
      <trkpt lat="48.63404" lon="-3.39976">
        <ele>96</ele>
        <time>2013-01-04T14:16:51Z</time>
      </trkpt>
      <trkpt lat="48.63403" lon="-3.39964">
        <ele>97</ele>
        <time>2013-01-04T14:16:57Z</time>
      </trkpt>
      <trkpt lat="48.63403" lon="-3.39955">
        <ele>98</ele>
        <time>2013-01-04T14:17:02Z</time>
      </trkpt>
      <trkpt lat="48.63399" lon="-3.39946">
        <ele>98</ele>
        <time>2013-01-04T14:17:08Z</time>
      </trkpt>
      <trkpt lat="48.63393" lon="-3.39947">
        <ele>98</ele>
        <time>2013-01-04T14:17:13Z</time>
      </trkpt>
      <trkpt lat="48.63384" lon="-3.3995">
        <ele>98</ele>
        <time>2013-01-04T14:17:18Z</time>
      </trkpt>
      <trkpt lat="48.63377" lon="-3.39956">
        <ele>98</ele>
        <time>2013-01-04T14:17:24Z</time>
      </trkpt>
      <trkpt lat="48.63372" lon="-3.39962">
        <ele>98</ele>
        <time>2013-01-04T14:17:30Z</time>
      </trkpt>
      <trkpt lat="48.63367" lon="-3.39967">
        <ele>98</ele>
        <time>2013-01-04T14:17:36Z</time>
      </trkpt>
      <trkpt lat="48.63362" lon="-3.39972">
        <ele>98</ele>
        <time>2013-01-04T14:17:41Z</time>
      </trkpt>
      <trkpt lat="48.63357" lon="-3.39979">
        <ele>98</ele>
        <time>2013-01-04T14:17:47Z</time>
      </trkpt>
      <trkpt lat="48.63351" lon="-3.39984">
        <ele>98</ele>
        <time>2013-01-04T14:17:52Z</time>
      </trkpt>
      <trkpt lat="48.63345" lon="-3.3999">
        <ele>98</ele>
        <time>2013-01-04T14:17:57Z</time>
      </trkpt>
      <trkpt lat="48.63339" lon="-3.39997">
        <ele>99</ele>
        <time>2013-01-04T14:18:03Z</time>
      </trkpt>
      <trkpt lat="48.63333" lon="-3.40004">
        <ele>99</ele>
        <time>2013-01-04T14:18:09Z</time>
      </trkpt>
      <trkpt lat="48.63327" lon="-3.4001">
        <ele>100</ele>
        <time>2013-01-04T14:18:15Z</time>
      </trkpt>
      <trkpt lat="48.63322" lon="-3.40017">
        <ele>101</ele>
        <time>2013-01-04T14:18:21Z</time>
      </trkpt>
      <trkpt lat="48.63316" lon="-3.40023">
        <ele>102</ele>
        <time>2013-01-04T14:18:27Z</time>
      </trkpt>
      <trkpt lat="48.6331" lon="-3.40028">
        <ele>102</ele>
        <time>2013-01-04T14:18:32Z</time>
      </trkpt>
      <trkpt lat="48.63305" lon="-3.40034">
        <ele>102</ele>
        <time>2013-01-04T14:18:37Z</time>
      </trkpt>
      <trkpt lat="48.63299" lon="-3.4004">
        <ele>102</ele>
        <time>2013-01-04T14:18:42Z</time>
      </trkpt>
      <trkpt lat="48.63294" lon="-3.40045">
        <ele>102</ele>
        <time>2013-01-04T14:18:47Z</time>
      </trkpt>
      <trkpt lat="48.63289" lon="-3.4005">
        <ele>102</ele>
        <time>2013-01-04T14:18:52Z</time>
      </trkpt>
      <trkpt lat="48.63282" lon="-3.40056">
        <ele>102</ele>
        <time>2013-01-04T14:18:58Z</time>
      </trkpt>
      <trkpt lat="48.63277" lon="-3.4006">
        <ele>102</ele>
        <time>2013-01-04T14:19:03Z</time>
      </trkpt>
      <trkpt lat="48.63271" lon="-3.40066">
        <ele>102</ele>
        <time>2013-01-04T14:19:08Z</time>
      </trkpt>
      <trkpt lat="48.63266" lon="-3.40071">
        <ele>102</ele>
        <time>2013-01-04T14:19:13Z</time>
      </trkpt>
      <trkpt lat="48.6326" lon="-3.40076">
        <ele>102</ele>
        <time>2013-01-04T14:19:18Z</time>
      </trkpt>
      <trkpt lat="48.63253" lon="-3.4008">
        <ele>102</ele>
        <time>2013-01-04T14:19:24Z</time>
      </trkpt>
      <trkpt lat="48.63247" lon="-3.40085">
        <ele>102</ele>
        <time>2013-01-04T14:19:29Z</time>
      </trkpt>
      <trkpt lat="48.63241" lon="-3.4009">
        <ele>102</ele>
        <time>2013-01-04T14:19:34Z</time>
      </trkpt>
      <trkpt lat="48.63234" lon="-3.40095">
        <ele>102</ele>
        <time>2013-01-04T14:19:39Z</time>
      </trkpt>
      <trkpt lat="48.63228" lon="-3.401">
        <ele>101</ele>
        <time>2013-01-04T14:19:44Z</time>
      </trkpt>
      <trkpt lat="48.63222" lon="-3.40105">
        <ele>101</ele>
        <time>2013-01-04T14:19:49Z</time>
      </trkpt>
      <trkpt lat="48.63216" lon="-3.40109">
        <ele>101</ele>
        <time>2013-01-04T14:19:54Z</time>
      </trkpt>
      <trkpt lat="48.6321" lon="-3.40114">
        <ele>101</ele>
        <time>2013-01-04T14:19:59Z</time>
      </trkpt>
      <trkpt lat="48.63205" lon="-3.40118">
        <ele>101</ele>
        <time>2013-01-04T14:20:04Z</time>
      </trkpt>
      <trkpt lat="48.63199" lon="-3.40124">
        <ele>100</ele>
        <time>2013-01-04T14:20:10Z</time>
      </trkpt>
      <trkpt lat="48.63194" lon="-3.40132">
        <ele>100</ele>
        <time>2013-01-04T14:20:16Z</time>
      </trkpt>
      <trkpt lat="48.63192" lon="-3.4014">
        <ele>99</ele>
        <time>2013-01-04T14:20:21Z</time>
      </trkpt>
      <trkpt lat="48.63194" lon="-3.40151">
        <ele>99</ele>
        <time>2013-01-04T14:20:27Z</time>
      </trkpt>
      <trkpt lat="48.63197" lon="-3.4016">
        <ele>99</ele>
        <time>2013-01-04T14:20:33Z</time>
      </trkpt>
      <trkpt lat="48.63198" lon="-3.40167">
        <ele>98</ele>
        <time>2013-01-04T14:20:38Z</time>
      </trkpt>
      <trkpt lat="48.632" lon="-3.40175">
        <ele>97</ele>
        <time>2013-01-04T14:20:43Z</time>
      </trkpt>
      <trkpt lat="48.63202" lon="-3.40183">
        <ele>94</ele>
        <time>2013-01-04T14:20:49Z</time>
      </trkpt>
      <trkpt lat="48.63204" lon="-3.40191">
        <ele>93</ele>
        <time>2013-01-04T14:20:54Z</time>
      </trkpt>
      <trkpt lat="48.63208" lon="-3.402">
        <ele>93</ele>
        <time>2013-01-04T14:21:00Z</time>
      </trkpt>
      <trkpt lat="48.63213" lon="-3.40208">
        <ele>93</ele>
        <time>2013-01-04T14:21:06Z</time>
      </trkpt>
      <trkpt lat="48.63219" lon="-3.40215">
        <ele>93</ele>
        <time>2013-01-04T14:21:12Z</time>
      </trkpt>
      <trkpt lat="48.63223" lon="-3.40223">
        <ele>93</ele>
        <time>2013-01-04T14:21:18Z</time>
      </trkpt>
      <trkpt lat="48.63227" lon="-3.40231">
        <ele>93</ele>
        <time>2013-01-04T14:21:24Z</time>
      </trkpt>
      <trkpt lat="48.63229" lon="-3.4024">
        <ele>92</ele>
        <time>2013-01-04T14:21:30Z</time>
      </trkpt>
      <trkpt lat="48.63231" lon="-3.40246">
        <ele>92</ele>
        <time>2013-01-04T14:21:36Z</time>
      </trkpt>
      <trkpt lat="48.63232" lon="-3.40252">
        <ele>90</ele>
        <time>2013-01-04T14:21:42Z</time>
      </trkpt>
      <trkpt lat="48.63232" lon="-3.40261">
        <ele>89</ele>
        <time>2013-01-04T14:21:48Z</time>
      </trkpt>
      <trkpt lat="48.63234" lon="-3.40269">
        <ele>89</ele>
        <time>2013-01-04T14:21:54Z</time>
      </trkpt>
      <trkpt lat="48.63234" lon="-3.40278">
        <ele>89</ele>
        <time>2013-01-04T14:22:00Z</time>
      </trkpt>
      <trkpt lat="48.63235" lon="-3.40285">
        <ele>87</ele>
        <time>2013-01-04T14:22:06Z</time>
      </trkpt>
      <trkpt lat="48.63235" lon="-3.40292">
        <ele>87</ele>
        <time>2013-01-04T14:22:11Z</time>
      </trkpt>
      <trkpt lat="48.63236" lon="-3.40299">
        <ele>86</ele>
        <time>2013-01-04T14:22:16Z</time>
      </trkpt>
      <trkpt lat="48.63237" lon="-3.40309">
        <ele>85</ele>
        <time>2013-01-04T14:22:22Z</time>
      </trkpt>
      <trkpt lat="48.63238" lon="-3.40317">
        <ele>85</ele>
        <time>2013-01-04T14:22:27Z</time>
      </trkpt>
      <trkpt lat="48.63238" lon="-3.40325">
        <ele>84</ele>
        <time>2013-01-04T14:22:32Z</time>
      </trkpt>
      <trkpt lat="48.63236" lon="-3.40337">
        <ele>84</ele>
        <time>2013-01-04T14:22:38Z</time>
      </trkpt>
      <trkpt lat="48.63237" lon="-3.40346">
        <ele>84</ele>
        <time>2013-01-04T14:22:44Z</time>
      </trkpt>
      <trkpt lat="48.63237" lon="-3.40356">
        <ele>84</ele>
        <time>2013-01-04T14:22:50Z</time>
      </trkpt>
      <trkpt lat="48.63236" lon="-3.40365">
        <ele>84</ele>
        <time>2013-01-04T14:22:55Z</time>
      </trkpt>
      <trkpt lat="48.63237" lon="-3.40374">
        <ele>84</ele>
        <time>2013-01-04T14:23:00Z</time>
      </trkpt>
      <trkpt lat="48.63239" lon="-3.40383">
        <ele>84</ele>
        <time>2013-01-04T14:23:06Z</time>
      </trkpt>
      <trkpt lat="48.63239" lon="-3.40391">
        <ele>84</ele>
        <time>2013-01-04T14:23:11Z</time>
      </trkpt>
      <trkpt lat="48.6324" lon="-3.40397">
        <ele>84</ele>
        <time>2013-01-04T14:23:17Z</time>
      </trkpt>
      <trkpt lat="48.6324" lon="-3.40403">
        <ele>83</ele>
        <time>2013-01-04T14:23:23Z</time>
      </trkpt>
      <trkpt lat="48.6324" lon="-3.40409">
        <ele>80</ele>
        <time>2013-01-04T14:23:29Z</time>
      </trkpt>
      <trkpt lat="48.6324" lon="-3.40414">
        <ele>79</ele>
        <time>2013-01-04T14:23:37Z</time>
      </trkpt>
      <trkpt lat="48.6324" lon="-3.40417">
        <ele>79</ele>
        <time>2013-01-04T14:23:42Z</time>
      </trkpt>
      <trkpt lat="48.63239" lon="-3.40419">
        <ele>79</ele>
        <time>2013-01-04T14:23:47Z</time>
      </trkpt>
      <trkpt lat="48.63237" lon="-3.40422">
        <ele>79</ele>
        <time>2013-01-04T14:23:53Z</time>
      </trkpt>
      <trkpt lat="48.63235" lon="-3.40428">
        <ele>79</ele>
        <time>2013-01-04T14:23:59Z</time>
      </trkpt>
      <trkpt lat="48.63233" lon="-3.40435">
        <ele>79</ele>
        <time>2013-01-04T14:24:05Z</time>
      </trkpt>
      <trkpt lat="48.63231" lon="-3.40441">
        <ele>80</ele>
        <time>2013-01-04T14:24:11Z</time>
      </trkpt>
      <trkpt lat="48.63229" lon="-3.40444">
        <ele>80</ele>
        <time>2013-01-04T14:24:16Z</time>
      </trkpt>
      <trkpt lat="48.63228" lon="-3.40451">
        <ele>80</ele>
        <time>2013-01-04T14:24:22Z</time>
      </trkpt>
      <trkpt lat="48.63227" lon="-3.40458">
        <ele>80</ele>
        <time>2013-01-04T14:24:28Z</time>
      </trkpt>
      <trkpt lat="48.63226" lon="-3.40464">
        <ele>79</ele>
        <time>2013-01-04T14:24:33Z</time>
      </trkpt>
      <trkpt lat="48.63226" lon="-3.40471">
        <ele>79</ele>
        <time>2013-01-04T14:24:39Z</time>
      </trkpt>
      <trkpt lat="48.63226" lon="-3.40477">
        <ele>79</ele>
        <time>2013-01-04T14:24:45Z</time>
      </trkpt>
      <trkpt lat="48.63225" lon="-3.40481">
        <ele>79</ele>
        <time>2013-01-04T14:24:51Z</time>
      </trkpt>
      <trkpt lat="48.63225" lon="-3.40485">
        <ele>79</ele>
        <time>2013-01-04T14:24:57Z</time>
      </trkpt>
      <trkpt lat="48.63224" lon="-3.4049">
        <ele>79</ele>
        <time>2013-01-04T14:25:03Z</time>
      </trkpt>
      <trkpt lat="48.63224" lon="-3.40497">
        <ele>79</ele>
        <time>2013-01-04T14:25:08Z</time>
      </trkpt>
      <trkpt lat="48.63226" lon="-3.40506">
        <ele>76</ele>
        <time>2013-01-04T14:25:14Z</time>
      </trkpt>
      <trkpt lat="48.63228" lon="-3.40513">
        <ele>74</ele>
        <time>2013-01-04T14:25:20Z</time>
      </trkpt>
      <trkpt lat="48.63229" lon="-3.40523">
        <ele>73</ele>
        <time>2013-01-04T14:25:25Z</time>
      </trkpt>
      <trkpt lat="48.6323" lon="-3.40529">
        <ele>73</ele>
        <time>2013-01-04T14:25:31Z</time>
      </trkpt>
      <trkpt lat="48.63232" lon="-3.40537">
        <ele>72</ele>
        <time>2013-01-04T14:25:37Z</time>
      </trkpt>
      <trkpt lat="48.63234" lon="-3.40545">
        <ele>71</ele>
        <time>2013-01-04T14:25:42Z</time>
      </trkpt>
      <trkpt lat="48.63236" lon="-3.40553">
        <ele>70</ele>
        <time>2013-01-04T14:25:48Z</time>
      </trkpt>
      <trkpt lat="48.63237" lon="-3.4056">
        <ele>67</ele>
        <time>2013-01-04T14:25:53Z</time>
      </trkpt>
      <trkpt lat="48.6324" lon="-3.40568">
        <ele>67</ele>
        <time>2013-01-04T14:25:59Z</time>
      </trkpt>
      <trkpt lat="48.63241" lon="-3.40576">
        <ele>64</ele>
        <time>2013-01-04T14:26:04Z</time>
      </trkpt>
      <trkpt lat="48.63241" lon="-3.40583">
        <ele>64</ele>
        <time>2013-01-04T14:26:09Z</time>
      </trkpt>
      <trkpt lat="48.63241" lon="-3.40593">
        <ele>64</ele>
        <time>2013-01-04T14:26:14Z</time>
      </trkpt>
      <trkpt lat="48.63243" lon="-3.40601">
        <ele>64</ele>
        <time>2013-01-04T14:26:19Z</time>
      </trkpt>
      <trkpt lat="48.63243" lon="-3.40611">
        <ele>64</ele>
        <time>2013-01-04T14:26:24Z</time>
      </trkpt>
      <trkpt lat="48.63246" lon="-3.40621">
        <ele>64</ele>
        <time>2013-01-04T14:26:30Z</time>
      </trkpt>
      <trkpt lat="48.63249" lon="-3.4063">
        <ele>64</ele>
        <time>2013-01-04T14:26:35Z</time>
      </trkpt>
      <trkpt lat="48.63251" lon="-3.40637">
        <ele>64</ele>
        <time>2013-01-04T14:26:41Z</time>
      </trkpt>
      <trkpt lat="48.63254" lon="-3.40646">
        <ele>64</ele>
        <time>2013-01-04T14:26:46Z</time>
      </trkpt>
      <trkpt lat="48.63255" lon="-3.40654">
        <ele>64</ele>
        <time>2013-01-04T14:26:51Z</time>
      </trkpt>
      <trkpt lat="48.63257" lon="-3.40663">
        <ele>65</ele>
        <time>2013-01-04T14:26:56Z</time>
      </trkpt>
      <trkpt lat="48.63258" lon="-3.40673">
        <ele>65</ele>
        <time>2013-01-04T14:27:02Z</time>
      </trkpt>
      <trkpt lat="48.6326" lon="-3.40682">
        <ele>65</ele>
        <time>2013-01-04T14:27:07Z</time>
      </trkpt>
      <trkpt lat="48.63261" lon="-3.4069">
        <ele>65</ele>
        <time>2013-01-04T14:27:13Z</time>
      </trkpt>
      <trkpt lat="48.63262" lon="-3.40698">
        <ele>65</ele>
        <time>2013-01-04T14:27:18Z</time>
      </trkpt>
      <trkpt lat="48.6326" lon="-3.40707">
        <ele>65</ele>
        <time>2013-01-04T14:27:24Z</time>
      </trkpt>
      <trkpt lat="48.63256" lon="-3.40714">
        <ele>65</ele>
        <time>2013-01-04T14:27:29Z</time>
      </trkpt>
      <trkpt lat="48.63252" lon="-3.40722">
        <ele>65</ele>
        <time>2013-01-04T14:27:34Z</time>
      </trkpt>
      <trkpt lat="48.6325" lon="-3.40729">
        <ele>65</ele>
        <time>2013-01-04T14:27:39Z</time>
      </trkpt>
      <trkpt lat="48.63247" lon="-3.40737">
        <ele>65</ele>
        <time>2013-01-04T14:27:45Z</time>
      </trkpt>
      <trkpt lat="48.63243" lon="-3.40746">
        <ele>65</ele>
        <time>2013-01-04T14:27:51Z</time>
      </trkpt>
      <trkpt lat="48.63242" lon="-3.40756">
        <ele>64</ele>
        <time>2013-01-04T14:27:56Z</time>
      </trkpt>
      <trkpt lat="48.63243" lon="-3.40766">
        <ele>64</ele>
        <time>2013-01-04T14:28:01Z</time>
      </trkpt>
      <trkpt lat="48.63244" lon="-3.40774">
        <ele>64</ele>
        <time>2013-01-04T14:28:06Z</time>
      </trkpt>
      <trkpt lat="48.63245" lon="-3.40784">
        <ele>64</ele>
        <time>2013-01-04T14:28:11Z</time>
      </trkpt>
      <trkpt lat="48.63246" lon="-3.40793">
        <ele>64</ele>
        <time>2013-01-04T14:28:16Z</time>
      </trkpt>
      <trkpt lat="48.63246" lon="-3.40803">
        <ele>64</ele>
        <time>2013-01-04T14:28:21Z</time>
      </trkpt>
      <trkpt lat="48.63246" lon="-3.40812">
        <ele>64</ele>
        <time>2013-01-04T14:28:26Z</time>
      </trkpt>
      <trkpt lat="48.63247" lon="-3.40821">
        <ele>64</ele>
        <time>2013-01-04T14:28:31Z</time>
      </trkpt>
      <trkpt lat="48.63249" lon="-3.4083">
        <ele>64</ele>
        <time>2013-01-04T14:28:36Z</time>
      </trkpt>
      <trkpt lat="48.63249" lon="-3.40839">
        <ele>63</ele>
        <time>2013-01-04T14:28:42Z</time>
      </trkpt>
      <trkpt lat="48.63246" lon="-3.40847">
        <ele>63</ele>
        <time>2013-01-04T14:28:47Z</time>
      </trkpt>
      <trkpt lat="48.63242" lon="-3.40857">
        <ele>63</ele>
        <time>2013-01-04T14:28:53Z</time>
      </trkpt>
      <trkpt lat="48.6324" lon="-3.40866">
        <ele>63</ele>
        <time>2013-01-04T14:28:59Z</time>
      </trkpt>
      <trkpt lat="48.63236" lon="-3.40876">
        <ele>63</ele>
        <time>2013-01-04T14:29:05Z</time>
      </trkpt>
      <trkpt lat="48.63232" lon="-3.40883">
        <ele>63</ele>
        <time>2013-01-04T14:29:10Z</time>
      </trkpt>
      <trkpt lat="48.63232" lon="-3.40893">
        <ele>63</ele>
        <time>2013-01-04T14:29:15Z</time>
      </trkpt>
      <trkpt lat="48.63234" lon="-3.40901">
        <ele>62</ele>
        <time>2013-01-04T14:29:21Z</time>
      </trkpt>
      <trkpt lat="48.63236" lon="-3.4091">
        <ele>60</ele>
        <time>2013-01-04T14:29:26Z</time>
      </trkpt>
      <trkpt lat="48.63233" lon="-3.40919">
        <ele>59</ele>
        <time>2013-01-04T14:29:31Z</time>
      </trkpt>
      <trkpt lat="48.63234" lon="-3.40928">
        <ele>58</ele>
        <time>2013-01-04T14:29:36Z</time>
      </trkpt>
      <trkpt lat="48.63235" lon="-3.40937">
        <ele>56</ele>
        <time>2013-01-04T14:29:42Z</time>
      </trkpt>
      <trkpt lat="48.63237" lon="-3.40946">
        <ele>55</ele>
        <time>2013-01-04T14:29:48Z</time>
      </trkpt>
      <trkpt lat="48.63243" lon="-3.40954">
        <ele>55</ele>
        <time>2013-01-04T14:29:54Z</time>
      </trkpt>
      <trkpt lat="48.63246" lon="-3.4096">
        <ele>54</ele>
        <time>2013-01-04T14:29:59Z</time>
      </trkpt>
      <trkpt lat="48.63246" lon="-3.40968">
        <ele>54</ele>
        <time>2013-01-04T14:30:04Z</time>
      </trkpt>
      <trkpt lat="48.63246" lon="-3.40977">
        <ele>53</ele>
        <time>2013-01-04T14:30:09Z</time>
      </trkpt>
      <trkpt lat="48.63249" lon="-3.40985">
        <ele>49</ele>
        <time>2013-01-04T14:30:14Z</time>
      </trkpt>
      <trkpt lat="48.6325" lon="-3.40993">
        <ele>46</ele>
        <time>2013-01-04T14:30:20Z</time>
      </trkpt>
      <trkpt lat="48.63253" lon="-3.41001">
        <ele>43</ele>
        <time>2013-01-04T14:30:26Z</time>
      </trkpt>
      <trkpt lat="48.63257" lon="-3.41006">
        <ele>43</ele>
        <time>2013-01-04T14:30:32Z</time>
      </trkpt>
      <trkpt lat="48.63263" lon="-3.41012">
        <ele>44</ele>
        <time>2013-01-04T14:30:40Z</time>
      </trkpt>
      <trkpt lat="48.63268" lon="-3.41017">
        <ele>45</ele>
        <time>2013-01-04T14:30:45Z</time>
      </trkpt>
      <trkpt lat="48.63273" lon="-3.4102">
        <ele>45</ele>
        <time>2013-01-04T14:30:51Z</time>
      </trkpt>
      <trkpt lat="48.63278" lon="-3.41024">
        <ele>45</ele>
        <time>2013-01-04T14:30:58Z</time>
      </trkpt>
      <trkpt lat="48.63281" lon="-3.41025">
        <ele>48</ele>
        <time>2013-01-04T14:31:06Z</time>
      </trkpt>
      <trkpt lat="48.63286" lon="-3.41032">
        <ele>49</ele>
        <time>2013-01-04T14:31:11Z</time>
      </trkpt>
      <trkpt lat="48.63292" lon="-3.41039">
        <ele>49</ele>
        <time>2013-01-04T14:31:17Z</time>
      </trkpt>
      <trkpt lat="48.63293" lon="-3.41047">
        <ele>49</ele>
        <time>2013-01-04T14:31:22Z</time>
      </trkpt>
      <trkpt lat="48.63295" lon="-3.41054">
        <ele>49</ele>
        <time>2013-01-04T14:31:27Z</time>
      </trkpt>
      <trkpt lat="48.63297" lon="-3.41062">
        <ele>44</ele>
        <time>2013-01-04T14:31:33Z</time>
      </trkpt>
      <trkpt lat="48.63298" lon="-3.4107">
        <ele>41</ele>
        <time>2013-01-04T14:31:38Z</time>
      </trkpt>
      <trkpt lat="48.633" lon="-3.41077">
        <ele>38</ele>
        <time>2013-01-04T14:31:43Z</time>
      </trkpt>
      <trkpt lat="48.63303" lon="-3.41083">
        <ele>36</ele>
        <time>2013-01-04T14:31:49Z</time>
      </trkpt>
      <trkpt lat="48.63306" lon="-3.4109">
        <ele>35</ele>
        <time>2013-01-04T14:31:56Z</time>
      </trkpt>
      <trkpt lat="48.63307" lon="-3.41097">
        <ele>34</ele>
        <time>2013-01-04T14:32:02Z</time>
      </trkpt>
      <trkpt lat="48.63305" lon="-3.411">
        <ele>34</ele>
        <time>2013-01-04T14:32:07Z</time>
      </trkpt>
      <trkpt lat="48.633" lon="-3.41099">
        <ele>34</ele>
        <time>2013-01-04T14:32:12Z</time>
      </trkpt>
      <trkpt lat="48.63293" lon="-3.411">
        <ele>34</ele>
        <time>2013-01-04T14:32:17Z</time>
      </trkpt>
      <trkpt lat="48.63287" lon="-3.411">
        <ele>34</ele>
        <time>2013-01-04T14:32:22Z</time>
      </trkpt>
      <trkpt lat="48.63281" lon="-3.41097">
        <ele>34</ele>
        <time>2013-01-04T14:32:28Z</time>
      </trkpt>
      <trkpt lat="48.63275" lon="-3.41092">
        <ele>34</ele>
        <time>2013-01-04T14:32:34Z</time>
      </trkpt>
      <trkpt lat="48.63269" lon="-3.41089">
        <ele>34</ele>
        <time>2013-01-04T14:32:40Z</time>
      </trkpt>
      <trkpt lat="48.63263" lon="-3.41085">
        <ele>33</ele>
        <time>2013-01-04T14:32:46Z</time>
      </trkpt>
      <trkpt lat="48.63259" lon="-3.41084">
        <ele>33</ele>
        <time>2013-01-04T14:32:54Z</time>
      </trkpt>
      <trkpt lat="48.63257" lon="-3.4108">
        <ele>33</ele>
        <time>2013-01-04T14:33:00Z</time>
      </trkpt>
      <trkpt lat="48.63255" lon="-3.41075">
        <ele>35</ele>
        <time>2013-01-04T14:33:08Z</time>
      </trkpt>
      <trkpt lat="48.63253" lon="-3.41075">
        <ele>37</ele>
        <time>2013-01-04T14:33:13Z</time>
      </trkpt>
      <trkpt lat="48.63249" lon="-3.41074">
        <ele>37</ele>
        <time>2013-01-04T14:33:18Z</time>
      </trkpt>
      <trkpt lat="48.63247" lon="-3.41072">
        <ele>37</ele>
        <time>2013-01-04T14:33:25Z</time>
      </trkpt>
      <trkpt lat="48.63244" lon="-3.4107">
        <ele>37</ele>
        <time>2013-01-04T14:33:31Z</time>
      </trkpt>
      <trkpt lat="48.63241" lon="-3.41067">
        <ele>37</ele>
        <time>2013-01-04T14:33:36Z</time>
      </trkpt>
      <trkpt lat="48.63235" lon="-3.41064">
        <ele>37</ele>
        <time>2013-01-04T14:33:42Z</time>
      </trkpt>
      <trkpt lat="48.63231" lon="-3.41061">
        <ele>37</ele>
        <time>2013-01-04T14:33:47Z</time>
      </trkpt>
      <trkpt lat="48.63226" lon="-3.41057">
        <ele>37</ele>
        <time>2013-01-04T14:33:53Z</time>
      </trkpt>
      <trkpt lat="48.6322" lon="-3.41053">
        <ele>38</ele>
        <time>2013-01-04T14:33:58Z</time>
      </trkpt>
      <trkpt lat="48.63215" lon="-3.41049">
        <ele>41</ele>
        <time>2013-01-04T14:34:03Z</time>
      </trkpt>
      <trkpt lat="48.63208" lon="-3.41046">
        <ele>44</ele>
        <time>2013-01-04T14:34:08Z</time>
      </trkpt>
      <trkpt lat="48.63202" lon="-3.41043">
        <ele>45</ele>
        <time>2013-01-04T14:34:13Z</time>
      </trkpt>
      <trkpt lat="48.63197" lon="-3.41042">
        <ele>45</ele>
        <time>2013-01-04T14:34:18Z</time>
      </trkpt>
      <trkpt lat="48.63191" lon="-3.41038">
        <ele>46</ele>
        <time>2013-01-04T14:34:23Z</time>
      </trkpt>
      <trkpt lat="48.63185" lon="-3.41039">
        <ele>47</ele>
        <time>2013-01-04T14:34:29Z</time>
      </trkpt>
      <trkpt lat="48.63182" lon="-3.41037">
        <ele>47</ele>
        <time>2013-01-04T14:34:34Z</time>
      </trkpt>
      <trkpt lat="48.63179" lon="-3.41036">
        <ele>47</ele>
        <time>2013-01-04T14:34:41Z</time>
      </trkpt>
      <trkpt lat="48.63175" lon="-3.41032">
        <ele>46</ele>
        <time>2013-01-04T14:34:47Z</time>
      </trkpt>
      <trkpt lat="48.6317" lon="-3.41035">
        <ele>46</ele>
        <time>2013-01-04T14:34:52Z</time>
      </trkpt>
      <trkpt lat="48.63166" lon="-3.41033">
        <ele>46</ele>
        <time>2013-01-04T14:34:57Z</time>
      </trkpt>
      <trkpt lat="48.63161" lon="-3.41032">
        <ele>46</ele>
        <time>2013-01-04T14:35:02Z</time>
      </trkpt>
      <trkpt lat="48.63155" lon="-3.41029">
        <ele>46</ele>
        <time>2013-01-04T14:35:08Z</time>
      </trkpt>
      <trkpt lat="48.6315" lon="-3.41027">
        <ele>46</ele>
        <time>2013-01-04T14:35:13Z</time>
      </trkpt>
      <trkpt lat="48.63143" lon="-3.41025">
        <ele>45</ele>
        <time>2013-01-04T14:35:19Z</time>
      </trkpt>
      <trkpt lat="48.63138" lon="-3.41023">
        <ele>43</ele>
        <time>2013-01-04T14:35:25Z</time>
      </trkpt>
      <trkpt lat="48.63132" lon="-3.41023">
        <ele>42</ele>
        <time>2013-01-04T14:35:30Z</time>
      </trkpt>
      <trkpt lat="48.63127" lon="-3.41023">
        <ele>40</ele>
        <time>2013-01-04T14:35:35Z</time>
      </trkpt>
      <trkpt lat="48.63122" lon="-3.41022">
        <ele>40</ele>
        <time>2013-01-04T14:35:40Z</time>
      </trkpt>
      <trkpt lat="48.63114" lon="-3.41022">
        <ele>40</ele>
        <time>2013-01-04T14:35:45Z</time>
      </trkpt>
      <trkpt lat="48.63107" lon="-3.4102">
        <ele>40</ele>
        <time>2013-01-04T14:35:51Z</time>
      </trkpt>
      <trkpt lat="48.63105" lon="-3.41016">
        <ele>40</ele>
        <time>2013-01-04T14:35:56Z</time>
      </trkpt>
      <trkpt lat="48.63101" lon="-3.41012">
        <ele>38</ele>
        <time>2013-01-04T14:36:01Z</time>
      </trkpt>
      <trkpt lat="48.63096" lon="-3.41009">
        <ele>38</ele>
        <time>2013-01-04T14:36:06Z</time>
      </trkpt>
      <trkpt lat="48.63092" lon="-3.41004">
        <ele>38</ele>
        <time>2013-01-04T14:36:12Z</time>
      </trkpt>
      <trkpt lat="48.63089" lon="-3.40999">
        <ele>38</ele>
        <time>2013-01-04T14:36:18Z</time>
      </trkpt>
      <trkpt lat="48.63086" lon="-3.40993">
        <ele>38</ele>
        <time>2013-01-04T14:36:24Z</time>
      </trkpt>
      <trkpt lat="48.63083" lon="-3.40988">
        <ele>38</ele>
        <time>2013-01-04T14:36:31Z</time>
      </trkpt>
      <trkpt lat="48.6308" lon="-3.40986">
        <ele>39</ele>
        <time>2013-01-04T14:36:38Z</time>
      </trkpt>
      <trkpt lat="48.63079" lon="-3.40984">
        <ele>40</ele>
        <time>2013-01-04T14:36:49Z</time>
      </trkpt>
      <trkpt lat="48.63078" lon="-3.40985">
        <ele>42</ele>
        <time>2013-01-04T14:36:58Z</time>
      </trkpt>
      <trkpt lat="48.63078" lon="-3.40987">
        <ele>46</ele>
        <time>2013-01-04T14:37:03Z</time>
      </trkpt>
      <trkpt lat="48.63077" lon="-3.40989">
        <ele>49</ele>
        <time>2013-01-04T14:37:21Z</time>
      </trkpt>
      <trkpt lat="48.63076" lon="-3.40989">
        <ele>49</ele>
        <time>2013-01-04T14:37:33Z</time>
      </trkpt>
      <trkpt lat="48.63075" lon="-3.4099">
        <ele>52</ele>
        <time>2013-01-04T14:37:38Z</time>
      </trkpt>
      <trkpt lat="48.63074" lon="-3.40988">
        <ele>53</ele>
        <time>2013-01-04T14:37:44Z</time>
      </trkpt>
      <trkpt lat="48.63074" lon="-3.40984">
        <ele>53</ele>
        <time>2013-01-04T14:37:51Z</time>
      </trkpt>
      <trkpt lat="48.63075" lon="-3.40984">
        <ele>53</ele>
        <time>2013-01-04T14:37:57Z</time>
      </trkpt>
      <trkpt lat="48.63076" lon="-3.40983">
        <ele>53</ele>
        <time>2013-01-04T14:38:04Z</time>
      </trkpt>
      <trkpt lat="48.63075" lon="-3.40981">
        <ele>53</ele>
        <time>2013-01-04T14:38:15Z</time>
      </trkpt>
      <trkpt lat="48.63075" lon="-3.40979">
        <ele>53</ele>
        <time>2013-01-04T14:38:23Z</time>
      </trkpt>
      <trkpt lat="48.63074" lon="-3.40977">
        <ele>53</ele>
        <time>2013-01-04T14:38:30Z</time>
      </trkpt>
      <trkpt lat="48.63076" lon="-3.40977">
        <ele>53</ele>
        <time>2013-01-04T14:38:36Z</time>
      </trkpt>
      <trkpt lat="48.63077" lon="-3.40978">
        <ele>53</ele>
        <time>2013-01-04T14:38:44Z</time>
      </trkpt>
      <trkpt lat="48.63076" lon="-3.40979">
        <ele>53</ele>
        <time>2013-01-04T14:38:51Z</time>
      </trkpt>
      <trkpt lat="48.63074" lon="-3.4098">
        <ele>53</ele>
        <time>2013-01-04T14:39:02Z</time>
      </trkpt>
      <trkpt lat="48.63076" lon="-3.40983">
        <ele>53</ele>
        <time>2013-01-04T14:39:08Z</time>
      </trkpt>
      <trkpt lat="48.63077" lon="-3.40985">
        <ele>52</ele>
        <time>2013-01-04T14:39:15Z</time>
      </trkpt>
      <trkpt lat="48.63076" lon="-3.40985">
        <ele>49</ele>
        <time>2013-01-04T14:39:20Z</time>
      </trkpt>
      <trkpt lat="48.63074" lon="-3.40984">
        <ele>46</ele>
        <time>2013-01-04T14:39:26Z</time>
      </trkpt>
      <trkpt lat="48.63073" lon="-3.40985">
        <ele>46</ele>
        <time>2013-01-04T14:39:37Z</time>
      </trkpt>
      <trkpt lat="48.63074" lon="-3.40986">
        <ele>46</ele>
        <time>2013-01-04T14:39:56Z</time>
      </trkpt>
      <trkpt lat="48.63074" lon="-3.40984">
        <ele>46</ele>
        <time>2013-01-04T14:40:05Z</time>
      </trkpt>
      <trkpt lat="48.63073" lon="-3.40982">
        <ele>46</ele>
        <time>2013-01-04T14:40:10Z</time>
      </trkpt>
      <trkpt lat="48.63071" lon="-3.40979">
        <ele>46</ele>
        <time>2013-01-04T14:40:16Z</time>
      </trkpt>
      <trkpt lat="48.63068" lon="-3.40979">
        <ele>46</ele>
        <time>2013-01-04T14:40:22Z</time>
      </trkpt>
      <trkpt lat="48.63065" lon="-3.40979">
        <ele>46</ele>
        <time>2013-01-04T14:40:27Z</time>
      </trkpt>
      <trkpt lat="48.6306" lon="-3.40978">
        <ele>46</ele>
        <time>2013-01-04T14:40:32Z</time>
      </trkpt>
      <trkpt lat="48.63057" lon="-3.40978">
        <ele>46</ele>
        <time>2013-01-04T14:40:38Z</time>
      </trkpt>
      <trkpt lat="48.63052" lon="-3.40977">
        <ele>46</ele>
        <time>2013-01-04T14:40:44Z</time>
      </trkpt>
      <trkpt lat="48.63049" lon="-3.40976">
        <ele>46</ele>
        <time>2013-01-04T14:40:50Z</time>
      </trkpt>
      <trkpt lat="48.63046" lon="-3.40975">
        <ele>46</ele>
        <time>2013-01-04T14:40:56Z</time>
      </trkpt>
      <trkpt lat="48.63043" lon="-3.40974">
        <ele>46</ele>
        <time>2013-01-04T14:41:01Z</time>
      </trkpt>
      <trkpt lat="48.63039" lon="-3.40974">
        <ele>48</ele>
        <time>2013-01-04T14:41:06Z</time>
      </trkpt>
      <trkpt lat="48.63035" lon="-3.40973">
        <ele>51</ele>
        <time>2013-01-04T14:41:11Z</time>
      </trkpt>
      <trkpt lat="48.6303" lon="-3.40972">
        <ele>52</ele>
        <time>2013-01-04T14:41:17Z</time>
      </trkpt>
      <trkpt lat="48.63026" lon="-3.4097">
        <ele>53</ele>
        <time>2013-01-04T14:41:23Z</time>
      </trkpt>
      <trkpt lat="48.63022" lon="-3.40971">
        <ele>53</ele>
        <time>2013-01-04T14:41:31Z</time>
      </trkpt>
      <trkpt lat="48.63017" lon="-3.40971">
        <ele>53</ele>
        <time>2013-01-04T14:41:37Z</time>
      </trkpt>
      <trkpt lat="48.63013" lon="-3.40971">
        <ele>53</ele>
        <time>2013-01-04T14:41:44Z</time>
      </trkpt>
      <trkpt lat="48.63007" lon="-3.40967">
        <ele>53</ele>
        <time>2013-01-04T14:41:49Z</time>
      </trkpt>
      <trkpt lat="48.63002" lon="-3.40963">
        <ele>53</ele>
        <time>2013-01-04T14:41:54Z</time>
      </trkpt>
      <trkpt lat="48.62999" lon="-3.40959">
        <ele>53</ele>
        <time>2013-01-04T14:42:00Z</time>
      </trkpt>
      <trkpt lat="48.62995" lon="-3.40958">
        <ele>53</ele>
        <time>2013-01-04T14:42:06Z</time>
      </trkpt>
      <trkpt lat="48.62991" lon="-3.40956">
        <ele>53</ele>
        <time>2013-01-04T14:42:11Z</time>
      </trkpt>
      <trkpt lat="48.62986" lon="-3.40953">
        <ele>53</ele>
        <time>2013-01-04T14:42:16Z</time>
      </trkpt>
      <trkpt lat="48.62982" lon="-3.40951">
        <ele>53</ele>
        <time>2013-01-04T14:42:21Z</time>
      </trkpt>
      <trkpt lat="48.6298" lon="-3.40948">
        <ele>53</ele>
        <time>2013-01-04T14:42:26Z</time>
      </trkpt>
      <trkpt lat="48.62975" lon="-3.40945">
        <ele>53</ele>
        <time>2013-01-04T14:42:31Z</time>
      </trkpt>
      <trkpt lat="48.62973" lon="-3.40942">
        <ele>53</ele>
        <time>2013-01-04T14:42:36Z</time>
      </trkpt>
      <trkpt lat="48.62972" lon="-3.4094">
        <ele>55</ele>
        <time>2013-01-04T14:42:41Z</time>
      </trkpt>
      <trkpt lat="48.62971" lon="-3.40936">
        <ele>57</ele>
        <time>2013-01-04T14:42:46Z</time>
      </trkpt>
      <trkpt lat="48.6297" lon="-3.40932">
        <ele>58</ele>
        <time>2013-01-04T14:42:51Z</time>
      </trkpt>
      <trkpt lat="48.62968" lon="-3.40927">
        <ele>58</ele>
        <time>2013-01-04T14:42:56Z</time>
      </trkpt>
      <trkpt lat="48.62963" lon="-3.40922">
        <ele>59</ele>
        <time>2013-01-04T14:43:01Z</time>
      </trkpt>
      <trkpt lat="48.6296" lon="-3.40916">
        <ele>59</ele>
        <time>2013-01-04T14:43:07Z</time>
      </trkpt>
      <trkpt lat="48.62957" lon="-3.40913">
        <ele>59</ele>
        <time>2013-01-04T14:43:12Z</time>
      </trkpt>
      <trkpt lat="48.62952" lon="-3.40907">
        <ele>60</ele>
        <time>2013-01-04T14:43:18Z</time>
      </trkpt>
      <trkpt lat="48.62947" lon="-3.40902">
        <ele>61</ele>
        <time>2013-01-04T14:43:24Z</time>
      </trkpt>
      <trkpt lat="48.62942" lon="-3.40901">
        <ele>61</ele>
        <time>2013-01-04T14:43:30Z</time>
      </trkpt>
      <trkpt lat="48.62937" lon="-3.409">
        <ele>61</ele>
        <time>2013-01-04T14:43:36Z</time>
      </trkpt>
      <trkpt lat="48.62932" lon="-3.40898">
        <ele>61</ele>
        <time>2013-01-04T14:43:42Z</time>
      </trkpt>
      <trkpt lat="48.62927" lon="-3.40897">
        <ele>61</ele>
        <time>2013-01-04T14:43:48Z</time>
      </trkpt>
      <trkpt lat="48.62922" lon="-3.40895">
        <ele>61</ele>
        <time>2013-01-04T14:43:54Z</time>
      </trkpt>
      <trkpt lat="48.62916" lon="-3.40892">
        <ele>61</ele>
        <time>2013-01-04T14:44:00Z</time>
      </trkpt>
      <trkpt lat="48.6291" lon="-3.40888">
        <ele>61</ele>
        <time>2013-01-04T14:44:05Z</time>
      </trkpt>
      <trkpt lat="48.62906" lon="-3.40885">
        <ele>61</ele>
        <time>2013-01-04T14:44:10Z</time>
      </trkpt>
      <trkpt lat="48.62901" lon="-3.40881">
        <ele>61</ele>
        <time>2013-01-04T14:44:16Z</time>
      </trkpt>
      <trkpt lat="48.62896" lon="-3.40873">
        <ele>61</ele>
        <time>2013-01-04T14:44:21Z</time>
      </trkpt>
      <trkpt lat="48.62895" lon="-3.40867">
        <ele>61</ele>
        <time>2013-01-04T14:44:27Z</time>
      </trkpt>
      <trkpt lat="48.62894" lon="-3.40859">
        <ele>61</ele>
        <time>2013-01-04T14:44:32Z</time>
      </trkpt>
      <trkpt lat="48.62894" lon="-3.40853">
        <ele>62</ele>
        <time>2013-01-04T14:44:38Z</time>
      </trkpt>
      <trkpt lat="48.62896" lon="-3.40845">
        <ele>65</ele>
        <time>2013-01-04T14:44:44Z</time>
      </trkpt>
      <trkpt lat="48.62894" lon="-3.40838">
        <ele>67</ele>
        <time>2013-01-04T14:44:49Z</time>
      </trkpt>
      <trkpt lat="48.62892" lon="-3.40832">
        <ele>67</ele>
        <time>2013-01-04T14:44:55Z</time>
      </trkpt>
      <trkpt lat="48.6289" lon="-3.40824">
        <ele>67</ele>
        <time>2013-01-04T14:45:01Z</time>
      </trkpt>
      <trkpt lat="48.62884" lon="-3.40819">
        <ele>67</ele>
        <time>2013-01-04T14:45:07Z</time>
      </trkpt>
      <trkpt lat="48.62879" lon="-3.40822">
        <ele>67</ele>
        <time>2013-01-04T14:45:12Z</time>
      </trkpt>
      <trkpt lat="48.62873" lon="-3.40825">
        <ele>67</ele>
        <time>2013-01-04T14:45:17Z</time>
      </trkpt>
      <trkpt lat="48.62868" lon="-3.40827">
        <ele>67</ele>
        <time>2013-01-04T14:45:22Z</time>
      </trkpt>
      <trkpt lat="48.62862" lon="-3.40827">
        <ele>67</ele>
        <time>2013-01-04T14:45:27Z</time>
      </trkpt>
      <trkpt lat="48.62856" lon="-3.40828">
        <ele>67</ele>
        <time>2013-01-04T14:45:32Z</time>
      </trkpt>
      <trkpt lat="48.6285" lon="-3.40828">
        <ele>67</ele>
        <time>2013-01-04T14:45:37Z</time>
      </trkpt>
      <trkpt lat="48.62844" lon="-3.40829">
        <ele>67</ele>
        <time>2013-01-04T14:45:42Z</time>
      </trkpt>
      <trkpt lat="48.62839" lon="-3.4083">
        <ele>67</ele>
        <time>2013-01-04T14:45:47Z</time>
      </trkpt>
      <trkpt lat="48.62833" lon="-3.40832">
        <ele>67</ele>
        <time>2013-01-04T14:45:52Z</time>
      </trkpt>
      <trkpt lat="48.62825" lon="-3.40832">
        <ele>67</ele>
        <time>2013-01-04T14:45:58Z</time>
      </trkpt>
      <trkpt lat="48.6282" lon="-3.40832">
        <ele>67</ele>
        <time>2013-01-04T14:46:03Z</time>
      </trkpt>
      <trkpt lat="48.62815" lon="-3.40832">
        <ele>67</ele>
        <time>2013-01-04T14:46:08Z</time>
      </trkpt>
      <trkpt lat="48.6281" lon="-3.40833">
        <ele>66</ele>
        <time>2013-01-04T14:46:13Z</time>
      </trkpt>
      <trkpt lat="48.62806" lon="-3.40834">
        <ele>66</ele>
        <time>2013-01-04T14:46:20Z</time>
      </trkpt>
      <trkpt lat="48.62804" lon="-3.40835">
        <ele>66</ele>
        <time>2013-01-04T14:46:26Z</time>
      </trkpt>
      <trkpt lat="48.62801" lon="-3.40833">
        <ele>66</ele>
        <time>2013-01-04T14:46:31Z</time>
      </trkpt>
      <trkpt lat="48.62797" lon="-3.40832">
        <ele>66</ele>
        <time>2013-01-04T14:46:36Z</time>
      </trkpt>
      <trkpt lat="48.62794" lon="-3.40832">
        <ele>66</ele>
        <time>2013-01-04T14:46:43Z</time>
      </trkpt>
      <trkpt lat="48.62792" lon="-3.40833">
        <ele>66</ele>
        <time>2013-01-04T14:46:49Z</time>
      </trkpt>
      <trkpt lat="48.62791" lon="-3.40832">
        <ele>66</ele>
        <time>2013-01-04T14:47:18Z</time>
      </trkpt>
      <trkpt lat="48.62791" lon="-3.40834">
        <ele>66</ele>
        <time>2013-01-04T14:47:26Z</time>
      </trkpt>
      <trkpt lat="48.62793" lon="-3.40835">
        <ele>67</ele>
        <time>2013-01-04T14:47:32Z</time>
      </trkpt>
      <trkpt lat="48.62793" lon="-3.40835">
        <ele>69</ele>
        <time>2013-01-04T14:47:40Z</time>
      </trkpt>
      <trkpt lat="48.62793" lon="-3.40837">
        <ele>70</ele>
        <time>2013-01-04T14:47:47Z</time>
      </trkpt>
      <trkpt lat="48.62792" lon="-3.40838">
        <ele>70</ele>
        <time>2013-01-04T14:47:53Z</time>
      </trkpt>
      <trkpt lat="48.62792" lon="-3.4084">
        <ele>70</ele>
        <time>2013-01-04T14:48:02Z</time>
      </trkpt>
      <trkpt lat="48.62791" lon="-3.40842">
        <ele>70</ele>
        <time>2013-01-04T14:48:10Z</time>
      </trkpt>
      <trkpt lat="48.62791" lon="-3.40843">
        <ele>70</ele>
        <time>2013-01-04T14:48:15Z</time>
      </trkpt>
      <trkpt lat="48.62791" lon="-3.40842">
        <ele>73</ele>
        <time>2013-01-04T14:48:50Z</time>
      </trkpt>
      <trkpt lat="48.6279" lon="-3.40843">
        <ele>73</ele>
        <time>2013-01-04T14:49:06Z</time>
      </trkpt>
      <trkpt lat="48.62789" lon="-3.40844">
        <ele>74</ele>
        <time>2013-01-04T14:49:18Z</time>
      </trkpt>
      <trkpt lat="48.6279" lon="-3.40845">
        <ele>74</ele>
        <time>2013-01-04T14:49:37Z</time>
      </trkpt>
      <trkpt lat="48.62791" lon="-3.40843">
        <ele>74</ele>
        <time>2013-01-04T14:49:43Z</time>
      </trkpt>
      <trkpt lat="48.6279" lon="-3.40841">
        <ele>74</ele>
        <time>2013-01-04T14:49:59Z</time>
      </trkpt>
      <trkpt lat="48.6279" lon="-3.4084">
        <ele>74</ele>
        <time>2013-01-04T14:50:09Z</time>
      </trkpt>
      <trkpt lat="48.62789" lon="-3.40839">
        <ele>74</ele>
        <time>2013-01-04T14:50:14Z</time>
      </trkpt>
      <trkpt lat="48.62786" lon="-3.40837">
        <ele>73</ele>
        <time>2013-01-04T14:50:20Z</time>
      </trkpt>
      <trkpt lat="48.62783" lon="-3.40836">
        <ele>73</ele>
        <time>2013-01-04T14:50:25Z</time>
      </trkpt>
      <trkpt lat="48.62779" lon="-3.40835">
        <ele>73</ele>
        <time>2013-01-04T14:50:31Z</time>
      </trkpt>
      <trkpt lat="48.62775" lon="-3.40833">
        <ele>72</ele>
        <time>2013-01-04T14:50:36Z</time>
      </trkpt>
      <trkpt lat="48.62769" lon="-3.40831">
        <ele>71</ele>
        <time>2013-01-04T14:50:42Z</time>
      </trkpt>
      <trkpt lat="48.62763" lon="-3.40829">
        <ele>70</ele>
        <time>2013-01-04T14:50:47Z</time>
      </trkpt>
      <trkpt lat="48.62758" lon="-3.40827">
        <ele>69</ele>
        <time>2013-01-04T14:50:52Z</time>
      </trkpt>
      <trkpt lat="48.62752" lon="-3.40825">
        <ele>69</ele>
        <time>2013-01-04T14:50:58Z</time>
      </trkpt>
      <trkpt lat="48.62745" lon="-3.40823">
        <ele>68</ele>
        <time>2013-01-04T14:51:04Z</time>
      </trkpt>
      <trkpt lat="48.6274" lon="-3.40821">
        <ele>67</ele>
        <time>2013-01-04T14:51:09Z</time>
      </trkpt>
      <trkpt lat="48.62734" lon="-3.40818">
        <ele>67</ele>
        <time>2013-01-04T14:51:14Z</time>
      </trkpt>
      <trkpt lat="48.62727" lon="-3.40814">
        <ele>66</ele>
        <time>2013-01-04T14:51:20Z</time>
      </trkpt>
      <trkpt lat="48.62722" lon="-3.40812">
        <ele>66</ele>
        <time>2013-01-04T14:51:25Z</time>
      </trkpt>
      <trkpt lat="48.62716" lon="-3.40809">
        <ele>65</ele>
        <time>2013-01-04T14:51:30Z</time>
      </trkpt>
      <trkpt lat="48.62709" lon="-3.4081">
        <ele>65</ele>
        <time>2013-01-04T14:51:35Z</time>
      </trkpt>
      <trkpt lat="48.62703" lon="-3.40812">
        <ele>64</ele>
        <time>2013-01-04T14:51:40Z</time>
      </trkpt>
      <trkpt lat="48.62698" lon="-3.40816">
        <ele>64</ele>
        <time>2013-01-04T14:51:46Z</time>
      </trkpt>
      <trkpt lat="48.62693" lon="-3.40822">
        <ele>63</ele>
        <time>2013-01-04T14:51:52Z</time>
      </trkpt>
      <trkpt lat="48.62688" lon="-3.40829">
        <ele>62</ele>
        <time>2013-01-04T14:51:58Z</time>
      </trkpt>
      <trkpt lat="48.62683" lon="-3.40836">
        <ele>61</ele>
        <time>2013-01-04T14:52:04Z</time>
      </trkpt>
      <trkpt lat="48.62677" lon="-3.40844">
        <ele>60</ele>
        <time>2013-01-04T14:52:10Z</time>
      </trkpt>
      <trkpt lat="48.62673" lon="-3.40852">
        <ele>60</ele>
        <time>2013-01-04T14:52:15Z</time>
      </trkpt>
      <trkpt lat="48.6267" lon="-3.4086">
        <ele>60</ele>
        <time>2013-01-04T14:52:20Z</time>
      </trkpt>
      <trkpt lat="48.62668" lon="-3.4087">
        <ele>60</ele>
        <time>2013-01-04T14:52:25Z</time>
      </trkpt>
      <trkpt lat="48.62667" lon="-3.40881">
        <ele>60</ele>
        <time>2013-01-04T14:52:30Z</time>
      </trkpt>
      <trkpt lat="48.62668" lon="-3.40889">
        <ele>60</ele>
        <time>2013-01-04T14:52:36Z</time>
      </trkpt>
      <trkpt lat="48.62668" lon="-3.40897">
        <ele>60</ele>
        <time>2013-01-04T14:52:41Z</time>
      </trkpt>
      <trkpt lat="48.62668" lon="-3.40904">
        <ele>60</ele>
        <time>2013-01-04T14:52:50Z</time>
      </trkpt>
      <trkpt lat="48.62669" lon="-3.40908">
        <ele>60</ele>
        <time>2013-01-04T14:52:58Z</time>
      </trkpt>
      <trkpt lat="48.62669" lon="-3.40911">
        <ele>60</ele>
        <time>2013-01-04T14:53:04Z</time>
      </trkpt>
      <trkpt lat="48.62668" lon="-3.40913">
        <ele>60</ele>
        <time>2013-01-04T14:53:16Z</time>
      </trkpt>
      <trkpt lat="48.62668" lon="-3.40916">
        <ele>60</ele>
        <time>2013-01-04T14:53:24Z</time>
      </trkpt>
      <trkpt lat="48.62667" lon="-3.40918">
        <ele>60</ele>
        <time>2013-01-04T14:53:29Z</time>
      </trkpt>
      <trkpt lat="48.62666" lon="-3.40922">
        <ele>60</ele>
        <time>2013-01-04T14:53:35Z</time>
      </trkpt>
      <trkpt lat="48.62665" lon="-3.40924">
        <ele>60</ele>
        <time>2013-01-04T14:53:40Z</time>
      </trkpt>
      <trkpt lat="48.62664" lon="-3.40927">
        <ele>60</ele>
        <time>2013-01-04T14:53:50Z</time>
      </trkpt>
      <trkpt lat="48.62662" lon="-3.40932">
        <ele>60</ele>
        <time>2013-01-04T14:53:55Z</time>
      </trkpt>
      <trkpt lat="48.62658" lon="-3.40937">
        <ele>60</ele>
        <time>2013-01-04T14:54:02Z</time>
      </trkpt>
      <trkpt lat="48.62654" lon="-3.40943">
        <ele>60</ele>
        <time>2013-01-04T14:54:07Z</time>
      </trkpt>
      <trkpt lat="48.6265" lon="-3.40945">
        <ele>57</ele>
        <time>2013-01-04T14:54:13Z</time>
      </trkpt>
      <trkpt lat="48.62646" lon="-3.40947">
        <ele>56</ele>
        <time>2013-01-04T14:54:19Z</time>
      </trkpt>
      <trkpt lat="48.62643" lon="-3.40947">
        <ele>54</ele>
        <time>2013-01-04T14:54:24Z</time>
      </trkpt>
      <trkpt lat="48.6264" lon="-3.40947">
        <ele>53</ele>
        <time>2013-01-04T14:54:29Z</time>
      </trkpt>
      <trkpt lat="48.62637" lon="-3.40946">
        <ele>53</ele>
        <time>2013-01-04T14:54:34Z</time>
      </trkpt>
      <trkpt lat="48.62633" lon="-3.40945">
        <ele>52</ele>
        <time>2013-01-04T14:54:41Z</time>
      </trkpt>
      <trkpt lat="48.62629" lon="-3.40947">
        <ele>51</ele>
        <time>2013-01-04T14:54:47Z</time>
      </trkpt>
      <trkpt lat="48.62626" lon="-3.40947">
        <ele>51</ele>
        <time>2013-01-04T14:54:53Z</time>
      </trkpt>
      <trkpt lat="48.62622" lon="-3.40946">
        <ele>51</ele>
        <time>2013-01-04T14:54:58Z</time>
      </trkpt>
      <trkpt lat="48.62617" lon="-3.40945">
        <ele>51</ele>
        <time>2013-01-04T14:55:03Z</time>
      </trkpt>
      <trkpt lat="48.62612" lon="-3.40944">
        <ele>48</ele>
        <time>2013-01-04T14:55:08Z</time>
      </trkpt>
      <trkpt lat="48.62607" lon="-3.40945">
        <ele>46</ele>
        <time>2013-01-04T14:55:14Z</time>
      </trkpt>
      <trkpt lat="48.62602" lon="-3.40947">
        <ele>45</ele>
        <time>2013-01-04T14:55:20Z</time>
      </trkpt>
      <trkpt lat="48.62597" lon="-3.40947">
        <ele>45</ele>
        <time>2013-01-04T14:55:26Z</time>
      </trkpt>
      <trkpt lat="48.62593" lon="-3.40948">
        <ele>43</ele>
        <time>2013-01-04T14:55:32Z</time>
      </trkpt>
      <trkpt lat="48.6259" lon="-3.40949">
        <ele>42</ele>
        <time>2013-01-04T14:55:38Z</time>
      </trkpt>
      <trkpt lat="48.62587" lon="-3.40951">
        <ele>42</ele>
        <time>2013-01-04T14:55:43Z</time>
      </trkpt>
      <trkpt lat="48.62581" lon="-3.40954">
        <ele>41</ele>
        <time>2013-01-04T14:55:48Z</time>
      </trkpt>
      <trkpt lat="48.62574" lon="-3.40955">
        <ele>37</ele>
        <time>2013-01-04T14:55:54Z</time>
      </trkpt>
      <trkpt lat="48.62569" lon="-3.40958">
        <ele>34</ele>
        <time>2013-01-04T14:56:00Z</time>
      </trkpt>
      <trkpt lat="48.62563" lon="-3.40962">
        <ele>34</ele>
        <time>2013-01-04T14:56:05Z</time>
      </trkpt>
      <trkpt lat="48.62557" lon="-3.40963">
        <ele>34</ele>
        <time>2013-01-04T14:56:10Z</time>
      </trkpt>
      <trkpt lat="48.6255" lon="-3.40963">
        <ele>34</ele>
        <time>2013-01-04T14:56:15Z</time>
      </trkpt>
      <trkpt lat="48.62544" lon="-3.40962">
        <ele>34</ele>
        <time>2013-01-04T14:56:21Z</time>
      </trkpt>
      <trkpt lat="48.62538" lon="-3.40958">
        <ele>34</ele>
        <time>2013-01-04T14:56:27Z</time>
      </trkpt>
      <trkpt lat="48.62534" lon="-3.40955">
        <ele>34</ele>
        <time>2013-01-04T14:56:33Z</time>
      </trkpt>
      <trkpt lat="48.6253" lon="-3.4095">
        <ele>34</ele>
        <time>2013-01-04T14:56:41Z</time>
      </trkpt>
      <trkpt lat="48.62525" lon="-3.40946">
        <ele>34</ele>
        <time>2013-01-04T14:56:47Z</time>
      </trkpt>
      <trkpt lat="48.62522" lon="-3.40945">
        <ele>34</ele>
        <time>2013-01-04T14:56:52Z</time>
      </trkpt>
      <trkpt lat="48.62518" lon="-3.40945">
        <ele>36</ele>
        <time>2013-01-04T14:56:58Z</time>
      </trkpt>
      <trkpt lat="48.62512" lon="-3.4094">
        <ele>38</ele>
        <time>2013-01-04T14:57:04Z</time>
      </trkpt>
      <trkpt lat="48.62506" lon="-3.40938">
        <ele>38</ele>
        <time>2013-01-04T14:57:09Z</time>
      </trkpt>
      <trkpt lat="48.625" lon="-3.40939">
        <ele>38</ele>
        <time>2013-01-04T14:57:14Z</time>
      </trkpt>
      <trkpt lat="48.62494" lon="-3.4094">
        <ele>39</ele>
        <time>2013-01-04T14:57:20Z</time>
      </trkpt>
      <trkpt lat="48.62489" lon="-3.4094">
        <ele>40</ele>
        <time>2013-01-04T14:57:25Z</time>
      </trkpt>
      <trkpt lat="48.62484" lon="-3.40939">
        <ele>40</ele>
        <time>2013-01-04T14:57:30Z</time>
      </trkpt>
      <trkpt lat="48.62479" lon="-3.40937">
        <ele>40</ele>
        <time>2013-01-04T14:57:35Z</time>
      </trkpt>
      <trkpt lat="48.62473" lon="-3.40937">
        <ele>40</ele>
        <time>2013-01-04T14:57:41Z</time>
      </trkpt>
      <trkpt lat="48.62469" lon="-3.40938">
        <ele>38</ele>
        <time>2013-01-04T14:57:46Z</time>
      </trkpt>
      <trkpt lat="48.62461" lon="-3.40938">
        <ele>37</ele>
        <time>2013-01-04T14:57:51Z</time>
      </trkpt>
      <trkpt lat="48.62455" lon="-3.40939">
        <ele>37</ele>
        <time>2013-01-04T14:57:57Z</time>
      </trkpt>
      <trkpt lat="48.6245" lon="-3.40941">
        <ele>37</ele>
        <time>2013-01-04T14:58:02Z</time>
      </trkpt>
      <trkpt lat="48.62445" lon="-3.40941">
        <ele>37</ele>
        <time>2013-01-04T14:58:08Z</time>
      </trkpt>
      <trkpt lat="48.62438" lon="-3.40941">
        <ele>40</ele>
        <time>2013-01-04T14:58:13Z</time>
      </trkpt>
      <trkpt lat="48.62433" lon="-3.40939">
        <ele>43</ele>
        <time>2013-01-04T14:58:18Z</time>
      </trkpt>
      <trkpt lat="48.62429" lon="-3.40937">
        <ele>44</ele>
        <time>2013-01-04T14:58:23Z</time>
      </trkpt>
      <trkpt lat="48.62424" lon="-3.40933">
        <ele>45</ele>
        <time>2013-01-04T14:58:28Z</time>
      </trkpt>
      <trkpt lat="48.6242" lon="-3.40929">
        <ele>45</ele>
        <time>2013-01-04T14:58:34Z</time>
      </trkpt>
      <trkpt lat="48.62416" lon="-3.40922">
        <ele>45</ele>
        <time>2013-01-04T14:58:39Z</time>
      </trkpt>
      <trkpt lat="48.62411" lon="-3.40918">
        <ele>48</ele>
        <time>2013-01-04T14:58:45Z</time>
      </trkpt>
      <trkpt lat="48.62405" lon="-3.40915">
        <ele>50</ele>
        <time>2013-01-04T14:58:52Z</time>
      </trkpt>
      <trkpt lat="48.62399" lon="-3.40913">
        <ele>50</ele>
        <time>2013-01-04T14:58:57Z</time>
      </trkpt>
      <trkpt lat="48.62393" lon="-3.40912">
        <ele>50</ele>
        <time>2013-01-04T14:59:03Z</time>
      </trkpt>
      <trkpt lat="48.62388" lon="-3.4091">
        <ele>50</ele>
        <time>2013-01-04T14:59:08Z</time>
      </trkpt>
      <trkpt lat="48.62383" lon="-3.4091">
        <ele>50</ele>
        <time>2013-01-04T14:59:13Z</time>
      </trkpt>
      <trkpt lat="48.62378" lon="-3.4091">
        <ele>50</ele>
        <time>2013-01-04T14:59:18Z</time>
      </trkpt>
      <trkpt lat="48.62372" lon="-3.40911">
        <ele>50</ele>
        <time>2013-01-04T14:59:23Z</time>
      </trkpt>
      <trkpt lat="48.62366" lon="-3.40908">
        <ele>50</ele>
        <time>2013-01-04T14:59:28Z</time>
      </trkpt>
      <trkpt lat="48.62361" lon="-3.40906">
        <ele>51</ele>
        <time>2013-01-04T14:59:33Z</time>
      </trkpt>
      <trkpt lat="48.62355" lon="-3.40905">
        <ele>51</ele>
        <time>2013-01-04T14:59:38Z</time>
      </trkpt>
      <trkpt lat="48.62349" lon="-3.40908">
        <ele>51</ele>
        <time>2013-01-04T14:59:43Z</time>
      </trkpt>
      <trkpt lat="48.62343" lon="-3.40907">
        <ele>51</ele>
        <time>2013-01-04T14:59:48Z</time>
      </trkpt>
      <trkpt lat="48.62337" lon="-3.40904">
        <ele>50</ele>
        <time>2013-01-04T14:59:53Z</time>
      </trkpt>
      <trkpt lat="48.62332" lon="-3.40902">
        <ele>45</ele>
        <time>2013-01-04T14:59:58Z</time>
      </trkpt>
      <trkpt lat="48.62325" lon="-3.40902">
        <ele>41</ele>
        <time>2013-01-04T15:00:03Z</time>
      </trkpt>
      <trkpt lat="48.62318" lon="-3.40904">
        <ele>40</ele>
        <time>2013-01-04T15:00:09Z</time>
      </trkpt>
      <trkpt lat="48.62311" lon="-3.40905">
        <ele>40</ele>
        <time>2013-01-04T15:00:14Z</time>
      </trkpt>
      <trkpt lat="48.62306" lon="-3.40905">
        <ele>40</ele>
        <time>2013-01-04T15:00:19Z</time>
      </trkpt>
      <trkpt lat="48.62301" lon="-3.40903">
        <ele>40</ele>
        <time>2013-01-04T15:00:24Z</time>
      </trkpt>
      <trkpt lat="48.62294" lon="-3.409">
        <ele>40</ele>
        <time>2013-01-04T15:00:29Z</time>
      </trkpt>
      <trkpt lat="48.6229" lon="-3.40896">
        <ele>37</ele>
        <time>2013-01-04T15:00:35Z</time>
      </trkpt>
      <trkpt lat="48.62285" lon="-3.40889">
        <ele>36</ele>
        <time>2013-01-04T15:00:41Z</time>
      </trkpt>
      <trkpt lat="48.62281" lon="-3.40884">
        <ele>38</ele>
        <time>2013-01-04T15:00:46Z</time>
      </trkpt>
      <trkpt lat="48.6228" lon="-3.40879">
        <ele>41</ele>
        <time>2013-01-04T15:00:51Z</time>
      </trkpt>
      <trkpt lat="48.62275" lon="-3.40873">
        <ele>44</ele>
        <time>2013-01-04T15:00:56Z</time>
      </trkpt>
      <trkpt lat="48.62268" lon="-3.4087">
        <ele>47</ele>
        <time>2013-01-04T15:01:02Z</time>
      </trkpt>
      <trkpt lat="48.62261" lon="-3.40865">
        <ele>48</ele>
        <time>2013-01-04T15:01:08Z</time>
      </trkpt>
      <trkpt lat="48.62253" lon="-3.40861">
        <ele>48</ele>
        <time>2013-01-04T15:01:14Z</time>
      </trkpt>
      <trkpt lat="48.62247" lon="-3.40857">
        <ele>48</ele>
        <time>2013-01-04T15:01:19Z</time>
      </trkpt>
      <trkpt lat="48.62241" lon="-3.40854">
        <ele>48</ele>
        <time>2013-01-04T15:01:24Z</time>
      </trkpt>
      <trkpt lat="48.62236" lon="-3.40854">
        <ele>48</ele>
        <time>2013-01-04T15:01:29Z</time>
      </trkpt>
      <trkpt lat="48.6223" lon="-3.40852">
        <ele>48</ele>
        <time>2013-01-04T15:01:34Z</time>
      </trkpt>
      <trkpt lat="48.62223" lon="-3.40851">
        <ele>47</ele>
        <time>2013-01-04T15:01:39Z</time>
      </trkpt>
      <trkpt lat="48.62217" lon="-3.40851">
        <ele>45</ele>
        <time>2013-01-04T15:01:44Z</time>
      </trkpt>
      <trkpt lat="48.62212" lon="-3.4085">
        <ele>42</ele>
        <time>2013-01-04T15:01:49Z</time>
      </trkpt>
      <trkpt lat="48.62207" lon="-3.4085">
        <ele>38</ele>
        <time>2013-01-04T15:01:54Z</time>
      </trkpt>
      <trkpt lat="48.62202" lon="-3.40851">
        <ele>37</ele>
        <time>2013-01-04T15:01:59Z</time>
      </trkpt>
      <trkpt lat="48.62196" lon="-3.40852">
        <ele>37</ele>
        <time>2013-01-04T15:02:04Z</time>
      </trkpt>
      <trkpt lat="48.62191" lon="-3.40854">
        <ele>37</ele>
        <time>2013-01-04T15:02:09Z</time>
      </trkpt>
      <trkpt lat="48.62185" lon="-3.40854">
        <ele>37</ele>
        <time>2013-01-04T15:02:14Z</time>
      </trkpt>
      <trkpt lat="48.62178" lon="-3.40855">
        <ele>37</ele>
        <time>2013-01-04T15:02:19Z</time>
      </trkpt>
      <trkpt lat="48.62174" lon="-3.40854">
        <ele>37</ele>
        <time>2013-01-04T15:02:24Z</time>
      </trkpt>
      <trkpt lat="48.62168" lon="-3.40851">
        <ele>37</ele>
        <time>2013-01-04T15:02:29Z</time>
      </trkpt>
      <trkpt lat="48.62161" lon="-3.40848">
        <ele>37</ele>
        <time>2013-01-04T15:02:35Z</time>
      </trkpt>
      <trkpt lat="48.62157" lon="-3.40845">
        <ele>37</ele>
        <time>2013-01-04T15:02:41Z</time>
      </trkpt>
      <trkpt lat="48.62154" lon="-3.40842">
        <ele>38</ele>
        <time>2013-01-04T15:02:46Z</time>
      </trkpt>
      <trkpt lat="48.62149" lon="-3.4084">
        <ele>39</ele>
        <time>2013-01-04T15:02:51Z</time>
      </trkpt>
      <trkpt lat="48.62143" lon="-3.40839">
        <ele>39</ele>
        <time>2013-01-04T15:02:56Z</time>
      </trkpt>
      <trkpt lat="48.62137" lon="-3.4084">
        <ele>39</ele>
        <time>2013-01-04T15:03:01Z</time>
      </trkpt>
      <trkpt lat="48.6213" lon="-3.40839">
        <ele>39</ele>
        <time>2013-01-04T15:03:07Z</time>
      </trkpt>
      <trkpt lat="48.62124" lon="-3.40839">
        <ele>39</ele>
        <time>2013-01-04T15:03:12Z</time>
      </trkpt>
      <trkpt lat="48.62118" lon="-3.40838">
        <ele>39</ele>
        <time>2013-01-04T15:03:17Z</time>
      </trkpt>
      <trkpt lat="48.62112" lon="-3.40835">
        <ele>39</ele>
        <time>2013-01-04T15:03:23Z</time>
      </trkpt>
      <trkpt lat="48.62111" lon="-3.40828">
        <ele>39</ele>
        <time>2013-01-04T15:03:29Z</time>
      </trkpt>
      <trkpt lat="48.62112" lon="-3.40819">
        <ele>39</ele>
        <time>2013-01-04T15:03:35Z</time>
      </trkpt>
      <trkpt lat="48.62108" lon="-3.40812">
        <ele>39</ele>
        <time>2013-01-04T15:03:40Z</time>
      </trkpt>
      <trkpt lat="48.62106" lon="-3.40805">
        <ele>39</ele>
        <time>2013-01-04T15:03:45Z</time>
      </trkpt>
      <trkpt lat="48.62106" lon="-3.40794">
        <ele>39</ele>
        <time>2013-01-04T15:03:51Z</time>
      </trkpt>
      <trkpt lat="48.62109" lon="-3.40786">
        <ele>39</ele>
        <time>2013-01-04T15:03:57Z</time>
      </trkpt>
      <trkpt lat="48.62112" lon="-3.40778">
        <ele>39</ele>
        <time>2013-01-04T15:04:03Z</time>
      </trkpt>
      <trkpt lat="48.62114" lon="-3.40772">
        <ele>39</ele>
        <time>2013-01-04T15:04:09Z</time>
      </trkpt>
      <trkpt lat="48.62118" lon="-3.40763">
        <ele>39</ele>
        <time>2013-01-04T15:04:14Z</time>
      </trkpt>
      <trkpt lat="48.62121" lon="-3.40755">
        <ele>41</ele>
        <time>2013-01-04T15:04:19Z</time>
      </trkpt>
      <trkpt lat="48.62121" lon="-3.40748">
        <ele>41</ele>
        <time>2013-01-04T15:04:24Z</time>
      </trkpt>
      <trkpt lat="48.62122" lon="-3.4074">
        <ele>41</ele>
        <time>2013-01-04T15:04:30Z</time>
      </trkpt>
      <trkpt lat="48.62125" lon="-3.40733">
        <ele>41</ele>
        <time>2013-01-04T15:04:36Z</time>
      </trkpt>
      <trkpt lat="48.62129" lon="-3.40726">
        <ele>41</ele>
        <time>2013-01-04T15:04:42Z</time>
      </trkpt>
      <trkpt lat="48.62132" lon="-3.40717">
        <ele>41</ele>
        <time>2013-01-04T15:04:48Z</time>
      </trkpt>
      <trkpt lat="48.62135" lon="-3.40709">
        <ele>41</ele>
        <time>2013-01-04T15:04:53Z</time>
      </trkpt>
      <trkpt lat="48.62138" lon="-3.40702">
        <ele>41</ele>
        <time>2013-01-04T15:04:58Z</time>
      </trkpt>
      <trkpt lat="48.62141" lon="-3.40694">
        <ele>40</ele>
        <time>2013-01-04T15:05:04Z</time>
      </trkpt>
      <trkpt lat="48.62146" lon="-3.40685">
        <ele>40</ele>
        <time>2013-01-04T15:05:10Z</time>
      </trkpt>
      <trkpt lat="48.62152" lon="-3.40681">
        <ele>40</ele>
        <time>2013-01-04T15:05:15Z</time>
      </trkpt>
      <trkpt lat="48.62157" lon="-3.40677">
        <ele>40</ele>
        <time>2013-01-04T15:05:21Z</time>
      </trkpt>
      <trkpt lat="48.62163" lon="-3.40672">
        <ele>41</ele>
        <time>2013-01-04T15:05:26Z</time>
      </trkpt>
      <trkpt lat="48.62168" lon="-3.4067">
        <ele>43</ele>
        <time>2013-01-04T15:05:31Z</time>
      </trkpt>
      <trkpt lat="48.62173" lon="-3.40666">
        <ele>43</ele>
        <time>2013-01-04T15:05:37Z</time>
      </trkpt>
      <trkpt lat="48.62177" lon="-3.40661">
        <ele>43</ele>
        <time>2013-01-04T15:05:43Z</time>
      </trkpt>
      <trkpt lat="48.62182" lon="-3.40655">
        <ele>43</ele>
        <time>2013-01-04T15:05:48Z</time>
      </trkpt>
      <trkpt lat="48.62186" lon="-3.40651">
        <ele>43</ele>
        <time>2013-01-04T15:05:53Z</time>
      </trkpt>
      <trkpt lat="48.62191" lon="-3.40645">
        <ele>43</ele>
        <time>2013-01-04T15:05:59Z</time>
      </trkpt>
      <trkpt lat="48.62196" lon="-3.4064">
        <ele>41</ele>
        <time>2013-01-04T15:06:05Z</time>
      </trkpt>
      <trkpt lat="48.62201" lon="-3.40635">
        <ele>40</ele>
        <time>2013-01-04T15:06:11Z</time>
      </trkpt>
      <trkpt lat="48.62205" lon="-3.40631">
        <ele>39</ele>
        <time>2013-01-04T15:06:18Z</time>
      </trkpt>
      <trkpt lat="48.62209" lon="-3.40624">
        <ele>39</ele>
        <time>2013-01-04T15:06:24Z</time>
      </trkpt>
      <trkpt lat="48.62215" lon="-3.40618">
        <ele>39</ele>
        <time>2013-01-04T15:06:30Z</time>
      </trkpt>
      <trkpt lat="48.6222" lon="-3.40613">
        <ele>39</ele>
        <time>2013-01-04T15:06:36Z</time>
      </trkpt>
      <trkpt lat="48.62225" lon="-3.40609">
        <ele>38</ele>
        <time>2013-01-04T15:06:42Z</time>
      </trkpt>
      <trkpt lat="48.6223" lon="-3.40606">
        <ele>38</ele>
        <time>2013-01-04T15:06:47Z</time>
      </trkpt>
      <trkpt lat="48.62236" lon="-3.40602">
        <ele>38</ele>
        <time>2013-01-04T15:06:53Z</time>
      </trkpt>
      <trkpt lat="48.6224" lon="-3.40597">
        <ele>38</ele>
        <time>2013-01-04T15:06:59Z</time>
      </trkpt>
      <trkpt lat="48.62245" lon="-3.40592">
        <ele>38</ele>
        <time>2013-01-04T15:07:04Z</time>
      </trkpt>
      <trkpt lat="48.62251" lon="-3.40587">
        <ele>38</ele>
        <time>2013-01-04T15:07:09Z</time>
      </trkpt>
      <trkpt lat="48.62257" lon="-3.40582">
        <ele>38</ele>
        <time>2013-01-04T15:07:14Z</time>
      </trkpt>
      <trkpt lat="48.62261" lon="-3.40577">
        <ele>38</ele>
        <time>2013-01-04T15:07:20Z</time>
      </trkpt>
      <trkpt lat="48.62266" lon="-3.40572">
        <ele>39</ele>
        <time>2013-01-04T15:07:26Z</time>
      </trkpt>
      <trkpt lat="48.6227" lon="-3.40566">
        <ele>39</ele>
        <time>2013-01-04T15:07:32Z</time>
      </trkpt>
      <trkpt lat="48.62276" lon="-3.40564">
        <ele>39</ele>
        <time>2013-01-04T15:07:37Z</time>
      </trkpt>
      <trkpt lat="48.62282" lon="-3.40561">
        <ele>39</ele>
        <time>2013-01-04T15:07:42Z</time>
      </trkpt>
      <trkpt lat="48.62288" lon="-3.4056">
        <ele>39</ele>
        <time>2013-01-04T15:07:48Z</time>
      </trkpt>
      <trkpt lat="48.6229" lon="-3.4056">
        <ele>39</ele>
        <time>2013-01-04T15:07:53Z</time>
      </trkpt>
      <trkpt lat="48.62292" lon="-3.40558">
        <ele>47</ele>
        <time>2013-01-04T15:08:04Z</time>
      </trkpt>
      <trkpt lat="48.62297" lon="-3.40556">
        <ele>47</ele>
        <time>2013-01-04T15:08:10Z</time>
      </trkpt>
      <trkpt lat="48.62301" lon="-3.40556">
        <ele>47</ele>
        <time>2013-01-04T15:08:16Z</time>
      </trkpt>
      <trkpt lat="48.62303" lon="-3.40555">
        <ele>48</ele>
        <time>2013-01-04T15:08:22Z</time>
      </trkpt>
      <trkpt lat="48.62304" lon="-3.40553">
        <ele>48</ele>
        <time>2013-01-04T15:08:27Z</time>
      </trkpt>
      <trkpt lat="48.62305" lon="-3.4055">
        <ele>48</ele>
        <time>2013-01-04T15:08:32Z</time>
      </trkpt>
      <trkpt lat="48.62308" lon="-3.40547">
        <ele>48</ele>
        <time>2013-01-04T15:08:37Z</time>
      </trkpt>
      <trkpt lat="48.62312" lon="-3.40547">
        <ele>48</ele>
        <time>2013-01-04T15:08:43Z</time>
      </trkpt>
      <trkpt lat="48.62317" lon="-3.40549">
        <ele>48</ele>
        <time>2013-01-04T15:08:49Z</time>
      </trkpt>
      <trkpt lat="48.62322" lon="-3.4055">
        <ele>48</ele>
        <time>2013-01-04T15:08:55Z</time>
      </trkpt>
      <trkpt lat="48.62327" lon="-3.4055">
        <ele>48</ele>
        <time>2013-01-04T15:09:01Z</time>
      </trkpt>
      <trkpt lat="48.62333" lon="-3.40549">
        <ele>48</ele>
        <time>2013-01-04T15:09:06Z</time>
      </trkpt>
      <trkpt lat="48.62339" lon="-3.40547">
        <ele>47</ele>
        <time>2013-01-04T15:09:11Z</time>
      </trkpt>
      <trkpt lat="48.62343" lon="-3.40544">
        <ele>45</ele>
        <time>2013-01-04T15:09:16Z</time>
      </trkpt>
      <trkpt lat="48.62349" lon="-3.40541">
        <ele>43</ele>
        <time>2013-01-04T15:09:22Z</time>
      </trkpt>
      <trkpt lat="48.62355" lon="-3.40537">
        <ele>42</ele>
        <time>2013-01-04T15:09:28Z</time>
      </trkpt>
      <trkpt lat="48.6236" lon="-3.40533">
        <ele>41</ele>
        <time>2013-01-04T15:09:33Z</time>
      </trkpt>
      <trkpt lat="48.62365" lon="-3.40528">
        <ele>40</ele>
        <time>2013-01-04T15:09:38Z</time>
      </trkpt>
      <trkpt lat="48.6237" lon="-3.40523">
        <ele>40</ele>
        <time>2013-01-04T15:09:43Z</time>
      </trkpt>
      <trkpt lat="48.6238" lon="-3.40517">
        <ele>40</ele>
        <time>2013-01-04T15:09:48Z</time>
      </trkpt>
      <trkpt lat="48.62384" lon="-3.40513">
        <ele>42</ele>
        <time>2013-01-04T15:09:53Z</time>
      </trkpt>
      <trkpt lat="48.62389" lon="-3.40508">
        <ele>42</ele>
        <time>2013-01-04T15:09:59Z</time>
      </trkpt>
      <trkpt lat="48.62395" lon="-3.40504">
        <ele>42</ele>
        <time>2013-01-04T15:10:05Z</time>
      </trkpt>
      <trkpt lat="48.624" lon="-3.40499">
        <ele>42</ele>
        <time>2013-01-04T15:10:10Z</time>
      </trkpt>
      <trkpt lat="48.62405" lon="-3.40495">
        <ele>42</ele>
        <time>2013-01-04T15:10:15Z</time>
      </trkpt>
      <trkpt lat="48.6241" lon="-3.4049">
        <ele>42</ele>
        <time>2013-01-04T15:10:20Z</time>
      </trkpt>
      <trkpt lat="48.62415" lon="-3.40485">
        <ele>42</ele>
        <time>2013-01-04T15:10:25Z</time>
      </trkpt>
      <trkpt lat="48.6242" lon="-3.40481">
        <ele>42</ele>
        <time>2013-01-04T15:10:30Z</time>
      </trkpt>
      <trkpt lat="48.62429" lon="-3.40477">
        <ele>44</ele>
        <time>2013-01-04T15:10:36Z</time>
      </trkpt>
      <trkpt lat="48.62436" lon="-3.40474">
        <ele>46</ele>
        <time>2013-01-04T15:10:42Z</time>
      </trkpt>
      <trkpt lat="48.62441" lon="-3.40471">
        <ele>47</ele>
        <time>2013-01-04T15:10:47Z</time>
      </trkpt>
      <trkpt lat="48.62447" lon="-3.40469">
        <ele>48</ele>
        <time>2013-01-04T15:10:53Z</time>
      </trkpt>
      <trkpt lat="48.62451" lon="-3.40467">
        <ele>48</ele>
        <time>2013-01-04T15:10:58Z</time>
      </trkpt>
      <trkpt lat="48.62455" lon="-3.40466">
        <ele>48</ele>
        <time>2013-01-04T15:11:03Z</time>
      </trkpt>
      <trkpt lat="48.62458" lon="-3.40465">
        <ele>48</ele>
        <time>2013-01-04T15:11:09Z</time>
      </trkpt>
      <trkpt lat="48.62461" lon="-3.40465">
        <ele>48</ele>
        <time>2013-01-04T15:11:15Z</time>
      </trkpt>
      <trkpt lat="48.62464" lon="-3.40465">
        <ele>48</ele>
        <time>2013-01-04T15:11:20Z</time>
      </trkpt>
      <trkpt lat="48.6247" lon="-3.40464">
        <ele>48</ele>
        <time>2013-01-04T15:11:26Z</time>
      </trkpt>
      <trkpt lat="48.62475" lon="-3.40464">
        <ele>48</ele>
        <time>2013-01-04T15:11:31Z</time>
      </trkpt>
      <trkpt lat="48.6248" lon="-3.40463">
        <ele>48</ele>
        <time>2013-01-04T15:11:36Z</time>
      </trkpt>
      <trkpt lat="48.62487" lon="-3.40463">
        <ele>49</ele>
        <time>2013-01-04T15:11:42Z</time>
      </trkpt>
      <trkpt lat="48.62492" lon="-3.40463">
        <ele>49</ele>
        <time>2013-01-04T15:11:48Z</time>
      </trkpt>
      <trkpt lat="48.62498" lon="-3.40464">
        <ele>49</ele>
        <time>2013-01-04T15:11:54Z</time>
      </trkpt>
      <trkpt lat="48.62504" lon="-3.40463">
        <ele>49</ele>
        <time>2013-01-04T15:12:00Z</time>
      </trkpt>
      <trkpt lat="48.62509" lon="-3.40465">
        <ele>49</ele>
        <time>2013-01-04T15:12:05Z</time>
      </trkpt>
      <trkpt lat="48.62516" lon="-3.40465">
        <ele>49</ele>
        <time>2013-01-04T15:12:10Z</time>
      </trkpt>
      <trkpt lat="48.62522" lon="-3.40465">
        <ele>50</ele>
        <time>2013-01-04T15:12:15Z</time>
      </trkpt>
      <trkpt lat="48.62529" lon="-3.40466">
        <ele>50</ele>
        <time>2013-01-04T15:12:20Z</time>
      </trkpt>
      <trkpt lat="48.62535" lon="-3.40467">
        <ele>50</ele>
        <time>2013-01-04T15:12:25Z</time>
      </trkpt>
      <trkpt lat="48.6254" lon="-3.40468">
        <ele>50</ele>
        <time>2013-01-04T15:12:30Z</time>
      </trkpt>
      <trkpt lat="48.62546" lon="-3.40469">
        <ele>50</ele>
        <time>2013-01-04T15:12:36Z</time>
      </trkpt>
      <trkpt lat="48.62552" lon="-3.4047">
        <ele>50</ele>
        <time>2013-01-04T15:12:41Z</time>
      </trkpt>
      <trkpt lat="48.62556" lon="-3.40469">
        <ele>51</ele>
        <time>2013-01-04T15:12:46Z</time>
      </trkpt>
      <trkpt lat="48.62563" lon="-3.40469">
        <ele>52</ele>
        <time>2013-01-04T15:12:52Z</time>
      </trkpt>
      <trkpt lat="48.62568" lon="-3.40469">
        <ele>52</ele>
        <time>2013-01-04T15:12:57Z</time>
      </trkpt>
      <trkpt lat="48.62573" lon="-3.40468">
        <ele>52</ele>
        <time>2013-01-04T15:13:02Z</time>
      </trkpt>
      <trkpt lat="48.62578" lon="-3.40467">
        <ele>52</ele>
        <time>2013-01-04T15:13:07Z</time>
      </trkpt>
      <trkpt lat="48.62584" lon="-3.40468">
        <ele>52</ele>
        <time>2013-01-04T15:13:13Z</time>
      </trkpt>
      <trkpt lat="48.62589" lon="-3.40468">
        <ele>52</ele>
        <time>2013-01-04T15:13:18Z</time>
      </trkpt>
      <trkpt lat="48.62594" lon="-3.40469">
        <ele>52</ele>
        <time>2013-01-04T15:13:23Z</time>
      </trkpt>
      <trkpt lat="48.62599" lon="-3.40468">
        <ele>52</ele>
        <time>2013-01-04T15:13:29Z</time>
      </trkpt>
      <trkpt lat="48.62603" lon="-3.40469">
        <ele>52</ele>
        <time>2013-01-04T15:13:36Z</time>
      </trkpt>
      <trkpt lat="48.62605" lon="-3.40471">
        <ele>53</ele>
        <time>2013-01-04T15:13:46Z</time>
      </trkpt>
      <trkpt lat="48.62609" lon="-3.4047">
        <ele>53</ele>
        <time>2013-01-04T15:13:53Z</time>
      </trkpt>
      <trkpt lat="48.62612" lon="-3.4047">
        <ele>53</ele>
        <time>2013-01-04T15:14:01Z</time>
      </trkpt>
      <trkpt lat="48.62616" lon="-3.4047">
        <ele>54</ele>
        <time>2013-01-04T15:14:07Z</time>
      </trkpt>
      <trkpt lat="48.6262" lon="-3.40469">
        <ele>54</ele>
        <time>2013-01-04T15:14:13Z</time>
      </trkpt>
      <trkpt lat="48.62625" lon="-3.4047">
        <ele>55</ele>
        <time>2013-01-04T15:14:18Z</time>
      </trkpt>
      <trkpt lat="48.62629" lon="-3.40469">
        <ele>55</ele>
        <time>2013-01-04T15:14:24Z</time>
      </trkpt>
      <trkpt lat="48.62635" lon="-3.40469">
        <ele>55</ele>
        <time>2013-01-04T15:14:30Z</time>
      </trkpt>
      <trkpt lat="48.62639" lon="-3.4047">
        <ele>55</ele>
        <time>2013-01-04T15:14:35Z</time>
      </trkpt>
      <trkpt lat="48.62644" lon="-3.40469">
        <ele>55</ele>
        <time>2013-01-04T15:14:41Z</time>
      </trkpt>
      <trkpt lat="48.6265" lon="-3.40469">
        <ele>55</ele>
        <time>2013-01-04T15:14:46Z</time>
      </trkpt>
      <trkpt lat="48.62654" lon="-3.40469">
        <ele>55</ele>
        <time>2013-01-04T15:14:51Z</time>
      </trkpt>
      <trkpt lat="48.6266" lon="-3.40468">
        <ele>55</ele>
        <time>2013-01-04T15:14:57Z</time>
      </trkpt>
      <trkpt lat="48.62664" lon="-3.40465">
        <ele>55</ele>
        <time>2013-01-04T15:15:03Z</time>
      </trkpt>
      <trkpt lat="48.62669" lon="-3.40464">
        <ele>55</ele>
        <time>2013-01-04T15:15:09Z</time>
      </trkpt>
      <trkpt lat="48.62674" lon="-3.40461">
        <ele>55</ele>
        <time>2013-01-04T15:15:15Z</time>
      </trkpt>
      <trkpt lat="48.62676" lon="-3.4046">
        <ele>55</ele>
        <time>2013-01-04T15:15:20Z</time>
      </trkpt>
      <trkpt lat="48.6268" lon="-3.40459">
        <ele>55</ele>
        <time>2013-01-04T15:15:26Z</time>
      </trkpt>
      <trkpt lat="48.62683" lon="-3.40458">
        <ele>55</ele>
        <time>2013-01-04T15:15:32Z</time>
      </trkpt>
      <trkpt lat="48.62686" lon="-3.40455">
        <ele>55</ele>
        <time>2013-01-04T15:15:37Z</time>
      </trkpt>
      <trkpt lat="48.62687" lon="-3.40451">
        <ele>55</ele>
        <time>2013-01-04T15:15:42Z</time>
      </trkpt>
      <trkpt lat="48.62688" lon="-3.40446">
        <ele>55</ele>
        <time>2013-01-04T15:15:47Z</time>
      </trkpt>
      <trkpt lat="48.62691" lon="-3.40439">
        <ele>55</ele>
        <time>2013-01-04T15:15:53Z</time>
      </trkpt>
      <trkpt lat="48.62694" lon="-3.40431">
        <ele>55</ele>
        <time>2013-01-04T15:15:59Z</time>
      </trkpt>
      <trkpt lat="48.62697" lon="-3.40422">
        <ele>55</ele>
        <time>2013-01-04T15:16:05Z</time>
      </trkpt>
      <trkpt lat="48.62701" lon="-3.40412">
        <ele>55</ele>
        <time>2013-01-04T15:16:11Z</time>
      </trkpt>
      <trkpt lat="48.62704" lon="-3.40405">
        <ele>55</ele>
        <time>2013-01-04T15:16:16Z</time>
      </trkpt>
      <trkpt lat="48.62706" lon="-3.40397">
        <ele>55</ele>
        <time>2013-01-04T15:16:21Z</time>
      </trkpt>
      <trkpt lat="48.62708" lon="-3.40388">
        <ele>55</ele>
        <time>2013-01-04T15:16:27Z</time>
      </trkpt>
      <trkpt lat="48.62709" lon="-3.4038">
        <ele>55</ele>
        <time>2013-01-04T15:16:32Z</time>
      </trkpt>
      <trkpt lat="48.62711" lon="-3.40371">
        <ele>55</ele>
        <time>2013-01-04T15:16:38Z</time>
      </trkpt>
      <trkpt lat="48.62712" lon="-3.40363">
        <ele>55</ele>
        <time>2013-01-04T15:16:43Z</time>
      </trkpt>
      <trkpt lat="48.62714" lon="-3.40355">
        <ele>56</ele>
        <time>2013-01-04T15:16:48Z</time>
      </trkpt>
      <trkpt lat="48.62715" lon="-3.40348">
        <ele>56</ele>
        <time>2013-01-04T15:16:53Z</time>
      </trkpt>
      <trkpt lat="48.62717" lon="-3.40338">
        <ele>56</ele>
        <time>2013-01-04T15:16:59Z</time>
      </trkpt>
      <trkpt lat="48.62719" lon="-3.40331">
        <ele>57</ele>
        <time>2013-01-04T15:17:04Z</time>
      </trkpt>
      <trkpt lat="48.62722" lon="-3.40321">
        <ele>57</ele>
        <time>2013-01-04T15:17:09Z</time>
      </trkpt>
      <trkpt lat="48.62725" lon="-3.40313">
        <ele>57</ele>
        <time>2013-01-04T15:17:14Z</time>
      </trkpt>
      <trkpt lat="48.62727" lon="-3.40304">
        <ele>58</ele>
        <time>2013-01-04T15:17:19Z</time>
      </trkpt>
      <trkpt lat="48.62728" lon="-3.40296">
        <ele>58</ele>
        <time>2013-01-04T15:17:24Z</time>
      </trkpt>
      <trkpt lat="48.6273" lon="-3.40288">
        <ele>58</ele>
        <time>2013-01-04T15:17:29Z</time>
      </trkpt>
      <trkpt lat="48.62732" lon="-3.4028">
        <ele>58</ele>
        <time>2013-01-04T15:17:34Z</time>
      </trkpt>
      <trkpt lat="48.62734" lon="-3.40272">
        <ele>58</ele>
        <time>2013-01-04T15:17:39Z</time>
      </trkpt>
      <trkpt lat="48.62736" lon="-3.40263">
        <ele>58</ele>
        <time>2013-01-04T15:17:44Z</time>
      </trkpt>
      <trkpt lat="48.62739" lon="-3.40254">
        <ele>58</ele>
        <time>2013-01-04T15:17:49Z</time>
      </trkpt>
      <trkpt lat="48.62741" lon="-3.40246">
        <ele>59</ele>
        <time>2013-01-04T15:17:54Z</time>
      </trkpt>
      <trkpt lat="48.62743" lon="-3.40238">
        <ele>59</ele>
        <time>2013-01-04T15:17:59Z</time>
      </trkpt>
      <trkpt lat="48.62745" lon="-3.40229">
        <ele>59</ele>
        <time>2013-01-04T15:18:04Z</time>
      </trkpt>
      <trkpt lat="48.62749" lon="-3.40218">
        <ele>59</ele>
        <time>2013-01-04T15:18:10Z</time>
      </trkpt>
      <trkpt lat="48.62752" lon="-3.40211">
        <ele>59</ele>
        <time>2013-01-04T15:18:15Z</time>
      </trkpt>
      <trkpt lat="48.62756" lon="-3.40203">
        <ele>59</ele>
        <time>2013-01-04T15:18:21Z</time>
      </trkpt>
      <trkpt lat="48.62759" lon="-3.40196">
        <ele>59</ele>
        <time>2013-01-04T15:18:26Z</time>
      </trkpt>
      <trkpt lat="48.62764" lon="-3.40192">
        <ele>59</ele>
        <time>2013-01-04T15:18:31Z</time>
      </trkpt>
      <trkpt lat="48.62769" lon="-3.40192">
        <ele>60</ele>
        <time>2013-01-04T15:18:36Z</time>
      </trkpt>
      <trkpt lat="48.62775" lon="-3.40193">
        <ele>60</ele>
        <time>2013-01-04T15:18:41Z</time>
      </trkpt>
      <trkpt lat="48.6278" lon="-3.40195">
        <ele>60</ele>
        <time>2013-01-04T15:18:46Z</time>
      </trkpt>
      <trkpt lat="48.62786" lon="-3.40196">
        <ele>61</ele>
        <time>2013-01-04T15:18:51Z</time>
      </trkpt>
      <trkpt lat="48.62791" lon="-3.40197">
        <ele>61</ele>
        <time>2013-01-04T15:18:56Z</time>
      </trkpt>
      <trkpt lat="48.62796" lon="-3.40198">
        <ele>61</ele>
        <time>2013-01-04T15:19:01Z</time>
      </trkpt>
      <trkpt lat="48.62801" lon="-3.40197">
        <ele>62</ele>
        <time>2013-01-04T15:19:06Z</time>
      </trkpt>
      <trkpt lat="48.62807" lon="-3.40197">
        <ele>62</ele>
        <time>2013-01-04T15:19:12Z</time>
      </trkpt>
      <trkpt lat="48.62813" lon="-3.40196">
        <ele>62</ele>
        <time>2013-01-04T15:19:17Z</time>
      </trkpt>
      <trkpt lat="48.6282" lon="-3.40195">
        <ele>62</ele>
        <time>2013-01-04T15:19:23Z</time>
      </trkpt>
      <trkpt lat="48.62826" lon="-3.40194">
        <ele>62</ele>
        <time>2013-01-04T15:19:28Z</time>
      </trkpt>
      <trkpt lat="48.62832" lon="-3.40192">
        <ele>62</ele>
        <time>2013-01-04T15:19:33Z</time>
      </trkpt>
      <trkpt lat="48.62838" lon="-3.4019">
        <ele>63</ele>
        <time>2013-01-04T15:19:38Z</time>
      </trkpt>
      <trkpt lat="48.62844" lon="-3.40187">
        <ele>64</ele>
        <time>2013-01-04T15:19:43Z</time>
      </trkpt>
      <trkpt lat="48.62851" lon="-3.40184">
        <ele>64</ele>
        <time>2013-01-04T15:19:49Z</time>
      </trkpt>
      <trkpt lat="48.62858" lon="-3.4018">
        <ele>65</ele>
        <time>2013-01-04T15:19:55Z</time>
      </trkpt>
      <trkpt lat="48.62864" lon="-3.40177">
        <ele>65</ele>
        <time>2013-01-04T15:20:00Z</time>
      </trkpt>
      <trkpt lat="48.62869" lon="-3.40173">
        <ele>65</ele>
        <time>2013-01-04T15:20:05Z</time>
      </trkpt>
      <trkpt lat="48.62875" lon="-3.4017">
        <ele>66</ele>
        <time>2013-01-04T15:20:10Z</time>
      </trkpt>
      <trkpt lat="48.62881" lon="-3.40168">
        <ele>67</ele>
        <time>2013-01-04T15:20:15Z</time>
      </trkpt>
      <trkpt lat="48.62887" lon="-3.40165">
        <ele>67</ele>
        <time>2013-01-04T15:20:20Z</time>
      </trkpt>
      <trkpt lat="48.62893" lon="-3.40163">
        <ele>67</ele>
        <time>2013-01-04T15:20:25Z</time>
      </trkpt>
      <trkpt lat="48.62899" lon="-3.40161">
        <ele>68</ele>
        <time>2013-01-04T15:20:30Z</time>
      </trkpt>
      <trkpt lat="48.62905" lon="-3.4016">
        <ele>68</ele>
        <time>2013-01-04T15:20:35Z</time>
      </trkpt>
      <trkpt lat="48.62911" lon="-3.40159">
        <ele>69</ele>
        <time>2013-01-04T15:20:40Z</time>
      </trkpt>
      <trkpt lat="48.62917" lon="-3.40158">
        <ele>69</ele>
        <time>2013-01-04T15:20:45Z</time>
      </trkpt>
      <trkpt lat="48.62923" lon="-3.40159">
        <ele>69</ele>
        <time>2013-01-04T15:20:50Z</time>
      </trkpt>
      <trkpt lat="48.62929" lon="-3.40159">
        <ele>70</ele>
        <time>2013-01-04T15:20:55Z</time>
      </trkpt>
      <trkpt lat="48.62934" lon="-3.4016">
        <ele>70</ele>
        <time>2013-01-04T15:21:00Z</time>
      </trkpt>
      <trkpt lat="48.6294" lon="-3.4016">
        <ele>71</ele>
        <time>2013-01-04T15:21:05Z</time>
      </trkpt>
      <trkpt lat="48.62946" lon="-3.40162">
        <ele>71</ele>
        <time>2013-01-04T15:21:11Z</time>
      </trkpt>
      <trkpt lat="48.62952" lon="-3.40164">
        <ele>71</ele>
        <time>2013-01-04T15:21:17Z</time>
      </trkpt>
      <trkpt lat="48.62957" lon="-3.40169">
        <ele>71</ele>
        <time>2013-01-04T15:21:23Z</time>
      </trkpt>
      <trkpt lat="48.62963" lon="-3.40174">
        <ele>72</ele>
        <time>2013-01-04T15:21:29Z</time>
      </trkpt>
      <trkpt lat="48.62967" lon="-3.40178">
        <ele>72</ele>
        <time>2013-01-04T15:21:34Z</time>
      </trkpt>
      <trkpt lat="48.62972" lon="-3.40181">
        <ele>72</ele>
        <time>2013-01-04T15:21:39Z</time>
      </trkpt>
      <trkpt lat="48.62978" lon="-3.40183">
        <ele>72</ele>
        <time>2013-01-04T15:21:44Z</time>
      </trkpt>
      <trkpt lat="48.62984" lon="-3.40185">
        <ele>73</ele>
        <time>2013-01-04T15:21:50Z</time>
      </trkpt>
      <trkpt lat="48.62991" lon="-3.40187">
        <ele>73</ele>
        <time>2013-01-04T15:21:56Z</time>
      </trkpt>
      <trkpt lat="48.62997" lon="-3.40188">
        <ele>74</ele>
        <time>2013-01-04T15:22:01Z</time>
      </trkpt>
      <trkpt lat="48.63003" lon="-3.40189">
        <ele>74</ele>
        <time>2013-01-04T15:22:06Z</time>
      </trkpt>
      <trkpt lat="48.63008" lon="-3.40189">
        <ele>74</ele>
        <time>2013-01-04T15:22:11Z</time>
      </trkpt>
      <trkpt lat="48.63014" lon="-3.4019">
        <ele>75</ele>
        <time>2013-01-04T15:22:16Z</time>
      </trkpt>
      <trkpt lat="48.6302" lon="-3.40191">
        <ele>75</ele>
        <time>2013-01-04T15:22:21Z</time>
      </trkpt>
      <trkpt lat="48.63025" lon="-3.40191">
        <ele>75</ele>
        <time>2013-01-04T15:22:26Z</time>
      </trkpt>
      <trkpt lat="48.63031" lon="-3.40191">
        <ele>76</ele>
        <time>2013-01-04T15:22:31Z</time>
      </trkpt>
      <trkpt lat="48.63036" lon="-3.40192">
        <ele>77</ele>
        <time>2013-01-04T15:22:36Z</time>
      </trkpt>
      <trkpt lat="48.63042" lon="-3.40192">
        <ele>79</ele>
        <time>2013-01-04T15:22:41Z</time>
      </trkpt>
      <trkpt lat="48.63047" lon="-3.40194">
        <ele>81</ele>
        <time>2013-01-04T15:22:46Z</time>
      </trkpt>
      <trkpt lat="48.6305" lon="-3.40194">
        <ele>83</ele>
        <time>2013-01-04T15:22:52Z</time>
      </trkpt>
      <trkpt lat="48.63052" lon="-3.40195">
        <ele>83</ele>
        <time>2013-01-04T15:22:57Z</time>
      </trkpt>
      <trkpt lat="48.63054" lon="-3.40195">
        <ele>86</ele>
        <time>2013-01-04T15:23:17Z</time>
      </trkpt>
      <trkpt lat="48.63055" lon="-3.40194">
        <ele>88</ele>
        <time>2013-01-04T15:24:08Z</time>
      </trkpt>
      <trkpt lat="48.63058" lon="-3.40192">
        <ele>88</ele>
        <time>2013-01-04T15:24:33Z</time>
      </trkpt>
      <trkpt lat="48.6306" lon="-3.40188">
        <ele>88</ele>
        <time>2013-01-04T15:24:39Z</time>
      </trkpt>
      <trkpt lat="48.63063" lon="-3.40187">
        <ele>88</ele>
        <time>2013-01-04T15:24:44Z</time>
      </trkpt>
      <trkpt lat="48.63064" lon="-3.40186">
        <ele>88</ele>
        <time>2013-01-04T15:24:51Z</time>
      </trkpt>
      <trkpt lat="48.63065" lon="-3.40185">
        <ele>88</ele>
        <time>2013-01-04T15:25:19Z</time>
      </trkpt>
      <trkpt lat="48.63067" lon="-3.40185">
        <ele>88</ele>
        <time>2013-01-04T15:25:37Z</time>
      </trkpt>
      <trkpt lat="48.63067" lon="-3.40183">
        <ele>88</ele>
        <time>2013-01-04T15:25:43Z</time>
      </trkpt>
      <trkpt lat="48.63068" lon="-3.40182">
        <ele>88</ele>
        <time>2013-01-04T15:25:56Z</time>
      </trkpt>
      <trkpt lat="48.63073" lon="-3.40179">
        <ele>88</ele>
        <time>2013-01-04T15:26:02Z</time>
      </trkpt>
      <trkpt lat="48.63076" lon="-3.40175">
        <ele>88</ele>
        <time>2013-01-04T15:26:08Z</time>
      </trkpt>
      <trkpt lat="48.63081" lon="-3.40173">
        <ele>88</ele>
        <time>2013-01-04T15:26:14Z</time>
      </trkpt>
      <trkpt lat="48.63086" lon="-3.40171">
        <ele>88</ele>
        <time>2013-01-04T15:26:20Z</time>
      </trkpt>
      <trkpt lat="48.63091" lon="-3.40168">
        <ele>88</ele>
        <time>2013-01-04T15:26:26Z</time>
      </trkpt>
      <trkpt lat="48.63097" lon="-3.40167">
        <ele>88</ele>
        <time>2013-01-04T15:26:32Z</time>
      </trkpt>
      <trkpt lat="48.63102" lon="-3.40164">
        <ele>88</ele>
        <time>2013-01-04T15:26:38Z</time>
      </trkpt>
      <trkpt lat="48.63106" lon="-3.40162">
        <ele>88</ele>
        <time>2013-01-04T15:26:44Z</time>
      </trkpt>
      <trkpt lat="48.63109" lon="-3.40162">
        <ele>88</ele>
        <time>2013-01-04T15:26:49Z</time>
      </trkpt>
      <trkpt lat="48.63114" lon="-3.40161">
        <ele>88</ele>
        <time>2013-01-04T15:26:55Z</time>
      </trkpt>
      <trkpt lat="48.6312" lon="-3.4016">
        <ele>88</ele>
        <time>2013-01-04T15:27:01Z</time>
      </trkpt>
      <trkpt lat="48.63125" lon="-3.40159">
        <ele>88</ele>
        <time>2013-01-04T15:27:07Z</time>
      </trkpt>
      <trkpt lat="48.6313" lon="-3.40158">
        <ele>89</ele>
        <time>2013-01-04T15:27:13Z</time>
      </trkpt>
      <trkpt lat="48.63135" lon="-3.40156">
        <ele>89</ele>
        <time>2013-01-04T15:27:19Z</time>
      </trkpt>
      <trkpt lat="48.6314" lon="-3.40155">
        <ele>90</ele>
        <time>2013-01-04T15:27:24Z</time>
      </trkpt>
      <trkpt lat="48.63146" lon="-3.40153">
        <ele>90</ele>
        <time>2013-01-04T15:27:30Z</time>
      </trkpt>
      <trkpt lat="48.63152" lon="-3.4015">
        <ele>90</ele>
        <time>2013-01-04T15:27:36Z</time>
      </trkpt>
      <trkpt lat="48.63158" lon="-3.40148">
        <ele>91</ele>
        <time>2013-01-04T15:27:42Z</time>
      </trkpt>
      <trkpt lat="48.63164" lon="-3.40145">
        <ele>91</ele>
        <time>2013-01-04T15:27:48Z</time>
      </trkpt>
      <trkpt lat="48.63169" lon="-3.40143">
        <ele>91</ele>
        <time>2013-01-04T15:27:53Z</time>
      </trkpt>
      <trkpt lat="48.63176" lon="-3.4014">
        <ele>92</ele>
        <time>2013-01-04T15:27:59Z</time>
      </trkpt>
      <trkpt lat="48.63182" lon="-3.40136">
        <ele>92</ele>
        <time>2013-01-04T15:28:05Z</time>
      </trkpt>
      <trkpt lat="48.63187" lon="-3.40133">
        <ele>92</ele>
        <time>2013-01-04T15:28:11Z</time>
      </trkpt>
      <trkpt lat="48.63192" lon="-3.4013">
        <ele>92</ele>
        <time>2013-01-04T15:28:16Z</time>
      </trkpt>
      <trkpt lat="48.63198" lon="-3.40125">
        <ele>92</ele>
        <time>2013-01-04T15:28:22Z</time>
      </trkpt>
      <trkpt lat="48.63204" lon="-3.40121">
        <ele>92</ele>
        <time>2013-01-04T15:28:28Z</time>
      </trkpt>
      <trkpt lat="48.6321" lon="-3.40116">
        <ele>92</ele>
        <time>2013-01-04T15:28:34Z</time>
      </trkpt>
      <trkpt lat="48.63216" lon="-3.40111">
        <ele>92</ele>
        <time>2013-01-04T15:28:40Z</time>
      </trkpt>
      <trkpt lat="48.63223" lon="-3.40106">
        <ele>92</ele>
        <time>2013-01-04T15:28:46Z</time>
      </trkpt>
      <trkpt lat="48.63229" lon="-3.40101">
        <ele>92</ele>
        <time>2013-01-04T15:28:52Z</time>
      </trkpt>
      <trkpt lat="48.63235" lon="-3.40097">
        <ele>93</ele>
        <time>2013-01-04T15:28:58Z</time>
      </trkpt>
      <trkpt lat="48.6324" lon="-3.40093">
        <ele>94</ele>
        <time>2013-01-04T15:29:03Z</time>
      </trkpt>
      <trkpt lat="48.63246" lon="-3.40088">
        <ele>94</ele>
        <time>2013-01-04T15:29:09Z</time>
      </trkpt>
      <trkpt lat="48.63252" lon="-3.40084">
        <ele>94</ele>
        <time>2013-01-04T15:29:15Z</time>
      </trkpt>
      <trkpt lat="48.63258" lon="-3.40079">
        <ele>95</ele>
        <time>2013-01-04T15:29:21Z</time>
      </trkpt>
      <trkpt lat="48.63263" lon="-3.40075">
        <ele>95</ele>
        <time>2013-01-04T15:29:27Z</time>
      </trkpt>
      <trkpt lat="48.63269" lon="-3.4007">
        <ele>95</ele>
        <time>2013-01-04T15:29:33Z</time>
      </trkpt>
      <trkpt lat="48.63274" lon="-3.40066">
        <ele>96</ele>
        <time>2013-01-04T15:29:39Z</time>
      </trkpt>
      <trkpt lat="48.6328" lon="-3.40061">
        <ele>96</ele>
        <time>2013-01-04T15:29:45Z</time>
      </trkpt>
      <trkpt lat="48.63285" lon="-3.40056">
        <ele>97</ele>
        <time>2013-01-04T15:29:51Z</time>
      </trkpt>
      <trkpt lat="48.63291" lon="-3.4005">
        <ele>98</ele>
        <time>2013-01-04T15:29:57Z</time>
      </trkpt>
      <trkpt lat="48.63297" lon="-3.40045">
        <ele>98</ele>
        <time>2013-01-04T15:30:03Z</time>
      </trkpt>
      <trkpt lat="48.63302" lon="-3.40039">
        <ele>99</ele>
        <time>2013-01-04T15:30:09Z</time>
      </trkpt>
      <trkpt lat="48.63308" lon="-3.40034">
        <ele>100</ele>
        <time>2013-01-04T15:30:15Z</time>
      </trkpt>
      <trkpt lat="48.63314" lon="-3.40027">
        <ele>100</ele>
        <time>2013-01-04T15:30:21Z</time>
      </trkpt>
      <trkpt lat="48.6332" lon="-3.40021">
        <ele>100</ele>
        <time>2013-01-04T15:30:27Z</time>
      </trkpt>
      <trkpt lat="48.63325" lon="-3.40014">
        <ele>100</ele>
        <time>2013-01-04T15:30:33Z</time>
      </trkpt>
      <trkpt lat="48.6333" lon="-3.40008">
        <ele>100</ele>
        <time>2013-01-04T15:30:38Z</time>
      </trkpt>
      <trkpt lat="48.63336" lon="-3.40002">
        <ele>100</ele>
        <time>2013-01-04T15:30:44Z</time>
      </trkpt>
      <trkpt lat="48.63341" lon="-3.39995">
        <ele>100</ele>
        <time>2013-01-04T15:30:50Z</time>
      </trkpt>
      <trkpt lat="48.63347" lon="-3.39988">
        <ele>101</ele>
        <time>2013-01-04T15:30:56Z</time>
      </trkpt>
      <trkpt lat="48.63353" lon="-3.39982">
        <ele>101</ele>
        <time>2013-01-04T15:31:01Z</time>
      </trkpt>
      <trkpt lat="48.63359" lon="-3.39976">
        <ele>101</ele>
        <time>2013-01-04T15:31:07Z</time>
      </trkpt>
      <trkpt lat="48.63365" lon="-3.3997">
        <ele>101</ele>
        <time>2013-01-04T15:31:13Z</time>
      </trkpt>
      <trkpt lat="48.6337" lon="-3.39965">
        <ele>101</ele>
        <time>2013-01-04T15:31:18Z</time>
      </trkpt>
      <trkpt lat="48.63376" lon="-3.39958">
        <ele>101</ele>
        <time>2013-01-04T15:31:24Z</time>
      </trkpt>
      <trkpt lat="48.63383" lon="-3.39953">
        <ele>101</ele>
        <time>2013-01-04T15:31:30Z</time>
      </trkpt>
      <trkpt lat="48.63389" lon="-3.39947">
        <ele>101</ele>
        <time>2013-01-04T15:31:36Z</time>
      </trkpt>
      <trkpt lat="48.63394" lon="-3.39943">
        <ele>101</ele>
        <time>2013-01-04T15:31:42Z</time>
      </trkpt>
      <trkpt lat="48.63399" lon="-3.39942">
        <ele>101</ele>
        <time>2013-01-04T15:31:48Z</time>
      </trkpt>
      <trkpt lat="48.63402" lon="-3.39948">
        <ele>101</ele>
        <time>2013-01-04T15:31:54Z</time>
      </trkpt>
      <trkpt lat="48.63403" lon="-3.39959">
        <ele>101</ele>
        <time>2013-01-04T15:32:00Z</time>
      </trkpt>
      <trkpt lat="48.63402" lon="-3.39967">
        <ele>101</ele>
        <time>2013-01-04T15:32:05Z</time>
      </trkpt>
      <trkpt lat="48.63403" lon="-3.39976">
        <ele>101</ele>
        <time>2013-01-04T15:32:10Z</time>
      </trkpt>
      <trkpt lat="48.63403" lon="-3.39986">
        <ele>101</ele>
        <time>2013-01-04T15:32:16Z</time>
      </trkpt>
      <trkpt lat="48.63403" lon="-3.39994">
        <ele>100</ele>
        <time>2013-01-04T15:32:21Z</time>
      </trkpt>
      <trkpt lat="48.63402" lon="-3.40003">
        <ele>98</ele>
        <time>2013-01-04T15:32:27Z</time>
      </trkpt>
      <trkpt lat="48.63401" lon="-3.40013">
        <ele>97</ele>
        <time>2013-01-04T15:32:33Z</time>
      </trkpt>
      <trkpt lat="48.634" lon="-3.40022">
        <ele>97</ele>
        <time>2013-01-04T15:32:38Z</time>
      </trkpt>
      <trkpt lat="48.634" lon="-3.40029">
        <ele>96</ele>
        <time>2013-01-04T15:32:43Z</time>
      </trkpt>
      <trkpt lat="48.63399" lon="-3.4004">
        <ele>96</ele>
        <time>2013-01-04T15:32:49Z</time>
      </trkpt>
      <trkpt lat="48.63399" lon="-3.40048">
        <ele>96</ele>
        <time>2013-01-04T15:32:54Z</time>
      </trkpt>
      <trkpt lat="48.634" lon="-3.40052">
        <ele>96</ele>
        <time>2013-01-04T15:33:00Z</time>
      </trkpt>
      <trkpt lat="48.634" lon="-3.40058">
        <ele>96</ele>
        <time>2013-01-04T15:33:06Z</time>
      </trkpt>
      <trkpt lat="48.634" lon="-3.40065">
        <ele>96</ele>
        <time>2013-01-04T15:33:12Z</time>
      </trkpt>
      <trkpt lat="48.63402" lon="-3.40073">
        <ele>96</ele>
        <time>2013-01-04T15:33:18Z</time>
      </trkpt>
      <trkpt lat="48.63405" lon="-3.40079">
        <ele>96</ele>
        <time>2013-01-04T15:33:24Z</time>
      </trkpt>
      <trkpt lat="48.63409" lon="-3.40085">
        <ele>96</ele>
        <time>2013-01-04T15:33:30Z</time>
      </trkpt>
      <trkpt lat="48.63413" lon="-3.40091">
        <ele>96</ele>
        <time>2013-01-04T15:33:36Z</time>
      </trkpt>
      <trkpt lat="48.63417" lon="-3.40095">
        <ele>96</ele>
        <time>2013-01-04T15:33:42Z</time>
      </trkpt>
      <trkpt lat="48.6342" lon="-3.40098">
        <ele>96</ele>
        <time>2013-01-04T15:33:48Z</time>
      </trkpt>
      <trkpt lat="48.63424" lon="-3.401">
        <ele>96</ele>
        <time>2013-01-04T15:33:54Z</time>
      </trkpt>
      <trkpt lat="48.63428" lon="-3.40104">
        <ele>96</ele>
        <time>2013-01-04T15:34:00Z</time>
      </trkpt>
      <trkpt lat="48.63432" lon="-3.40107">
        <ele>96</ele>
        <time>2013-01-04T15:34:06Z</time>
      </trkpt>
      <trkpt lat="48.63434" lon="-3.40109">
        <ele>96</ele>
        <time>2013-01-04T15:34:14Z</time>
      </trkpt>
      <trkpt lat="48.63437" lon="-3.4011">
        <ele>96</ele>
        <time>2013-01-04T15:34:19Z</time>
      </trkpt>
      <trkpt lat="48.6344" lon="-3.40111">
        <ele>96</ele>
        <time>2013-01-04T15:34:24Z</time>
      </trkpt>
      <trkpt lat="48.63443" lon="-3.40113">
        <ele>96</ele>
        <time>2013-01-04T15:34:30Z</time>
      </trkpt>
      <trkpt lat="48.63447" lon="-3.40117">
        <ele>96</ele>
        <time>2013-01-04T15:34:39Z</time>
      </trkpt>
      <trkpt lat="48.6345" lon="-3.4012">
        <ele>96</ele>
        <time>2013-01-04T15:34:45Z</time>
      </trkpt>
      <trkpt lat="48.63453" lon="-3.40121">
        <ele>96</ele>
        <time>2013-01-04T15:34:50Z</time>
      </trkpt>
      <trkpt lat="48.63458" lon="-3.40121">
        <ele>96</ele>
        <time>2013-01-04T15:34:56Z</time>
      </trkpt>
      <trkpt lat="48.63464" lon="-3.40123">
        <ele>96</ele>
        <time>2013-01-04T15:35:02Z</time>
      </trkpt>
      <trkpt lat="48.6347" lon="-3.40125">
        <ele>96</ele>
        <time>2013-01-04T15:35:08Z</time>
      </trkpt>
      <trkpt lat="48.63475" lon="-3.40125">
        <ele>96</ele>
        <time>2013-01-04T15:35:14Z</time>
      </trkpt>
      <trkpt lat="48.63479" lon="-3.40127">
        <ele>96</ele>
        <time>2013-01-04T15:35:20Z</time>
      </trkpt>
      <trkpt lat="48.63485" lon="-3.40128">
        <ele>96</ele>
        <time>2013-01-04T15:35:26Z</time>
      </trkpt>
      <trkpt lat="48.63489" lon="-3.4013">
        <ele>96</ele>
        <time>2013-01-04T15:35:31Z</time>
      </trkpt>
      <trkpt lat="48.63494" lon="-3.40131">
        <ele>96</ele>
        <time>2013-01-04T15:35:36Z</time>
      </trkpt>
      <trkpt lat="48.63499" lon="-3.40135">
        <ele>96</ele>
        <time>2013-01-04T15:35:41Z</time>
      </trkpt>
      <trkpt lat="48.63504" lon="-3.40138">
        <ele>96</ele>
        <time>2013-01-04T15:35:46Z</time>
      </trkpt>
      <trkpt lat="48.63511" lon="-3.4014">
        <ele>96</ele>
        <time>2013-01-04T15:35:51Z</time>
      </trkpt>
      <trkpt lat="48.63517" lon="-3.40142">
        <ele>96</ele>
        <time>2013-01-04T15:35:56Z</time>
      </trkpt>
      <trkpt lat="48.63522" lon="-3.40143">
        <ele>96</ele>
        <time>2013-01-04T15:36:01Z</time>
      </trkpt>
      <trkpt lat="48.63528" lon="-3.40143">
        <ele>94</ele>
        <time>2013-01-04T15:36:06Z</time>
      </trkpt>
      <trkpt lat="48.63533" lon="-3.40142">
        <ele>94</ele>
        <time>2013-01-04T15:36:11Z</time>
      </trkpt>
      <trkpt lat="48.63539" lon="-3.40141">
        <ele>94</ele>
        <time>2013-01-04T15:36:17Z</time>
      </trkpt>
      <trkpt lat="48.63544" lon="-3.4014">
        <ele>94</ele>
        <time>2013-01-04T15:36:22Z</time>
      </trkpt>
      <trkpt lat="48.63549" lon="-3.4014">
        <ele>94</ele>
        <time>2013-01-04T15:36:27Z</time>
      </trkpt>
      <trkpt lat="48.63556" lon="-3.4014">
        <ele>94</ele>
        <time>2013-01-04T15:36:33Z</time>
      </trkpt>
      <trkpt lat="48.63562" lon="-3.40141">
        <ele>94</ele>
        <time>2013-01-04T15:36:38Z</time>
      </trkpt>
      <trkpt lat="48.63568" lon="-3.40142">
        <ele>94</ele>
        <time>2013-01-04T15:36:45Z</time>
      </trkpt>
      <trkpt lat="48.63574" lon="-3.40143">
        <ele>94</ele>
        <time>2013-01-04T15:36:50Z</time>
      </trkpt>
      <trkpt lat="48.6358" lon="-3.40142">
        <ele>94</ele>
        <time>2013-01-04T15:36:55Z</time>
      </trkpt>
      <trkpt lat="48.63586" lon="-3.40143">
        <ele>94</ele>
        <time>2013-01-04T15:37:01Z</time>
      </trkpt>
      <trkpt lat="48.63591" lon="-3.40145">
        <ele>94</ele>
        <time>2013-01-04T15:37:07Z</time>
      </trkpt>
      <trkpt lat="48.63597" lon="-3.40147">
        <ele>94</ele>
        <time>2013-01-04T15:37:12Z</time>
      </trkpt>
      <trkpt lat="48.63604" lon="-3.40148">
        <ele>93</ele>
        <time>2013-01-04T15:37:18Z</time>
      </trkpt>
      <trkpt lat="48.63611" lon="-3.4015">
        <ele>92</ele>
        <time>2013-01-04T15:37:24Z</time>
      </trkpt>
      <trkpt lat="48.63617" lon="-3.40153">
        <ele>92</ele>
        <time>2013-01-04T15:37:29Z</time>
      </trkpt>
      <trkpt lat="48.63623" lon="-3.40154">
        <ele>92</ele>
        <time>2013-01-04T15:37:34Z</time>
      </trkpt>
      <trkpt lat="48.63628" lon="-3.40157">
        <ele>91</ele>
        <time>2013-01-04T15:37:39Z</time>
      </trkpt>
      <trkpt lat="48.63633" lon="-3.40161">
        <ele>90</ele>
        <time>2013-01-04T15:37:45Z</time>
      </trkpt>
      <trkpt lat="48.63638" lon="-3.40164">
        <ele>88</ele>
        <time>2013-01-04T15:37:50Z</time>
      </trkpt>
      <trkpt lat="48.63644" lon="-3.40169">
        <ele>87</ele>
        <time>2013-01-04T15:37:55Z</time>
      </trkpt>
      <trkpt lat="48.63648" lon="-3.40174">
        <ele>87</ele>
        <time>2013-01-04T15:38:00Z</time>
      </trkpt>
      <trkpt lat="48.63654" lon="-3.40178">
        <ele>87</ele>
        <time>2013-01-04T15:38:05Z</time>
      </trkpt>
      <trkpt lat="48.63659" lon="-3.40181">
        <ele>87</ele>
        <time>2013-01-04T15:38:10Z</time>
      </trkpt>
      <trkpt lat="48.63664" lon="-3.40187">
        <ele>85</ele>
        <time>2013-01-04T15:38:16Z</time>
      </trkpt>
      <trkpt lat="48.63669" lon="-3.40192">
        <ele>83</ele>
        <time>2013-01-04T15:38:23Z</time>
      </trkpt>
      <trkpt lat="48.63673" lon="-3.40195">
        <ele>83</ele>
        <time>2013-01-04T15:38:28Z</time>
      </trkpt>
      <trkpt lat="48.63679" lon="-3.40201">
        <ele>82</ele>
        <time>2013-01-04T15:38:33Z</time>
      </trkpt>
      <trkpt lat="48.63683" lon="-3.40207">
        <ele>81</ele>
        <time>2013-01-04T15:38:38Z</time>
      </trkpt>
      <trkpt lat="48.63688" lon="-3.40215">
        <ele>81</ele>
        <time>2013-01-04T15:38:44Z</time>
      </trkpt>
      <trkpt lat="48.63691" lon="-3.40224">
        <ele>81</ele>
        <time>2013-01-04T15:38:50Z</time>
      </trkpt>
      <trkpt lat="48.63695" lon="-3.40231">
        <ele>81</ele>
        <time>2013-01-04T15:38:56Z</time>
      </trkpt>
      <trkpt lat="48.63697" lon="-3.40238">
        <ele>81</ele>
        <time>2013-01-04T15:39:01Z</time>
      </trkpt>
      <trkpt lat="48.63701" lon="-3.40245">
        <ele>79</ele>
        <time>2013-01-04T15:39:07Z</time>
      </trkpt>
      <trkpt lat="48.63703" lon="-3.40251">
        <ele>78</ele>
        <time>2013-01-04T15:39:13Z</time>
      </trkpt>
      <trkpt lat="48.63704" lon="-3.4026">
        <ele>78</ele>
        <time>2013-01-04T15:39:18Z</time>
      </trkpt>
      <trkpt lat="48.63702" lon="-3.40271">
        <ele>78</ele>
        <time>2013-01-04T15:39:23Z</time>
      </trkpt>
      <trkpt lat="48.63701" lon="-3.40281">
        <ele>78</ele>
        <time>2013-01-04T15:39:29Z</time>
      </trkpt>
      <trkpt lat="48.63699" lon="-3.40289">
        <ele>78</ele>
        <time>2013-01-04T15:39:34Z</time>
      </trkpt>
      <trkpt lat="48.63695" lon="-3.40298">
        <ele>78</ele>
        <time>2013-01-04T15:39:40Z</time>
      </trkpt>
      <trkpt lat="48.63693" lon="-3.40304">
        <ele>78</ele>
        <time>2013-01-04T15:39:45Z</time>
      </trkpt>
      <trkpt lat="48.6369" lon="-3.40312">
        <ele>78</ele>
        <time>2013-01-04T15:39:51Z</time>
      </trkpt>
      <trkpt lat="48.63687" lon="-3.4032">
        <ele>78</ele>
        <time>2013-01-04T15:39:56Z</time>
      </trkpt>
      <trkpt lat="48.63685" lon="-3.40328">
        <ele>78</ele>
        <time>2013-01-04T15:40:01Z</time>
      </trkpt>
      <trkpt lat="48.63683" lon="-3.40336">
        <ele>78</ele>
        <time>2013-01-04T15:40:07Z</time>
      </trkpt>
      <trkpt lat="48.63681" lon="-3.40342">
        <ele>78</ele>
        <time>2013-01-04T15:40:13Z</time>
      </trkpt>
      <trkpt lat="48.63679" lon="-3.40351">
        <ele>78</ele>
        <time>2013-01-04T15:40:19Z</time>
      </trkpt>
      <trkpt lat="48.63677" lon="-3.4036">
        <ele>78</ele>
        <time>2013-01-04T15:40:24Z</time>
      </trkpt>
      <trkpt lat="48.63676" lon="-3.4037">
        <ele>78</ele>
        <time>2013-01-04T15:40:29Z</time>
      </trkpt>
      <trkpt lat="48.63676" lon="-3.40378">
        <ele>78</ele>
        <time>2013-01-04T15:40:34Z</time>
      </trkpt>
      <trkpt lat="48.63675" lon="-3.40389">
        <ele>78</ele>
        <time>2013-01-04T15:40:41Z</time>
      </trkpt>
      <trkpt lat="48.63672" lon="-3.40396">
        <ele>78</ele>
        <time>2013-01-04T15:40:47Z</time>
      </trkpt>
      <trkpt lat="48.6367" lon="-3.40403">
        <ele>77</ele>
        <time>2013-01-04T15:40:53Z</time>
      </trkpt>
      <trkpt lat="48.63668" lon="-3.40413">
        <ele>77</ele>
        <time>2013-01-04T15:40:59Z</time>
      </trkpt>
      <trkpt lat="48.63668" lon="-3.40423">
        <ele>77</ele>
        <time>2013-01-04T15:41:04Z</time>
      </trkpt>
      <trkpt lat="48.63668" lon="-3.40434">
        <ele>77</ele>
        <time>2013-01-04T15:41:12Z</time>
      </trkpt>
      <trkpt lat="48.63667" lon="-3.40443">
        <ele>79</ele>
        <time>2013-01-04T15:41:17Z</time>
      </trkpt>
      <trkpt lat="48.63665" lon="-3.40452">
        <ele>81</ele>
        <time>2013-01-04T15:41:23Z</time>
      </trkpt>
      <trkpt lat="48.63662" lon="-3.40458">
        <ele>81</ele>
        <time>2013-01-04T15:41:28Z</time>
      </trkpt>
      <trkpt lat="48.6366" lon="-3.40465">
        <ele>78</ele>
        <time>2013-01-04T15:41:34Z</time>
      </trkpt>
      <trkpt lat="48.63659" lon="-3.40471">
        <ele>77</ele>
        <time>2013-01-04T15:41:40Z</time>
      </trkpt>
      <trkpt lat="48.63659" lon="-3.40476">
        <ele>75</ele>
        <time>2013-01-04T15:41:48Z</time>
      </trkpt>
      <trkpt lat="48.63658" lon="-3.4048">
        <ele>75</ele>
        <time>2013-01-04T15:41:53Z</time>
      </trkpt>
      <trkpt lat="48.63656" lon="-3.40485">
        <ele>75</ele>
        <time>2013-01-04T15:42:01Z</time>
      </trkpt>
      <trkpt lat="48.63655" lon="-3.4049">
        <ele>75</ele>
        <time>2013-01-04T15:42:06Z</time>
      </trkpt>
      <trkpt lat="48.63653" lon="-3.40495">
        <ele>75</ele>
        <time>2013-01-04T15:42:12Z</time>
      </trkpt>
      <trkpt lat="48.63651" lon="-3.40503">
        <ele>72</ele>
        <time>2013-01-04T15:42:18Z</time>
      </trkpt>
      <trkpt lat="48.63649" lon="-3.40511">
        <ele>70</ele>
        <time>2013-01-04T15:42:24Z</time>
      </trkpt>
      <trkpt lat="48.63648" lon="-3.40518">
        <ele>69</ele>
        <time>2013-01-04T15:42:29Z</time>
      </trkpt>
      <trkpt lat="48.63646" lon="-3.40528">
        <ele>68</ele>
        <time>2013-01-04T15:42:35Z</time>
      </trkpt>
      <trkpt lat="48.63645" lon="-3.40536">
        <ele>67</ele>
        <time>2013-01-04T15:42:41Z</time>
      </trkpt>
      <trkpt lat="48.63643" lon="-3.40544">
        <ele>67</ele>
        <time>2013-01-04T15:42:46Z</time>
      </trkpt>
      <trkpt lat="48.63642" lon="-3.40551">
        <ele>66</ele>
        <time>2013-01-04T15:42:52Z</time>
      </trkpt>
      <trkpt lat="48.63646" lon="-3.4055">
        <ele>66</ele>
        <time>2013-01-04T15:42:59Z</time>
      </trkpt>
      <trkpt lat="48.63649" lon="-3.40545">
        <ele>66</ele>
        <time>2013-01-04T15:43:04Z</time>
      </trkpt>
      <trkpt lat="48.63654" lon="-3.40538">
        <ele>66</ele>
        <time>2013-01-04T15:43:10Z</time>
      </trkpt>
      <trkpt lat="48.63658" lon="-3.40532">
        <ele>66</ele>
        <time>2013-01-04T15:43:15Z</time>
      </trkpt>
      <trkpt lat="48.63661" lon="-3.40526">
        <ele>66</ele>
        <time>2013-01-04T15:43:21Z</time>
      </trkpt>
      <trkpt lat="48.63667" lon="-3.40519">
        <ele>66</ele>
        <time>2013-01-04T15:43:27Z</time>
      </trkpt>
      <trkpt lat="48.63673" lon="-3.40514">
        <ele>66</ele>
        <time>2013-01-04T15:43:32Z</time>
      </trkpt>
      <trkpt lat="48.6368" lon="-3.4051">
        <ele>66</ele>
        <time>2013-01-04T15:43:38Z</time>
      </trkpt>
      <trkpt lat="48.63685" lon="-3.40505">
        <ele>67</ele>
        <time>2013-01-04T15:43:43Z</time>
      </trkpt>
      <trkpt lat="48.63691" lon="-3.40501">
        <ele>68</ele>
        <time>2013-01-04T15:43:48Z</time>
      </trkpt>
      <trkpt lat="48.63697" lon="-3.40496">
        <ele>71</ele>
        <time>2013-01-04T15:43:53Z</time>
      </trkpt>
      <trkpt lat="48.63705" lon="-3.40492">
        <ele>74</ele>
        <time>2013-01-04T15:43:58Z</time>
      </trkpt>
      <trkpt lat="48.6371" lon="-3.40485">
        <ele>74</ele>
        <time>2013-01-04T15:44:04Z</time>
      </trkpt>
      <trkpt lat="48.63714" lon="-3.40481">
        <ele>74</ele>
        <time>2013-01-04T15:44:09Z</time>
      </trkpt>
      <trkpt lat="48.63719" lon="-3.40479">
        <ele>74</ele>
        <time>2013-01-04T15:44:14Z</time>
      </trkpt>
      <trkpt lat="48.63721" lon="-3.40475">
        <ele>74</ele>
        <time>2013-01-04T15:44:20Z</time>
      </trkpt>
      <trkpt lat="48.63728" lon="-3.40471">
        <ele>74</ele>
        <time>2013-01-04T15:44:25Z</time>
      </trkpt>
      <trkpt lat="48.63732" lon="-3.4047">
        <ele>75</ele>
        <time>2013-01-04T15:44:30Z</time>
      </trkpt>
      <trkpt lat="48.63736" lon="-3.40472">
        <ele>75</ele>
        <time>2013-01-04T15:44:35Z</time>
      </trkpt>
      <trkpt lat="48.6374" lon="-3.40475">
        <ele>75</ele>
        <time>2013-01-04T15:44:41Z</time>
      </trkpt>
      <trkpt lat="48.63744" lon="-3.40479">
        <ele>75</ele>
        <time>2013-01-04T15:44:47Z</time>
      </trkpt>
      <trkpt lat="48.63749" lon="-3.40485">
        <ele>75</ele>
        <time>2013-01-04T15:44:53Z</time>
      </trkpt>
      <trkpt lat="48.63755" lon="-3.40486">
        <ele>75</ele>
        <time>2013-01-04T15:44:59Z</time>
      </trkpt>
      <trkpt lat="48.63759" lon="-3.4049">
        <ele>74</ele>
        <time>2013-01-04T15:45:06Z</time>
      </trkpt>
      <trkpt lat="48.63763" lon="-3.40492">
        <ele>74</ele>
        <time>2013-01-04T15:45:13Z</time>
      </trkpt>
      <trkpt lat="48.63767" lon="-3.40494">
        <ele>74</ele>
        <time>2013-01-04T15:45:19Z</time>
      </trkpt>
      <trkpt lat="48.63773" lon="-3.40496">
        <ele>74</ele>
        <time>2013-01-04T15:45:25Z</time>
      </trkpt>
      <trkpt lat="48.63778" lon="-3.40496">
        <ele>74</ele>
        <time>2013-01-04T15:45:30Z</time>
      </trkpt>
      <trkpt lat="48.63784" lon="-3.40495">
        <ele>74</ele>
        <time>2013-01-04T15:45:36Z</time>
      </trkpt>
      <trkpt lat="48.63789" lon="-3.40496">
        <ele>73</ele>
        <time>2013-01-04T15:45:41Z</time>
      </trkpt>
      <trkpt lat="48.63794" lon="-3.40498">
        <ele>73</ele>
        <time>2013-01-04T15:45:46Z</time>
      </trkpt>
      <trkpt lat="48.63799" lon="-3.40499">
        <ele>73</ele>
        <time>2013-01-04T15:45:51Z</time>
      </trkpt>
      <trkpt lat="48.63805" lon="-3.405">
        <ele>73</ele>
        <time>2013-01-04T15:45:57Z</time>
      </trkpt>
      <trkpt lat="48.63809" lon="-3.40503">
        <ele>73</ele>
        <time>2013-01-04T15:46:03Z</time>
      </trkpt>
      <trkpt lat="48.63811" lon="-3.40505">
        <ele>73</ele>
        <time>2013-01-04T15:46:09Z</time>
      </trkpt>
      <trkpt lat="48.63814" lon="-3.40503">
        <ele>73</ele>
        <time>2013-01-04T15:46:17Z</time>
      </trkpt>
      <trkpt lat="48.63817" lon="-3.40503">
        <ele>73</ele>
        <time>2013-01-04T15:46:22Z</time>
      </trkpt>
      <trkpt lat="48.63821" lon="-3.40503">
        <ele>73</ele>
        <time>2013-01-04T15:46:27Z</time>
      </trkpt>
      <trkpt lat="48.63825" lon="-3.40503">
        <ele>73</ele>
        <time>2013-01-04T15:46:32Z</time>
      </trkpt>
      <trkpt lat="48.6383" lon="-3.40505">
        <ele>73</ele>
        <time>2013-01-04T15:46:38Z</time>
      </trkpt>
      <trkpt lat="48.63831" lon="-3.40509">
        <ele>73</ele>
        <time>2013-01-04T15:46:43Z</time>
      </trkpt>
      <trkpt lat="48.63834" lon="-3.40517">
        <ele>73</ele>
        <time>2013-01-04T15:46:49Z</time>
      </trkpt>
      <trkpt lat="48.63834" lon="-3.40526">
        <ele>73</ele>
        <time>2013-01-04T15:46:54Z</time>
      </trkpt>
      <trkpt lat="48.63835" lon="-3.40532">
        <ele>73</ele>
        <time>2013-01-04T15:46:59Z</time>
      </trkpt>
      <trkpt lat="48.63838" lon="-3.40539">
        <ele>73</ele>
        <time>2013-01-04T15:47:05Z</time>
      </trkpt>
      <trkpt lat="48.63841" lon="-3.40546">
        <ele>73</ele>
        <time>2013-01-04T15:47:10Z</time>
      </trkpt>
      <trkpt lat="48.63845" lon="-3.40554">
        <ele>73</ele>
        <time>2013-01-04T15:47:16Z</time>
      </trkpt>
      <trkpt lat="48.6385" lon="-3.40562">
        <ele>73</ele>
        <time>2013-01-04T15:47:22Z</time>
      </trkpt>
      <trkpt lat="48.63853" lon="-3.4057">
        <ele>73</ele>
        <time>2013-01-04T15:47:27Z</time>
      </trkpt>
      <trkpt lat="48.63857" lon="-3.40578">
        <ele>73</ele>
        <time>2013-01-04T15:47:33Z</time>
      </trkpt>
      <trkpt lat="48.63859" lon="-3.40587">
        <ele>73</ele>
        <time>2013-01-04T15:47:38Z</time>
      </trkpt>
      <trkpt lat="48.63862" lon="-3.40596">
        <ele>73</ele>
        <time>2013-01-04T15:47:43Z</time>
      </trkpt>
      <trkpt lat="48.63866" lon="-3.40604">
        <ele>73</ele>
        <time>2013-01-04T15:47:49Z</time>
      </trkpt>
      <trkpt lat="48.63868" lon="-3.40616">
        <ele>73</ele>
        <time>2013-01-04T15:47:55Z</time>
      </trkpt>
      <trkpt lat="48.63871" lon="-3.40626">
        <ele>74</ele>
        <time>2013-01-04T15:48:01Z</time>
      </trkpt>
      <trkpt lat="48.63873" lon="-3.40634">
        <ele>75</ele>
        <time>2013-01-04T15:48:06Z</time>
      </trkpt>
      <trkpt lat="48.63876" lon="-3.40642">
        <ele>75</ele>
        <time>2013-01-04T15:48:12Z</time>
      </trkpt>
      <trkpt lat="48.63878" lon="-3.4065">
        <ele>75</ele>
        <time>2013-01-04T15:48:17Z</time>
      </trkpt>
      <trkpt lat="48.63878" lon="-3.40659">
        <ele>75</ele>
        <time>2013-01-04T15:48:23Z</time>
      </trkpt>
      <trkpt lat="48.63881" lon="-3.40666">
        <ele>75</ele>
        <time>2013-01-04T15:48:29Z</time>
      </trkpt>
      <trkpt lat="48.63882" lon="-3.4067">
        <ele>75</ele>
        <time>2013-01-04T15:48:34Z</time>
      </trkpt>
      <trkpt lat="48.63882" lon="-3.40675">
        <ele>75</ele>
        <time>2013-01-04T15:48:39Z</time>
      </trkpt>
      <trkpt lat="48.63884" lon="-3.40679">
        <ele>75</ele>
        <time>2013-01-04T15:48:46Z</time>
      </trkpt>
      <trkpt lat="48.63883" lon="-3.40681">
        <ele>76</ele>
        <time>2013-01-04T15:48:53Z</time>
      </trkpt>
      <trkpt lat="48.63884" lon="-3.40684">
        <ele>77</ele>
        <time>2013-01-04T15:49:09Z</time>
      </trkpt>
      <trkpt lat="48.63884" lon="-3.40688">
        <ele>77</ele>
        <time>2013-01-04T15:49:17Z</time>
      </trkpt>
      <trkpt lat="48.63883" lon="-3.40693">
        <ele>77</ele>
        <time>2013-01-04T15:49:26Z</time>
      </trkpt>
      <trkpt lat="48.63882" lon="-3.40697">
        <ele>77</ele>
        <time>2013-01-04T15:49:32Z</time>
      </trkpt>
      <trkpt lat="48.63882" lon="-3.40701">
        <ele>77</ele>
        <time>2013-01-04T15:49:39Z</time>
      </trkpt>
      <trkpt lat="48.63882" lon="-3.40703">
        <ele>77</ele>
        <time>2013-01-04T15:49:44Z</time>
      </trkpt>
      <trkpt lat="48.63882" lon="-3.40705">
        <ele>77</ele>
        <time>2013-01-04T15:49:52Z</time>
      </trkpt>
      <trkpt lat="48.63882" lon="-3.40708">
        <ele>77</ele>
        <time>2013-01-04T15:50:00Z</time>
      </trkpt>
      <trkpt lat="48.63881" lon="-3.40711">
        <ele>77</ele>
        <time>2013-01-04T15:50:07Z</time>
      </trkpt>
      <trkpt lat="48.63882" lon="-3.40714">
        <ele>77</ele>
        <time>2013-01-04T15:50:13Z</time>
      </trkpt>
      <trkpt lat="48.6388" lon="-3.40717">
        <ele>77</ele>
        <time>2013-01-04T15:50:21Z</time>
      </trkpt>
      <trkpt lat="48.6388" lon="-3.40719">
        <ele>77</ele>
        <time>2013-01-04T15:50:26Z</time>
      </trkpt>
      <trkpt lat="48.63881" lon="-3.40719">
        <ele>76</ele>
        <time>2013-01-04T15:50:36Z</time>
      </trkpt>
      <trkpt lat="48.63879" lon="-3.40725">
        <ele>76</ele>
        <time>2013-01-04T15:50:42Z</time>
      </trkpt>
      <trkpt lat="48.63878" lon="-3.40729">
        <ele>76</ele>
        <time>2013-01-04T15:50:47Z</time>
      </trkpt>
      <trkpt lat="48.63877" lon="-3.40735">
        <ele>76</ele>
        <time>2013-01-04T15:50:52Z</time>
      </trkpt>
      <trkpt lat="48.63876" lon="-3.40739">
        <ele>76</ele>
        <time>2013-01-04T15:50:57Z</time>
      </trkpt>
      <trkpt lat="48.63873" lon="-3.40743">
        <ele>76</ele>
        <time>2013-01-04T15:51:02Z</time>
      </trkpt>
      <trkpt lat="48.63868" lon="-3.40747">
        <ele>76</ele>
        <time>2013-01-04T15:51:07Z</time>
      </trkpt>
      <trkpt lat="48.63862" lon="-3.40751">
        <ele>76</ele>
        <time>2013-01-04T15:51:12Z</time>
      </trkpt>
      <trkpt lat="48.63856" lon="-3.40756">
        <ele>76</ele>
        <time>2013-01-04T15:51:17Z</time>
      </trkpt>
      <trkpt lat="48.63851" lon="-3.40761">
        <ele>75</ele>
        <time>2013-01-04T15:51:22Z</time>
      </trkpt>
      <trkpt lat="48.63846" lon="-3.40767">
        <ele>74</ele>
        <time>2013-01-04T15:51:28Z</time>
      </trkpt>
      <trkpt lat="48.63843" lon="-3.40775">
        <ele>73</ele>
        <time>2013-01-04T15:51:33Z</time>
      </trkpt>
      <trkpt lat="48.6384" lon="-3.40781">
        <ele>72</ele>
        <time>2013-01-04T15:51:38Z</time>
      </trkpt>
      <trkpt lat="48.63836" lon="-3.4079">
        <ele>72</ele>
        <time>2013-01-04T15:51:44Z</time>
      </trkpt>
      <trkpt lat="48.63831" lon="-3.40797">
        <ele>71</ele>
        <time>2013-01-04T15:51:50Z</time>
      </trkpt>
      <trkpt lat="48.63827" lon="-3.40802">
        <ele>71</ele>
        <time>2013-01-04T15:51:55Z</time>
      </trkpt>
      <trkpt lat="48.63821" lon="-3.40805">
        <ele>70</ele>
        <time>2013-01-04T15:52:00Z</time>
      </trkpt>
      <trkpt lat="48.63817" lon="-3.40809">
        <ele>70</ele>
        <time>2013-01-04T15:52:05Z</time>
      </trkpt>
      <trkpt lat="48.63814" lon="-3.40816">
        <ele>69</ele>
        <time>2013-01-04T15:52:11Z</time>
      </trkpt>
      <trkpt lat="48.63811" lon="-3.40823">
        <ele>69</ele>
        <time>2013-01-04T15:52:17Z</time>
      </trkpt>
      <trkpt lat="48.63808" lon="-3.40829">
        <ele>68</ele>
        <time>2013-01-04T15:52:23Z</time>
      </trkpt>
      <trkpt lat="48.63805" lon="-3.40836">
        <ele>67</ele>
        <time>2013-01-04T15:52:29Z</time>
      </trkpt>
      <trkpt lat="48.638" lon="-3.40843">
        <ele>67</ele>
        <time>2013-01-04T15:52:35Z</time>
      </trkpt>
      <trkpt lat="48.63796" lon="-3.4085">
        <ele>66</ele>
        <time>2013-01-04T15:52:41Z</time>
      </trkpt>
      <trkpt lat="48.63793" lon="-3.40857">
        <ele>66</ele>
        <time>2013-01-04T15:52:47Z</time>
      </trkpt>
      <trkpt lat="48.6379" lon="-3.40865">
        <ele>66</ele>
        <time>2013-01-04T15:52:53Z</time>
      </trkpt>
      <trkpt lat="48.63788" lon="-3.40872">
        <ele>66</ele>
        <time>2013-01-04T15:52:58Z</time>
      </trkpt>
      <trkpt lat="48.63786" lon="-3.40879">
        <ele>66</ele>
        <time>2013-01-04T15:53:04Z</time>
      </trkpt>
      <trkpt lat="48.63783" lon="-3.40887">
        <ele>66</ele>
        <time>2013-01-04T15:53:10Z</time>
      </trkpt>
      <trkpt lat="48.63782" lon="-3.40895">
        <ele>65</ele>
        <time>2013-01-04T15:53:15Z</time>
      </trkpt>
      <trkpt lat="48.6378" lon="-3.40902">
        <ele>64</ele>
        <time>2013-01-04T15:53:21Z</time>
      </trkpt>
      <trkpt lat="48.63778" lon="-3.4091">
        <ele>63</ele>
        <time>2013-01-04T15:53:26Z</time>
      </trkpt>
      <trkpt lat="48.63776" lon="-3.40917">
        <ele>63</ele>
        <time>2013-01-04T15:53:31Z</time>
      </trkpt>
      <trkpt lat="48.63772" lon="-3.40926">
        <ele>63</ele>
        <time>2013-01-04T15:53:36Z</time>
      </trkpt>
      <trkpt lat="48.6377" lon="-3.40934">
        <ele>63</ele>
        <time>2013-01-04T15:53:42Z</time>
      </trkpt>
      <trkpt lat="48.63769" lon="-3.40942">
        <ele>62</ele>
        <time>2013-01-04T15:53:47Z</time>
      </trkpt>
      <trkpt lat="48.63767" lon="-3.40949">
        <ele>61</ele>
        <time>2013-01-04T15:53:52Z</time>
      </trkpt>
      <trkpt lat="48.63765" lon="-3.40956">
        <ele>61</ele>
        <time>2013-01-04T15:53:57Z</time>
      </trkpt>
      <trkpt lat="48.63765" lon="-3.40963">
        <ele>61</ele>
        <time>2013-01-04T15:54:03Z</time>
      </trkpt>
      <trkpt lat="48.63763" lon="-3.40971">
        <ele>63</ele>
        <time>2013-01-04T15:54:08Z</time>
      </trkpt>
      <trkpt lat="48.63762" lon="-3.40979">
        <ele>64</ele>
        <time>2013-01-04T15:54:13Z</time>
      </trkpt>
      <trkpt lat="48.63758" lon="-3.40985">
        <ele>64</ele>
        <time>2013-01-04T15:54:18Z</time>
      </trkpt>
      <trkpt lat="48.63753" lon="-3.4099">
        <ele>64</ele>
        <time>2013-01-04T15:54:24Z</time>
      </trkpt>
      <trkpt lat="48.63747" lon="-3.40999">
        <ele>64</ele>
        <time>2013-01-04T15:54:30Z</time>
      </trkpt>
      <trkpt lat="48.63741" lon="-3.41003">
        <ele>63</ele>
        <time>2013-01-04T15:54:36Z</time>
      </trkpt>
      <trkpt lat="48.63736" lon="-3.41009">
        <ele>63</ele>
        <time>2013-01-04T15:54:41Z</time>
      </trkpt>
      <trkpt lat="48.63731" lon="-3.41015">
        <ele>61</ele>
        <time>2013-01-04T15:54:46Z</time>
      </trkpt>
      <trkpt lat="48.63726" lon="-3.41021">
        <ele>57</ele>
        <time>2013-01-04T15:54:53Z</time>
      </trkpt>
      <trkpt lat="48.63721" lon="-3.41023">
        <ele>56</ele>
        <time>2013-01-04T15:54:59Z</time>
      </trkpt>
      <trkpt lat="48.63717" lon="-3.41026">
        <ele>56</ele>
        <time>2013-01-04T15:55:05Z</time>
      </trkpt>
      <trkpt lat="48.63712" lon="-3.41029">
        <ele>56</ele>
        <time>2013-01-04T15:55:10Z</time>
      </trkpt>
      <trkpt lat="48.63707" lon="-3.41033">
        <ele>56</ele>
        <time>2013-01-04T15:55:15Z</time>
      </trkpt>
      <trkpt lat="48.63706" lon="-3.4104">
        <ele>59</ele>
        <time>2013-01-04T15:55:20Z</time>
      </trkpt>
      <trkpt lat="48.63704" lon="-3.41049">
        <ele>62</ele>
        <time>2013-01-04T15:55:25Z</time>
      </trkpt>
      <trkpt lat="48.63702" lon="-3.41053">
        <ele>64</ele>
        <time>2013-01-04T15:55:30Z</time>
      </trkpt>
      <trkpt lat="48.63702" lon="-3.4106">
        <ele>64</ele>
        <time>2013-01-04T15:55:35Z</time>
      </trkpt>
      <trkpt lat="48.63697" lon="-3.41066">
        <ele>64</ele>
        <time>2013-01-04T15:55:40Z</time>
      </trkpt>
      <trkpt lat="48.63694" lon="-3.41074">
        <ele>64</ele>
        <time>2013-01-04T15:55:46Z</time>
      </trkpt>
      <trkpt lat="48.63691" lon="-3.41083">
        <ele>62</ele>
        <time>2013-01-04T15:55:52Z</time>
      </trkpt>
      <trkpt lat="48.63689" lon="-3.4109">
        <ele>60</ele>
        <time>2013-01-04T15:55:58Z</time>
      </trkpt>
      <trkpt lat="48.63684" lon="-3.41098">
        <ele>58</ele>
        <time>2013-01-04T15:56:04Z</time>
      </trkpt>
      <trkpt lat="48.6368" lon="-3.41105">
        <ele>56</ele>
        <time>2013-01-04T15:56:10Z</time>
      </trkpt>
      <trkpt lat="48.63675" lon="-3.41111">
        <ele>54</ele>
        <time>2013-01-04T15:56:15Z</time>
      </trkpt>
      <trkpt lat="48.6367" lon="-3.41118">
        <ele>52</ele>
        <time>2013-01-04T15:56:21Z</time>
      </trkpt>
      <trkpt lat="48.63666" lon="-3.41125">
        <ele>51</ele>
        <time>2013-01-04T15:56:27Z</time>
      </trkpt>
      <trkpt lat="48.63661" lon="-3.41131">
        <ele>51</ele>
        <time>2013-01-04T15:56:33Z</time>
      </trkpt>
      <trkpt lat="48.63658" lon="-3.41138">
        <ele>51</ele>
        <time>2013-01-04T15:56:38Z</time>
      </trkpt>
      <trkpt lat="48.63654" lon="-3.41145">
        <ele>50</ele>
        <time>2013-01-04T15:56:44Z</time>
      </trkpt>
      <trkpt lat="48.63649" lon="-3.41153">
        <ele>50</ele>
        <time>2013-01-04T15:56:49Z</time>
      </trkpt>
      <trkpt lat="48.63647" lon="-3.41161">
        <ele>49</ele>
        <time>2013-01-04T15:56:54Z</time>
      </trkpt>
      <trkpt lat="48.63647" lon="-3.41171">
        <ele>47</ele>
        <time>2013-01-04T15:56:59Z</time>
      </trkpt>
      <trkpt lat="48.63654" lon="-3.41179">
        <ele>46</ele>
        <time>2013-01-04T15:57:05Z</time>
      </trkpt>
      <trkpt lat="48.63655" lon="-3.41188">
        <ele>45</ele>
        <time>2013-01-04T15:57:10Z</time>
      </trkpt>
      <trkpt lat="48.63658" lon="-3.41195">
        <ele>45</ele>
        <time>2013-01-04T15:57:15Z</time>
      </trkpt>
      <trkpt lat="48.6366" lon="-3.41206">
        <ele>45</ele>
        <time>2013-01-04T15:57:21Z</time>
      </trkpt>
      <trkpt lat="48.6366" lon="-3.41216">
        <ele>45</ele>
        <time>2013-01-04T15:57:26Z</time>
      </trkpt>
      <trkpt lat="48.63662" lon="-3.41226">
        <ele>45</ele>
        <time>2013-01-04T15:57:32Z</time>
      </trkpt>
      <trkpt lat="48.63663" lon="-3.41235">
        <ele>45</ele>
        <time>2013-01-04T15:57:38Z</time>
      </trkpt>
      <trkpt lat="48.63665" lon="-3.41245">
        <ele>45</ele>
        <time>2013-01-04T15:57:43Z</time>
      </trkpt>
      <trkpt lat="48.63667" lon="-3.41255">
        <ele>45</ele>
        <time>2013-01-04T15:57:48Z</time>
      </trkpt>
      <trkpt lat="48.63671" lon="-3.4126">
        <ele>43</ele>
        <time>2013-01-04T15:57:53Z</time>
      </trkpt>
      <trkpt lat="48.63675" lon="-3.41266">
        <ele>43</ele>
        <time>2013-01-04T15:57:59Z</time>
      </trkpt>
      <trkpt lat="48.6368" lon="-3.41272">
        <ele>42</ele>
        <time>2013-01-04T15:58:05Z</time>
      </trkpt>
      <trkpt lat="48.63685" lon="-3.41274">
        <ele>42</ele>
        <time>2013-01-04T15:58:10Z</time>
      </trkpt>
      <trkpt lat="48.63689" lon="-3.41273">
        <ele>42</ele>
        <time>2013-01-04T15:58:15Z</time>
      </trkpt>
      <trkpt lat="48.63696" lon="-3.41267">
        <ele>42</ele>
        <time>2013-01-04T15:58:21Z</time>
      </trkpt>
      <trkpt lat="48.637" lon="-3.4126">
        <ele>42</ele>
        <time>2013-01-04T15:58:27Z</time>
      </trkpt>
      <trkpt lat="48.63703" lon="-3.41256">
        <ele>42</ele>
        <time>2013-01-04T15:58:32Z</time>
      </trkpt>
      <trkpt lat="48.63706" lon="-3.41249">
        <ele>42</ele>
        <time>2013-01-04T15:58:38Z</time>
      </trkpt>
      <trkpt lat="48.6371" lon="-3.41242">
        <ele>42</ele>
        <time>2013-01-04T15:58:44Z</time>
      </trkpt>
      <trkpt lat="48.63714" lon="-3.41235">
        <ele>42</ele>
        <time>2013-01-04T15:58:50Z</time>
      </trkpt>
      <trkpt lat="48.63718" lon="-3.4123">
        <ele>42</ele>
        <time>2013-01-04T15:58:55Z</time>
      </trkpt>
      <trkpt lat="48.63722" lon="-3.41223">
        <ele>45</ele>
        <time>2013-01-04T15:59:00Z</time>
      </trkpt>
      <trkpt lat="48.63726" lon="-3.41218">
        <ele>46</ele>
        <time>2013-01-04T15:59:06Z</time>
      </trkpt>
      <trkpt lat="48.63732" lon="-3.41215">
        <ele>48</ele>
        <time>2013-01-04T15:59:12Z</time>
      </trkpt>
      <trkpt lat="48.63738" lon="-3.41214">
        <ele>49</ele>
        <time>2013-01-04T15:59:17Z</time>
      </trkpt>
      <trkpt lat="48.63744" lon="-3.41212">
        <ele>51</ele>
        <time>2013-01-04T15:59:22Z</time>
      </trkpt>
      <trkpt lat="48.63749" lon="-3.41211">
        <ele>51</ele>
        <time>2013-01-04T15:59:28Z</time>
      </trkpt>
      <trkpt lat="48.63754" lon="-3.41209">
        <ele>51</ele>
        <time>2013-01-04T15:59:34Z</time>
      </trkpt>
      <trkpt lat="48.63759" lon="-3.41204">
        <ele>51</ele>
        <time>2013-01-04T15:59:40Z</time>
      </trkpt>
      <trkpt lat="48.63763" lon="-3.41198">
        <ele>51</ele>
        <time>2013-01-04T15:59:46Z</time>
      </trkpt>
      <trkpt lat="48.63767" lon="-3.41193">
        <ele>51</ele>
        <time>2013-01-04T15:59:52Z</time>
      </trkpt>
      <trkpt lat="48.63772" lon="-3.41185">
        <ele>53</ele>
        <time>2013-01-04T15:59:58Z</time>
      </trkpt>
      <trkpt lat="48.63774" lon="-3.41178">
        <ele>53</ele>
        <time>2013-01-04T16:00:04Z</time>
      </trkpt>
      <trkpt lat="48.63778" lon="-3.41172">
        <ele>53</ele>
        <time>2013-01-04T16:00:10Z</time>
      </trkpt>
      <trkpt lat="48.6378" lon="-3.41168">
        <ele>56</ele>
        <time>2013-01-04T16:00:15Z</time>
      </trkpt>
      <trkpt lat="48.63782" lon="-3.41163">
        <ele>57</ele>
        <time>2013-01-04T16:00:20Z</time>
      </trkpt>
      <trkpt lat="48.63785" lon="-3.41156">
        <ele>57</ele>
        <time>2013-01-04T16:00:26Z</time>
      </trkpt>
      <trkpt lat="48.63789" lon="-3.41148">
        <ele>58</ele>
        <time>2013-01-04T16:00:32Z</time>
      </trkpt>
      <trkpt lat="48.63792" lon="-3.41142">
        <ele>58</ele>
        <time>2013-01-04T16:00:38Z</time>
      </trkpt>
      <trkpt lat="48.63795" lon="-3.41136">
        <ele>58</ele>
        <time>2013-01-04T16:00:44Z</time>
      </trkpt>
      <trkpt lat="48.638" lon="-3.41131">
        <ele>58</ele>
        <time>2013-01-04T16:00:50Z</time>
      </trkpt>
      <trkpt lat="48.63803" lon="-3.41125">
        <ele>58</ele>
        <time>2013-01-04T16:00:55Z</time>
      </trkpt>
      <trkpt lat="48.63808" lon="-3.4112">
        <ele>58</ele>
        <time>2013-01-04T16:01:00Z</time>
      </trkpt>
      <trkpt lat="48.63813" lon="-3.41113">
        <ele>58</ele>
        <time>2013-01-04T16:01:06Z</time>
      </trkpt>
      <trkpt lat="48.63815" lon="-3.41108">
        <ele>61</ele>
        <time>2013-01-04T16:01:11Z</time>
      </trkpt>
      <trkpt lat="48.63818" lon="-3.41101">
        <ele>65</ele>
        <time>2013-01-04T16:01:16Z</time>
      </trkpt>
      <trkpt lat="48.63822" lon="-3.41093">
        <ele>67</ele>
        <time>2013-01-04T16:01:22Z</time>
      </trkpt>
      <trkpt lat="48.63825" lon="-3.41087">
        <ele>67</ele>
        <time>2013-01-04T16:01:28Z</time>
      </trkpt>
      <trkpt lat="48.63831" lon="-3.41082">
        <ele>67</ele>
        <time>2013-01-04T16:01:34Z</time>
      </trkpt>
      <trkpt lat="48.63832" lon="-3.41081">
        <ele>67</ele>
        <time>2013-01-04T16:01:41Z</time>
      </trkpt>
      <trkpt lat="48.63835" lon="-3.4108">
        <ele>67</ele>
        <time>2013-01-04T16:01:48Z</time>
      </trkpt>
      <trkpt lat="48.63836" lon="-3.41079">
        <ele>67</ele>
        <time>2013-01-04T16:01:56Z</time>
      </trkpt>
      <trkpt lat="48.63837" lon="-3.41079">
        <ele>67</ele>
        <time>2013-01-04T16:02:04Z</time>
      </trkpt>
      <trkpt lat="48.63838" lon="-3.41079">
        <ele>67</ele>
        <time>2013-01-04T16:02:09Z</time>
      </trkpt>
      <trkpt lat="48.63839" lon="-3.41078">
        <ele>69</ele>
        <time>2013-01-04T16:02:14Z</time>
      </trkpt>
      <trkpt lat="48.63841" lon="-3.41077">
        <ele>70</ele>
        <time>2013-01-04T16:02:24Z</time>
      </trkpt>
      <trkpt lat="48.63842" lon="-3.41075">
        <ele>72</ele>
        <time>2013-01-04T16:02:39Z</time>
      </trkpt>
      <trkpt lat="48.63842" lon="-3.41073">
        <ele>74</ele>
        <time>2013-01-04T16:02:47Z</time>
      </trkpt>
      <trkpt lat="48.6384" lon="-3.41073">
        <ele>74</ele>
        <time>2013-01-04T16:02:59Z</time>
      </trkpt>
      <trkpt lat="48.63837" lon="-3.41074">
        <ele>74</ele>
        <time>2013-01-04T16:03:06Z</time>
      </trkpt>
      <trkpt lat="48.63837" lon="-3.41074">
        <ele>77</ele>
        <time>2013-01-04T16:03:15Z</time>
      </trkpt>
      <trkpt lat="48.6384" lon="-3.41076">
        <ele>79</ele>
        <time>2013-01-04T16:03:20Z</time>
      </trkpt>
      <trkpt lat="48.63841" lon="-3.41074">
        <ele>79</ele>
        <time>2013-01-04T16:03:28Z</time>
      </trkpt>
      <trkpt lat="48.63843" lon="-3.41073">
        <ele>75</ele>
        <time>2013-01-04T16:04:02Z</time>
      </trkpt>
      <trkpt lat="48.63845" lon="-3.4107">
        <ele>75</ele>
        <time>2013-01-04T16:04:10Z</time>
      </trkpt>
      <trkpt lat="48.63847" lon="-3.41065">
        <ele>75</ele>
        <time>2013-01-04T16:04:16Z</time>
      </trkpt>
      <trkpt lat="48.63848" lon="-3.41063">
        <ele>74</ele>
        <time>2013-01-04T16:04:23Z</time>
      </trkpt>
      <trkpt lat="48.6385" lon="-3.41062">
        <ele>74</ele>
        <time>2013-01-04T16:04:41Z</time>
      </trkpt>
      <trkpt lat="48.6385" lon="-3.41061">
        <ele>74</ele>
        <time>2013-01-04T16:04:56Z</time>
      </trkpt>
      <trkpt lat="48.63851" lon="-3.41062">
        <ele>75</ele>
        <time>2013-01-04T16:05:04Z</time>
      </trkpt>
      <trkpt lat="48.63855" lon="-3.41063">
        <ele>75</ele>
        <time>2013-01-04T16:05:09Z</time>
      </trkpt>
      <trkpt lat="48.63857" lon="-3.41067">
        <ele>75</ele>
        <time>2013-01-04T16:05:14Z</time>
      </trkpt>
      <trkpt lat="48.63859" lon="-3.41071">
        <ele>75</ele>
        <time>2013-01-04T16:05:19Z</time>
      </trkpt>
      <trkpt lat="48.6386" lon="-3.41074">
        <ele>75</ele>
        <time>2013-01-04T16:05:24Z</time>
      </trkpt>
      <trkpt lat="48.63861" lon="-3.41078">
        <ele>73</ele>
        <time>2013-01-04T16:05:29Z</time>
      </trkpt>
      <trkpt lat="48.63861" lon="-3.41083">
        <ele>73</ele>
        <time>2013-01-04T16:05:34Z</time>
      </trkpt>
      <trkpt lat="48.63864" lon="-3.41086">
        <ele>72</ele>
        <time>2013-01-04T16:05:39Z</time>
      </trkpt>
      <trkpt lat="48.63867" lon="-3.4109">
        <ele>71</ele>
        <time>2013-01-04T16:05:44Z</time>
      </trkpt>
      <trkpt lat="48.63871" lon="-3.41093">
        <ele>71</ele>
        <time>2013-01-04T16:05:50Z</time>
      </trkpt>
      <trkpt lat="48.63874" lon="-3.41097">
        <ele>69</ele>
        <time>2013-01-04T16:05:56Z</time>
      </trkpt>
      <trkpt lat="48.63876" lon="-3.41101">
        <ele>69</ele>
        <time>2013-01-04T16:06:01Z</time>
      </trkpt>
      <trkpt lat="48.63877" lon="-3.41107">
        <ele>69</ele>
        <time>2013-01-04T16:06:14Z</time>
      </trkpt>
      <trkpt lat="48.63879" lon="-3.41111">
        <ele>69</ele>
        <time>2013-01-04T16:06:20Z</time>
      </trkpt>
      <trkpt lat="48.63882" lon="-3.41112">
        <ele>69</ele>
        <time>2013-01-04T16:06:27Z</time>
      </trkpt>
      <trkpt lat="48.63885" lon="-3.41116">
        <ele>69</ele>
        <time>2013-01-04T16:06:33Z</time>
      </trkpt>
      <trkpt lat="48.63889" lon="-3.41116">
        <ele>69</ele>
        <time>2013-01-04T16:06:39Z</time>
      </trkpt>
      <trkpt lat="48.63895" lon="-3.41118">
        <ele>69</ele>
        <time>2013-01-04T16:06:45Z</time>
      </trkpt>
      <trkpt lat="48.63897" lon="-3.41125">
        <ele>69</ele>
        <time>2013-01-04T16:06:51Z</time>
      </trkpt>
      <trkpt lat="48.63897" lon="-3.41133">
        <ele>69</ele>
        <time>2013-01-04T16:06:56Z</time>
      </trkpt>
      <trkpt lat="48.63896" lon="-3.41143">
        <ele>69</ele>
        <time>2013-01-04T16:07:02Z</time>
      </trkpt>
      <trkpt lat="48.63893" lon="-3.4115">
        <ele>69</ele>
        <time>2013-01-04T16:07:07Z</time>
      </trkpt>
      <trkpt lat="48.6389" lon="-3.41156">
        <ele>69</ele>
        <time>2013-01-04T16:07:12Z</time>
      </trkpt>
      <trkpt lat="48.63886" lon="-3.4116">
        <ele>69</ele>
        <time>2013-01-04T16:07:18Z</time>
      </trkpt>
      <trkpt lat="48.63883" lon="-3.41166">
        <ele>69</ele>
        <time>2013-01-04T16:07:23Z</time>
      </trkpt>
      <trkpt lat="48.63877" lon="-3.41171">
        <ele>69</ele>
        <time>2013-01-04T16:07:29Z</time>
      </trkpt>
      <trkpt lat="48.63872" lon="-3.41174">
        <ele>69</ele>
        <time>2013-01-04T16:07:34Z</time>
      </trkpt>
      <trkpt lat="48.63867" lon="-3.41179">
        <ele>69</ele>
        <time>2013-01-04T16:07:39Z</time>
      </trkpt>
      <trkpt lat="48.63861" lon="-3.41185">
        <ele>69</ele>
        <time>2013-01-04T16:07:45Z</time>
      </trkpt>
      <trkpt lat="48.6386" lon="-3.41193">
        <ele>69</ele>
        <time>2013-01-04T16:07:50Z</time>
      </trkpt>
      <trkpt lat="48.63859" lon="-3.41203">
        <ele>68</ele>
        <time>2013-01-04T16:07:56Z</time>
      </trkpt>
      <trkpt lat="48.63858" lon="-3.41213">
        <ele>68</ele>
        <time>2013-01-04T16:08:02Z</time>
      </trkpt>
      <trkpt lat="48.63858" lon="-3.41222">
        <ele>68</ele>
        <time>2013-01-04T16:08:07Z</time>
      </trkpt>
      <trkpt lat="48.63857" lon="-3.41232">
        <ele>67</ele>
        <time>2013-01-04T16:08:13Z</time>
      </trkpt>
      <trkpt lat="48.63856" lon="-3.41241">
        <ele>66</ele>
        <time>2013-01-04T16:08:18Z</time>
      </trkpt>
      <trkpt lat="48.63855" lon="-3.41248">
        <ele>65</ele>
        <time>2013-01-04T16:08:23Z</time>
      </trkpt>
      <trkpt lat="48.63855" lon="-3.41255">
        <ele>65</ele>
        <time>2013-01-04T16:08:29Z</time>
      </trkpt>
      <trkpt lat="48.63854" lon="-3.41262">
        <ele>63</ele>
        <time>2013-01-04T16:08:35Z</time>
      </trkpt>
      <trkpt lat="48.63852" lon="-3.4127">
        <ele>63</ele>
        <time>2013-01-04T16:08:41Z</time>
      </trkpt>
      <trkpt lat="48.63849" lon="-3.41278">
        <ele>63</ele>
        <time>2013-01-04T16:08:47Z</time>
      </trkpt>
      <trkpt lat="48.63845" lon="-3.41284">
        <ele>63</ele>
        <time>2013-01-04T16:08:53Z</time>
      </trkpt>
      <trkpt lat="48.63843" lon="-3.41292">
        <ele>63</ele>
        <time>2013-01-04T16:08:58Z</time>
      </trkpt>
      <trkpt lat="48.6384" lon="-3.41301">
        <ele>63</ele>
        <time>2013-01-04T16:09:04Z</time>
      </trkpt>
      <trkpt lat="48.63836" lon="-3.41307">
        <ele>63</ele>
        <time>2013-01-04T16:09:10Z</time>
      </trkpt>
      <trkpt lat="48.63831" lon="-3.41313">
        <ele>63</ele>
        <time>2013-01-04T16:09:16Z</time>
      </trkpt>
      <trkpt lat="48.63829" lon="-3.41322">
        <ele>63</ele>
        <time>2013-01-04T16:09:21Z</time>
      </trkpt>
      <trkpt lat="48.6383" lon="-3.4133">
        <ele>61</ele>
        <time>2013-01-04T16:09:27Z</time>
      </trkpt>
      <trkpt lat="48.63833" lon="-3.41337">
        <ele>59</ele>
        <time>2013-01-04T16:09:33Z</time>
      </trkpt>
      <trkpt lat="48.63834" lon="-3.41344">
        <ele>58</ele>
        <time>2013-01-04T16:09:39Z</time>
      </trkpt>
      <trkpt lat="48.63834" lon="-3.41348">
        <ele>58</ele>
        <time>2013-01-04T16:09:44Z</time>
      </trkpt>
      <trkpt lat="48.63836" lon="-3.41355">
        <ele>58</ele>
        <time>2013-01-04T16:09:50Z</time>
      </trkpt>
      <trkpt lat="48.63839" lon="-3.41362">
        <ele>58</ele>
        <time>2013-01-04T16:09:56Z</time>
      </trkpt>
      <trkpt lat="48.6384" lon="-3.4137">
        <ele>58</ele>
        <time>2013-01-04T16:10:03Z</time>
      </trkpt>
      <trkpt lat="48.63844" lon="-3.41372">
        <ele>58</ele>
        <time>2013-01-04T16:10:09Z</time>
      </trkpt>
      <trkpt lat="48.63845" lon="-3.41374">
        <ele>58</ele>
        <time>2013-01-04T16:10:15Z</time>
      </trkpt>
      <trkpt lat="48.63845" lon="-3.41376">
        <ele>58</ele>
        <time>2013-01-04T16:10:26Z</time>
      </trkpt>
      <trkpt lat="48.63846" lon="-3.41378">
        <ele>58</ele>
        <time>2013-01-04T16:10:35Z</time>
      </trkpt>
      <trkpt lat="48.63848" lon="-3.41379">
        <ele>58</ele>
        <time>2013-01-04T16:10:41Z</time>
      </trkpt>
      <trkpt lat="48.63848" lon="-3.41383">
        <ele>55</ele>
        <time>2013-01-04T16:10:50Z</time>
      </trkpt>
      <trkpt lat="48.63845" lon="-3.41387">
        <ele>55</ele>
        <time>2013-01-04T16:10:55Z</time>
      </trkpt>
      <trkpt lat="48.63841" lon="-3.41394">
        <ele>55</ele>
        <time>2013-01-04T16:11:04Z</time>
      </trkpt>
      <trkpt lat="48.63842" lon="-3.41398">
        <ele>55</ele>
        <time>2013-01-04T16:11:10Z</time>
      </trkpt>
      <trkpt lat="48.6384" lon="-3.41402">
        <ele>55</ele>
        <time>2013-01-04T16:11:18Z</time>
      </trkpt>
      <trkpt lat="48.6384" lon="-3.41408">
        <ele>55</ele>
        <time>2013-01-04T16:11:24Z</time>
      </trkpt>
      <trkpt lat="48.63842" lon="-3.41413">
        <ele>55</ele>
        <time>2013-01-04T16:11:29Z</time>
      </trkpt>
      <trkpt lat="48.63847" lon="-3.41418">
        <ele>55</ele>
        <time>2013-01-04T16:11:35Z</time>
      </trkpt>
      <trkpt lat="48.63851" lon="-3.41422">
        <ele>55</ele>
        <time>2013-01-04T16:11:41Z</time>
      </trkpt>
      <trkpt lat="48.63856" lon="-3.41424">
        <ele>55</ele>
        <time>2013-01-04T16:11:47Z</time>
      </trkpt>
      <trkpt lat="48.63862" lon="-3.4142">
        <ele>55</ele>
        <time>2013-01-04T16:11:52Z</time>
      </trkpt>
      <trkpt lat="48.63865" lon="-3.41421">
        <ele>55</ele>
        <time>2013-01-04T16:11:58Z</time>
      </trkpt>
      <trkpt lat="48.6387" lon="-3.41421">
        <ele>55</ele>
        <time>2013-01-04T16:12:04Z</time>
      </trkpt>
      <trkpt lat="48.63876" lon="-3.41421">
        <ele>56</ele>
        <time>2013-01-04T16:12:09Z</time>
      </trkpt>
      <trkpt lat="48.63879" lon="-3.41419">
        <ele>57</ele>
        <time>2013-01-04T16:12:15Z</time>
      </trkpt>
      <trkpt lat="48.63885" lon="-3.41417">
        <ele>57</ele>
        <time>2013-01-04T16:12:20Z</time>
      </trkpt>
      <trkpt lat="48.63889" lon="-3.41414">
        <ele>59</ele>
        <time>2013-01-04T16:12:26Z</time>
      </trkpt>
      <trkpt lat="48.63894" lon="-3.41409">
        <ele>63</ele>
        <time>2013-01-04T16:12:31Z</time>
      </trkpt>
      <trkpt lat="48.63899" lon="-3.41407">
        <ele>65</ele>
        <time>2013-01-04T16:12:36Z</time>
      </trkpt>
      <trkpt lat="48.639" lon="-3.41412">
        <ele>65</ele>
        <time>2013-01-04T16:12:42Z</time>
      </trkpt>
      <trkpt lat="48.63903" lon="-3.41415">
        <ele>65</ele>
        <time>2013-01-04T16:12:48Z</time>
      </trkpt>
      <trkpt lat="48.63906" lon="-3.41417">
        <ele>65</ele>
        <time>2013-01-04T16:12:53Z</time>
      </trkpt>
      <trkpt lat="48.63909" lon="-3.41418">
        <ele>66</ele>
        <time>2013-01-04T16:12:58Z</time>
      </trkpt>
      <trkpt lat="48.63907" lon="-3.41419">
        <ele>66</ele>
        <time>2013-01-04T16:13:04Z</time>
      </trkpt>
      <trkpt lat="48.63907" lon="-3.41423">
        <ele>66</ele>
        <time>2013-01-04T16:13:11Z</time>
      </trkpt>
      <trkpt lat="48.63907" lon="-3.41429">
        <ele>66</ele>
        <time>2013-01-04T16:13:17Z</time>
      </trkpt>
      <trkpt lat="48.63904" lon="-3.41434">
        <ele>66</ele>
        <time>2013-01-04T16:13:22Z</time>
      </trkpt>
      <trkpt lat="48.63902" lon="-3.41438">
        <ele>66</ele>
        <time>2013-01-04T16:13:28Z</time>
      </trkpt>
      <trkpt lat="48.63901" lon="-3.41443">
        <ele>66</ele>
        <time>2013-01-04T16:13:33Z</time>
      </trkpt>
      <trkpt lat="48.63901" lon="-3.41447">
        <ele>66</ele>
        <time>2013-01-04T16:13:40Z</time>
      </trkpt>
      <trkpt lat="48.63902" lon="-3.41449">
        <ele>64</ele>
        <time>2013-01-04T16:13:45Z</time>
      </trkpt>
      <trkpt lat="48.63901" lon="-3.41455">
        <ele>62</ele>
        <time>2013-01-04T16:13:51Z</time>
      </trkpt>
      <trkpt lat="48.639" lon="-3.41461">
        <ele>62</ele>
        <time>2013-01-04T16:13:56Z</time>
      </trkpt>
      <trkpt lat="48.63898" lon="-3.4147">
        <ele>62</ele>
        <time>2013-01-04T16:14:02Z</time>
      </trkpt>
      <trkpt lat="48.63897" lon="-3.41475">
        <ele>62</ele>
        <time>2013-01-04T16:14:07Z</time>
      </trkpt>
      <trkpt lat="48.63898" lon="-3.41481">
        <ele>62</ele>
        <time>2013-01-04T16:14:12Z</time>
      </trkpt>
      <trkpt lat="48.63902" lon="-3.41487">
        <ele>61</ele>
        <time>2013-01-04T16:14:18Z</time>
      </trkpt>
      <trkpt lat="48.63907" lon="-3.41491">
        <ele>60</ele>
        <time>2013-01-04T16:14:24Z</time>
      </trkpt>
      <trkpt lat="48.63909" lon="-3.41498">
        <ele>60</ele>
        <time>2013-01-04T16:14:30Z</time>
      </trkpt>
      <trkpt lat="48.63913" lon="-3.41501">
        <ele>60</ele>
        <time>2013-01-04T16:14:35Z</time>
      </trkpt>
      <trkpt lat="48.63917" lon="-3.41505">
        <ele>60</ele>
        <time>2013-01-04T16:14:41Z</time>
      </trkpt>
      <trkpt lat="48.63921" lon="-3.41509">
        <ele>60</ele>
        <time>2013-01-04T16:14:46Z</time>
      </trkpt>
      <trkpt lat="48.63926" lon="-3.41513">
        <ele>60</ele>
        <time>2013-01-04T16:14:52Z</time>
      </trkpt>
      <trkpt lat="48.63931" lon="-3.41516">
        <ele>60</ele>
        <time>2013-01-04T16:14:57Z</time>
      </trkpt>
      <trkpt lat="48.63936" lon="-3.4152">
        <ele>60</ele>
        <time>2013-01-04T16:15:03Z</time>
      </trkpt>
      <trkpt lat="48.6394" lon="-3.41525">
        <ele>60</ele>
        <time>2013-01-04T16:15:08Z</time>
      </trkpt>
      <trkpt lat="48.63944" lon="-3.4153">
        <ele>60</ele>
        <time>2013-01-04T16:15:14Z</time>
      </trkpt>
      <trkpt lat="48.63946" lon="-3.41537">
        <ele>60</ele>
        <time>2013-01-04T16:15:19Z</time>
      </trkpt>
      <trkpt lat="48.6395" lon="-3.41542">
        <ele>60</ele>
        <time>2013-01-04T16:15:25Z</time>
      </trkpt>
      <trkpt lat="48.63952" lon="-3.41547">
        <ele>60</ele>
        <time>2013-01-04T16:15:32Z</time>
      </trkpt>
      <trkpt lat="48.63956" lon="-3.41551">
        <ele>61</ele>
        <time>2013-01-04T16:15:37Z</time>
      </trkpt>
      <trkpt lat="48.6396" lon="-3.41554">
        <ele>62</ele>
        <time>2013-01-04T16:15:42Z</time>
      </trkpt>
      <trkpt lat="48.63961" lon="-3.41558">
        <ele>63</ele>
        <time>2013-01-04T16:15:48Z</time>
      </trkpt>
      <trkpt lat="48.6396" lon="-3.41564">
        <ele>63</ele>
        <time>2013-01-04T16:15:53Z</time>
      </trkpt>
      <trkpt lat="48.63959" lon="-3.41575">
        <ele>63</ele>
        <time>2013-01-04T16:15:59Z</time>
      </trkpt>
      <trkpt lat="48.63957" lon="-3.41581">
        <ele>63</ele>
        <time>2013-01-04T16:16:04Z</time>
      </trkpt>
      <trkpt lat="48.63952" lon="-3.4158">
        <ele>63</ele>
        <time>2013-01-04T16:16:10Z</time>
      </trkpt>
      <trkpt lat="48.63951" lon="-3.41575">
        <ele>62</ele>
        <time>2013-01-04T16:16:15Z</time>
      </trkpt>
      <trkpt lat="48.63949" lon="-3.4157">
        <ele>59</ele>
        <time>2013-01-04T16:16:21Z</time>
      </trkpt>
      <trkpt lat="48.63945" lon="-3.41566">
        <ele>57</ele>
        <time>2013-01-04T16:16:26Z</time>
      </trkpt>
      <trkpt lat="48.63942" lon="-3.41561">
        <ele>57</ele>
        <time>2013-01-04T16:16:31Z</time>
      </trkpt>
      <trkpt lat="48.63938" lon="-3.41559">
        <ele>57</ele>
        <time>2013-01-04T16:16:39Z</time>
      </trkpt>
      <trkpt lat="48.63934" lon="-3.41555">
        <ele>57</ele>
        <time>2013-01-04T16:16:45Z</time>
      </trkpt>
      <trkpt lat="48.63928" lon="-3.41551">
        <ele>57</ele>
        <time>2013-01-04T16:16:51Z</time>
      </trkpt>
      <trkpt lat="48.63924" lon="-3.41552">
        <ele>57</ele>
        <time>2013-01-04T16:16:56Z</time>
      </trkpt>
      <trkpt lat="48.63917" lon="-3.41553">
        <ele>57</ele>
        <time>2013-01-04T16:17:01Z</time>
      </trkpt>
      <trkpt lat="48.63912" lon="-3.41548">
        <ele>57</ele>
        <time>2013-01-04T16:17:06Z</time>
      </trkpt>
      <trkpt lat="48.63907" lon="-3.41546">
        <ele>55</ele>
        <time>2013-01-04T16:17:13Z</time>
      </trkpt>
      <trkpt lat="48.63903" lon="-3.41542">
        <ele>54</ele>
        <time>2013-01-04T16:17:18Z</time>
      </trkpt>
      <trkpt lat="48.63899" lon="-3.41537">
        <ele>53</ele>
        <time>2013-01-04T16:17:23Z</time>
      </trkpt>
      <trkpt lat="48.63893" lon="-3.41531">
        <ele>53</ele>
        <time>2013-01-04T16:17:29Z</time>
      </trkpt>
      <trkpt lat="48.63889" lon="-3.41527">
        <ele>53</ele>
        <time>2013-01-04T16:17:34Z</time>
      </trkpt>
      <trkpt lat="48.63885" lon="-3.41522">
        <ele>53</ele>
        <time>2013-01-04T16:17:40Z</time>
      </trkpt>
      <trkpt lat="48.6388" lon="-3.41518">
        <ele>53</ele>
        <time>2013-01-04T16:17:47Z</time>
      </trkpt>
      <trkpt lat="48.63876" lon="-3.41516">
        <ele>53</ele>
        <time>2013-01-04T16:17:53Z</time>
      </trkpt>
      <trkpt lat="48.63872" lon="-3.41512">
        <ele>51</ele>
        <time>2013-01-04T16:17:59Z</time>
      </trkpt>
      <trkpt lat="48.63869" lon="-3.41509">
        <ele>50</ele>
        <time>2013-01-04T16:18:04Z</time>
      </trkpt>
      <trkpt lat="48.63864" lon="-3.41505">
        <ele>47</ele>
        <time>2013-01-04T16:18:10Z</time>
      </trkpt>
      <trkpt lat="48.63867" lon="-3.41513">
        <ele>44</ele>
        <time>2013-01-04T16:18:16Z</time>
      </trkpt>
      <trkpt lat="48.63869" lon="-3.41521">
        <ele>43</ele>
        <time>2013-01-04T16:18:21Z</time>
      </trkpt>
      <trkpt lat="48.63871" lon="-3.41529">
        <ele>43</ele>
        <time>2013-01-04T16:18:26Z</time>
      </trkpt>
      <trkpt lat="48.63873" lon="-3.41539">
        <ele>43</ele>
        <time>2013-01-04T16:18:32Z</time>
      </trkpt>
      <trkpt lat="48.63874" lon="-3.41546">
        <ele>43</ele>
        <time>2013-01-04T16:18:37Z</time>
      </trkpt>
      <trkpt lat="48.63874" lon="-3.41554">
        <ele>43</ele>
        <time>2013-01-04T16:18:42Z</time>
      </trkpt>
      <trkpt lat="48.63873" lon="-3.41563">
        <ele>43</ele>
        <time>2013-01-04T16:18:47Z</time>
      </trkpt>
      <trkpt lat="48.63872" lon="-3.41573">
        <ele>43</ele>
        <time>2013-01-04T16:18:52Z</time>
      </trkpt>
      <trkpt lat="48.63872" lon="-3.41583">
        <ele>43</ele>
        <time>2013-01-04T16:18:57Z</time>
      </trkpt>
      <trkpt lat="48.63875" lon="-3.4159">
        <ele>43</ele>
        <time>2013-01-04T16:19:02Z</time>
      </trkpt>
      <trkpt lat="48.63875" lon="-3.41599">
        <ele>43</ele>
        <time>2013-01-04T16:19:07Z</time>
      </trkpt>
      <trkpt lat="48.63875" lon="-3.41611">
        <ele>43</ele>
        <time>2013-01-04T16:19:13Z</time>
      </trkpt>
      <trkpt lat="48.63876" lon="-3.41621">
        <ele>43</ele>
        <time>2013-01-04T16:19:18Z</time>
      </trkpt>
      <trkpt lat="48.63877" lon="-3.41631">
        <ele>43</ele>
        <time>2013-01-04T16:19:24Z</time>
      </trkpt>
      <trkpt lat="48.63878" lon="-3.41639">
        <ele>43</ele>
        <time>2013-01-04T16:19:29Z</time>
      </trkpt>
      <trkpt lat="48.63881" lon="-3.41649">
        <ele>43</ele>
        <time>2013-01-04T16:19:34Z</time>
      </trkpt>
      <trkpt lat="48.63884" lon="-3.41655">
        <ele>43</ele>
        <time>2013-01-04T16:19:39Z</time>
      </trkpt>
      <trkpt lat="48.63885" lon="-3.41664">
        <ele>43</ele>
        <time>2013-01-04T16:19:44Z</time>
      </trkpt>
      <trkpt lat="48.63886" lon="-3.41673">
        <ele>43</ele>
        <time>2013-01-04T16:19:49Z</time>
      </trkpt>
      <trkpt lat="48.63888" lon="-3.41683">
        <ele>43</ele>
        <time>2013-01-04T16:19:55Z</time>
      </trkpt>
      <trkpt lat="48.63889" lon="-3.41691">
        <ele>43</ele>
        <time>2013-01-04T16:20:00Z</time>
      </trkpt>
      <trkpt lat="48.63892" lon="-3.41698">
        <ele>43</ele>
        <time>2013-01-04T16:20:07Z</time>
      </trkpt>
      <trkpt lat="48.63893" lon="-3.41702">
        <ele>43</ele>
        <time>2013-01-04T16:20:12Z</time>
      </trkpt>
      <trkpt lat="48.63894" lon="-3.4171">
        <ele>44</ele>
        <time>2013-01-04T16:20:17Z</time>
      </trkpt>
      <trkpt lat="48.63897" lon="-3.41717">
        <ele>45</ele>
        <time>2013-01-04T16:20:22Z</time>
      </trkpt>
      <trkpt lat="48.63899" lon="-3.41727">
        <ele>45</ele>
        <time>2013-01-04T16:20:27Z</time>
      </trkpt>
      <trkpt lat="48.639" lon="-3.41733">
        <ele>45</ele>
        <time>2013-01-04T16:20:32Z</time>
      </trkpt>
      <trkpt lat="48.63902" lon="-3.4174">
        <ele>45</ele>
        <time>2013-01-04T16:20:38Z</time>
      </trkpt>
      <trkpt lat="48.63903" lon="-3.41748">
        <ele>45</ele>
        <time>2013-01-04T16:20:44Z</time>
      </trkpt>
      <trkpt lat="48.63905" lon="-3.41754">
        <ele>46</ele>
        <time>2013-01-04T16:20:51Z</time>
      </trkpt>
      <trkpt lat="48.63906" lon="-3.41758">
        <ele>48</ele>
        <time>2013-01-04T16:20:57Z</time>
      </trkpt>
      <trkpt lat="48.63909" lon="-3.41765">
        <ele>50</ele>
        <time>2013-01-04T16:21:03Z</time>
      </trkpt>
      <trkpt lat="48.63911" lon="-3.41773">
        <ele>50</ele>
        <time>2013-01-04T16:21:09Z</time>
      </trkpt>
      <trkpt lat="48.63915" lon="-3.41781">
        <ele>50</ele>
        <time>2013-01-04T16:21:15Z</time>
      </trkpt>
      <trkpt lat="48.63919" lon="-3.4179">
        <ele>50</ele>
        <time>2013-01-04T16:21:21Z</time>
      </trkpt>
      <trkpt lat="48.63923" lon="-3.41797">
        <ele>50</ele>
        <time>2013-01-04T16:21:27Z</time>
      </trkpt>
      <trkpt lat="48.63927" lon="-3.41802">
        <ele>50</ele>
        <time>2013-01-04T16:21:32Z</time>
      </trkpt>
      <trkpt lat="48.6393" lon="-3.41809">
        <ele>50</ele>
        <time>2013-01-04T16:21:38Z</time>
      </trkpt>
      <trkpt lat="48.63935" lon="-3.41816">
        <ele>50</ele>
        <time>2013-01-04T16:21:44Z</time>
      </trkpt>
      <trkpt lat="48.63939" lon="-3.41824">
        <ele>50</ele>
        <time>2013-01-04T16:21:50Z</time>
      </trkpt>
      <trkpt lat="48.63941" lon="-3.4183">
        <ele>51</ele>
        <time>2013-01-04T16:21:55Z</time>
      </trkpt>
      <trkpt lat="48.63943" lon="-3.41838">
        <ele>52</ele>
        <time>2013-01-04T16:22:01Z</time>
      </trkpt>
      <trkpt lat="48.63947" lon="-3.41846">
        <ele>53</ele>
        <time>2013-01-04T16:22:06Z</time>
      </trkpt>
      <trkpt lat="48.63949" lon="-3.41853">
        <ele>53</ele>
        <time>2013-01-04T16:22:11Z</time>
      </trkpt>
      <trkpt lat="48.63953" lon="-3.41861">
        <ele>53</ele>
        <time>2013-01-04T16:22:17Z</time>
      </trkpt>
      <trkpt lat="48.63957" lon="-3.41869">
        <ele>53</ele>
        <time>2013-01-04T16:22:23Z</time>
      </trkpt>
      <trkpt lat="48.63962" lon="-3.41876">
        <ele>53</ele>
        <time>2013-01-04T16:22:29Z</time>
      </trkpt>
      <trkpt lat="48.63965" lon="-3.41882">
        <ele>53</ele>
        <time>2013-01-04T16:22:34Z</time>
      </trkpt>
      <trkpt lat="48.6397" lon="-3.41885">
        <ele>53</ele>
        <time>2013-01-04T16:22:39Z</time>
      </trkpt>
      <trkpt lat="48.63973" lon="-3.41892">
        <ele>53</ele>
        <time>2013-01-04T16:22:45Z</time>
      </trkpt>
      <trkpt lat="48.63974" lon="-3.41892">
        <ele>53</ele>
        <time>2013-01-04T16:22:50Z</time>
      </trkpt>
      <trkpt lat="48.63974" lon="-3.41894">
        <ele>53</ele>
        <time>2013-01-04T16:22:55Z</time>
      </trkpt>
      <trkpt lat="48.63975" lon="-3.41898">
        <ele>53</ele>
        <time>2013-01-04T16:23:03Z</time>
      </trkpt>
      <trkpt lat="48.63977" lon="-3.41901">
        <ele>53</ele>
        <time>2013-01-04T16:23:09Z</time>
      </trkpt>
      <trkpt lat="48.63978" lon="-3.41902">
        <ele>53</ele>
        <time>2013-01-04T16:23:15Z</time>
      </trkpt>
      <trkpt lat="48.63982" lon="-3.41907">
        <ele>53</ele>
        <time>2013-01-04T16:23:22Z</time>
      </trkpt>
      <trkpt lat="48.63985" lon="-3.41911">
        <ele>53</ele>
        <time>2013-01-04T16:23:27Z</time>
      </trkpt>
      <trkpt lat="48.6399" lon="-3.41915">
        <ele>53</ele>
        <time>2013-01-04T16:23:33Z</time>
      </trkpt>
      <trkpt lat="48.63993" lon="-3.41921">
        <ele>53</ele>
        <time>2013-01-04T16:23:39Z</time>
      </trkpt>
      <trkpt lat="48.63997" lon="-3.41927">
        <ele>55</ele>
        <time>2013-01-04T16:23:45Z</time>
      </trkpt>
      <trkpt lat="48.63999" lon="-3.41933">
        <ele>56</ele>
        <time>2013-01-04T16:23:51Z</time>
      </trkpt>
      <trkpt lat="48.64004" lon="-3.41937">
        <ele>57</ele>
        <time>2013-01-04T16:23:57Z</time>
      </trkpt>
      <trkpt lat="48.64011" lon="-3.41944">
        <ele>57</ele>
        <time>2013-01-04T16:24:02Z</time>
      </trkpt>
      <trkpt lat="48.64014" lon="-3.4195">
        <ele>59</ele>
        <time>2013-01-04T16:24:07Z</time>
      </trkpt>
      <trkpt lat="48.64018" lon="-3.41956">
        <ele>59</ele>
        <time>2013-01-04T16:24:13Z</time>
      </trkpt>
      <trkpt lat="48.6402" lon="-3.41963">
        <ele>59</ele>
        <time>2013-01-04T16:24:20Z</time>
      </trkpt>
      <trkpt lat="48.64024" lon="-3.41966">
        <ele>59</ele>
        <time>2013-01-04T16:24:26Z</time>
      </trkpt>
      <trkpt lat="48.64029" lon="-3.41968">
        <ele>59</ele>
        <time>2013-01-04T16:24:31Z</time>
      </trkpt>
      <trkpt lat="48.64034" lon="-3.41969">
        <ele>60</ele>
        <time>2013-01-04T16:24:37Z</time>
      </trkpt>
      <trkpt lat="48.64037" lon="-3.4197">
        <ele>61</ele>
        <time>2013-01-04T16:24:42Z</time>
      </trkpt>
      <trkpt lat="48.64039" lon="-3.41968">
        <ele>62</ele>
        <time>2013-01-04T16:24:48Z</time>
      </trkpt>
      <trkpt lat="48.64038" lon="-3.41963">
        <ele>62</ele>
        <time>2013-01-04T16:24:54Z</time>
      </trkpt>
      <trkpt lat="48.64036" lon="-3.41959">
        <ele>62</ele>
        <time>2013-01-04T16:25:00Z</time>
      </trkpt>
      <trkpt lat="48.64034" lon="-3.41955">
        <ele>61</ele>
        <time>2013-01-04T16:25:07Z</time>
      </trkpt>
      <trkpt lat="48.64032" lon="-3.41951">
        <ele>61</ele>
        <time>2013-01-04T16:25:12Z</time>
      </trkpt>
      <trkpt lat="48.64032" lon="-3.41944">
        <ele>61</ele>
        <time>2013-01-04T16:25:18Z</time>
      </trkpt>
      <trkpt lat="48.64033" lon="-3.41938">
        <ele>61</ele>
        <time>2013-01-04T16:25:24Z</time>
      </trkpt>
      <trkpt lat="48.64035" lon="-3.41933">
        <ele>60</ele>
        <time>2013-01-04T16:25:30Z</time>
      </trkpt>
      <trkpt lat="48.6404" lon="-3.41929">
        <ele>60</ele>
        <time>2013-01-04T16:25:36Z</time>
      </trkpt>
      <trkpt lat="48.64043" lon="-3.41925">
        <ele>60</ele>
        <time>2013-01-04T16:25:43Z</time>
      </trkpt>
      <trkpt lat="48.64046" lon="-3.4192">
        <ele>60</ele>
        <time>2013-01-04T16:25:49Z</time>
      </trkpt>
      <trkpt lat="48.6405" lon="-3.41917">
        <ele>60</ele>
        <time>2013-01-04T16:25:55Z</time>
      </trkpt>
      <trkpt lat="48.64052" lon="-3.41911">
        <ele>60</ele>
        <time>2013-01-04T16:26:02Z</time>
      </trkpt>
      <trkpt lat="48.64055" lon="-3.41905">
        <ele>60</ele>
        <time>2013-01-04T16:26:08Z</time>
      </trkpt>
      <trkpt lat="48.64058" lon="-3.41899">
        <ele>60</ele>
        <time>2013-01-04T16:26:14Z</time>
      </trkpt>
      <trkpt lat="48.64061" lon="-3.41893">
        <ele>60</ele>
        <time>2013-01-04T16:26:20Z</time>
      </trkpt>
      <trkpt lat="48.64064" lon="-3.41887">
        <ele>60</ele>
        <time>2013-01-04T16:26:26Z</time>
      </trkpt>
      <trkpt lat="48.64068" lon="-3.41881">
        <ele>60</ele>
        <time>2013-01-04T16:26:32Z</time>
      </trkpt>
      <trkpt lat="48.64071" lon="-3.41878">
        <ele>60</ele>
        <time>2013-01-04T16:26:39Z</time>
      </trkpt>
      <trkpt lat="48.64076" lon="-3.41876">
        <ele>60</ele>
        <time>2013-01-04T16:26:46Z</time>
      </trkpt>
      <trkpt lat="48.6408" lon="-3.41876">
        <ele>60</ele>
        <time>2013-01-04T16:26:53Z</time>
      </trkpt>
      <trkpt lat="48.64083" lon="-3.41876">
        <ele>60</ele>
        <time>2013-01-04T16:27:04Z</time>
      </trkpt>
      <trkpt lat="48.64084" lon="-3.41869">
        <ele>60</ele>
        <time>2013-01-04T16:27:10Z</time>
      </trkpt>
      <trkpt lat="48.64083" lon="-3.41861">
        <ele>60</ele>
        <time>2013-01-04T16:27:16Z</time>
      </trkpt>
      <trkpt lat="48.64082" lon="-3.41853">
        <ele>60</ele>
        <time>2013-01-04T16:27:21Z</time>
      </trkpt>
      <trkpt lat="48.6408" lon="-3.41844">
        <ele>60</ele>
        <time>2013-01-04T16:27:28Z</time>
      </trkpt>
      <trkpt lat="48.64079" lon="-3.41838">
        <ele>60</ele>
        <time>2013-01-04T16:27:34Z</time>
      </trkpt>
      <trkpt lat="48.64078" lon="-3.4183">
        <ele>60</ele>
        <time>2013-01-04T16:27:40Z</time>
      </trkpt>
      <trkpt lat="48.64077" lon="-3.41822">
        <ele>60</ele>
        <time>2013-01-04T16:27:46Z</time>
      </trkpt>
      <trkpt lat="48.64075" lon="-3.41814">
        <ele>60</ele>
        <time>2013-01-04T16:27:51Z</time>
      </trkpt>
      <trkpt lat="48.64072" lon="-3.41808">
        <ele>64</ele>
        <time>2013-01-04T16:27:56Z</time>
      </trkpt>
      <trkpt lat="48.64068" lon="-3.41801">
        <ele>64</ele>
        <time>2013-01-04T16:28:02Z</time>
      </trkpt>
      <trkpt lat="48.64068" lon="-3.41794">
        <ele>64</ele>
        <time>2013-01-04T16:28:09Z</time>
      </trkpt>
      <trkpt lat="48.64067" lon="-3.41792">
        <ele>64</ele>
        <time>2013-01-04T16:28:18Z</time>
      </trkpt>
      <trkpt lat="48.64067" lon="-3.41788">
        <ele>64</ele>
        <time>2013-01-04T16:28:24Z</time>
      </trkpt>
      <trkpt lat="48.64067" lon="-3.41784">
        <ele>65</ele>
        <time>2013-01-04T16:28:31Z</time>
      </trkpt>
      <trkpt lat="48.64067" lon="-3.41779">
        <ele>65</ele>
        <time>2013-01-04T16:28:37Z</time>
      </trkpt>
      <trkpt lat="48.64066" lon="-3.41772">
        <ele>65</ele>
        <time>2013-01-04T16:28:43Z</time>
      </trkpt>
      <trkpt lat="48.64068" lon="-3.41764">
        <ele>65</ele>
        <time>2013-01-04T16:28:49Z</time>
      </trkpt>
      <trkpt lat="48.64069" lon="-3.41757">
        <ele>65</ele>
        <time>2013-01-04T16:28:55Z</time>
      </trkpt>
      <trkpt lat="48.64071" lon="-3.4175">
        <ele>65</ele>
        <time>2013-01-04T16:29:01Z</time>
      </trkpt>
      <trkpt lat="48.64074" lon="-3.41743">
        <ele>65</ele>
        <time>2013-01-04T16:29:07Z</time>
      </trkpt>
      <trkpt lat="48.64078" lon="-3.41739">
        <ele>65</ele>
        <time>2013-01-04T16:29:13Z</time>
      </trkpt>
      <trkpt lat="48.64082" lon="-3.41738">
        <ele>68</ele>
        <time>2013-01-04T16:29:20Z</time>
      </trkpt>
      <trkpt lat="48.64082" lon="-3.41736">
        <ele>71</ele>
        <time>2013-01-04T16:29:25Z</time>
      </trkpt>
      <trkpt lat="48.64081" lon="-3.41734">
        <ele>71</ele>
        <time>2013-01-04T16:29:30Z</time>
      </trkpt>
      <trkpt lat="48.6408" lon="-3.41732">
        <ele>71</ele>
        <time>2013-01-04T16:29:36Z</time>
      </trkpt>
      <trkpt lat="48.64082" lon="-3.41728">
        <ele>71</ele>
        <time>2013-01-04T16:29:41Z</time>
      </trkpt>
      <trkpt lat="48.64086" lon="-3.41725">
        <ele>71</ele>
        <time>2013-01-04T16:29:46Z</time>
      </trkpt>
      <trkpt lat="48.64087" lon="-3.4172">
        <ele>71</ele>
        <time>2013-01-04T16:29:52Z</time>
      </trkpt>
      <trkpt lat="48.64088" lon="-3.41716">
        <ele>71</ele>
        <time>2013-01-04T16:30:00Z</time>
      </trkpt>
      <trkpt lat="48.64089" lon="-3.41711">
        <ele>71</ele>
        <time>2013-01-04T16:30:06Z</time>
      </trkpt>
      <trkpt lat="48.64092" lon="-3.41707">
        <ele>71</ele>
        <time>2013-01-04T16:30:12Z</time>
      </trkpt>
      <trkpt lat="48.64094" lon="-3.417">
        <ele>72</ele>
        <time>2013-01-04T16:30:18Z</time>
      </trkpt>
      <trkpt lat="48.64093" lon="-3.41693">
        <ele>72</ele>
        <time>2013-01-04T16:30:23Z</time>
      </trkpt>
      <trkpt lat="48.6409" lon="-3.41685">
        <ele>72</ele>
        <time>2013-01-04T16:30:29Z</time>
      </trkpt>
      <trkpt lat="48.64088" lon="-3.41676">
        <ele>72</ele>
        <time>2013-01-04T16:30:35Z</time>
      </trkpt>
      <trkpt lat="48.64085" lon="-3.4167">
        <ele>72</ele>
        <time>2013-01-04T16:30:41Z</time>
      </trkpt>
      <trkpt lat="48.64085" lon="-3.41664">
        <ele>72</ele>
        <time>2013-01-04T16:30:47Z</time>
      </trkpt>
      <trkpt lat="48.64086" lon="-3.41657">
        <ele>72</ele>
        <time>2013-01-04T16:30:53Z</time>
      </trkpt>
      <trkpt lat="48.64086" lon="-3.41651">
        <ele>72</ele>
        <time>2013-01-04T16:30:59Z</time>
      </trkpt>
      <trkpt lat="48.64087" lon="-3.41643">
        <ele>72</ele>
        <time>2013-01-04T16:31:05Z</time>
      </trkpt>
      <trkpt lat="48.64088" lon="-3.41635">
        <ele>72</ele>
        <time>2013-01-04T16:31:11Z</time>
      </trkpt>
      <trkpt lat="48.64089" lon="-3.41628">
        <ele>72</ele>
        <time>2013-01-04T16:31:17Z</time>
      </trkpt>
      <trkpt lat="48.64091" lon="-3.4162">
        <ele>72</ele>
        <time>2013-01-04T16:31:23Z</time>
      </trkpt>
      <trkpt lat="48.64093" lon="-3.41613">
        <ele>72</ele>
        <time>2013-01-04T16:31:29Z</time>
      </trkpt>
      <trkpt lat="48.64094" lon="-3.41604">
        <ele>72</ele>
        <time>2013-01-04T16:31:35Z</time>
      </trkpt>
      <trkpt lat="48.64096" lon="-3.41597">
        <ele>73</ele>
        <time>2013-01-04T16:31:41Z</time>
      </trkpt>
      <trkpt lat="48.64099" lon="-3.41589">
        <ele>73</ele>
        <time>2013-01-04T16:31:46Z</time>
      </trkpt>
      <trkpt lat="48.64101" lon="-3.4158">
        <ele>73</ele>
        <time>2013-01-04T16:31:52Z</time>
      </trkpt>
      <trkpt lat="48.64104" lon="-3.41572">
        <ele>77</ele>
        <time>2013-01-04T16:31:58Z</time>
      </trkpt>
      <trkpt lat="48.64102" lon="-3.41564">
        <ele>79</ele>
        <time>2013-01-04T16:32:04Z</time>
      </trkpt>
      <trkpt lat="48.64099" lon="-3.41554">
        <ele>81</ele>
        <time>2013-01-04T16:32:11Z</time>
      </trkpt>
      <trkpt lat="48.64095" lon="-3.41547">
        <ele>81</ele>
        <time>2013-01-04T16:32:16Z</time>
      </trkpt>
      <trkpt lat="48.6409" lon="-3.41538">
        <ele>81</ele>
        <time>2013-01-04T16:32:22Z</time>
      </trkpt>
      <trkpt lat="48.64086" lon="-3.41529">
        <ele>81</ele>
        <time>2013-01-04T16:32:28Z</time>
      </trkpt>
      <trkpt lat="48.64084" lon="-3.41523">
        <ele>81</ele>
        <time>2013-01-04T16:32:34Z</time>
      </trkpt>
      <trkpt lat="48.64085" lon="-3.41515">
        <ele>81</ele>
        <time>2013-01-04T16:32:40Z</time>
      </trkpt>
      <trkpt lat="48.64083" lon="-3.41508">
        <ele>81</ele>
        <time>2013-01-04T16:32:46Z</time>
      </trkpt>
      <trkpt lat="48.64083" lon="-3.415">
        <ele>81</ele>
        <time>2013-01-04T16:32:51Z</time>
      </trkpt>
      <trkpt lat="48.64082" lon="-3.41493">
        <ele>81</ele>
        <time>2013-01-04T16:32:57Z</time>
      </trkpt>
      <trkpt lat="48.64082" lon="-3.41485">
        <ele>81</ele>
        <time>2013-01-04T16:33:02Z</time>
      </trkpt>
      <trkpt lat="48.64081" lon="-3.41476">
        <ele>81</ele>
        <time>2013-01-04T16:33:07Z</time>
      </trkpt>
      <trkpt lat="48.64081" lon="-3.41467">
        <ele>81</ele>
        <time>2013-01-04T16:33:12Z</time>
      </trkpt>
      <trkpt lat="48.64082" lon="-3.41458">
        <ele>81</ele>
        <time>2013-01-04T16:33:17Z</time>
      </trkpt>
      <trkpt lat="48.64083" lon="-3.41449">
        <ele>81</ele>
        <time>2013-01-04T16:33:22Z</time>
      </trkpt>
      <trkpt lat="48.64084" lon="-3.4144">
        <ele>81</ele>
        <time>2013-01-04T16:33:27Z</time>
      </trkpt>
      <trkpt lat="48.64085" lon="-3.41431">
        <ele>81</ele>
        <time>2013-01-04T16:33:32Z</time>
      </trkpt>
      <trkpt lat="48.64085" lon="-3.41422">
        <ele>81</ele>
        <time>2013-01-04T16:33:37Z</time>
      </trkpt>
      <trkpt lat="48.64085" lon="-3.41412">
        <ele>81</ele>
        <time>2013-01-04T16:33:42Z</time>
      </trkpt>
      <trkpt lat="48.64085" lon="-3.41403">
        <ele>81</ele>
        <time>2013-01-04T16:33:47Z</time>
      </trkpt>
      <trkpt lat="48.64084" lon="-3.41394">
        <ele>81</ele>
        <time>2013-01-04T16:33:53Z</time>
      </trkpt>
      <trkpt lat="48.64083" lon="-3.41386">
        <ele>81</ele>
        <time>2013-01-04T16:33:58Z</time>
      </trkpt>
      <trkpt lat="48.64082" lon="-3.41378">
        <ele>81</ele>
        <time>2013-01-04T16:34:03Z</time>
      </trkpt>
      <trkpt lat="48.64081" lon="-3.41368">
        <ele>81</ele>
        <time>2013-01-04T16:34:08Z</time>
      </trkpt>
      <trkpt lat="48.64082" lon="-3.41358">
        <ele>81</ele>
        <time>2013-01-04T16:34:13Z</time>
      </trkpt>
      <trkpt lat="48.64082" lon="-3.4135">
        <ele>81</ele>
        <time>2013-01-04T16:34:18Z</time>
      </trkpt>
      <trkpt lat="48.64085" lon="-3.41341">
        <ele>81</ele>
        <time>2013-01-04T16:34:23Z</time>
      </trkpt>
      <trkpt lat="48.64087" lon="-3.41332">
        <ele>81</ele>
        <time>2013-01-04T16:34:29Z</time>
      </trkpt>
      <trkpt lat="48.64089" lon="-3.41322">
        <ele>81</ele>
        <time>2013-01-04T16:34:35Z</time>
      </trkpt>
      <trkpt lat="48.64091" lon="-3.41313">
        <ele>81</ele>
        <time>2013-01-04T16:34:41Z</time>
      </trkpt>
      <trkpt lat="48.64091" lon="-3.41305">
        <ele>82</ele>
        <time>2013-01-04T16:34:46Z</time>
      </trkpt>
      <trkpt lat="48.64092" lon="-3.41296">
        <ele>82</ele>
        <time>2013-01-04T16:34:51Z</time>
      </trkpt>
      <trkpt lat="48.64095" lon="-3.41286">
        <ele>82</ele>
        <time>2013-01-04T16:34:57Z</time>
      </trkpt>
      <trkpt lat="48.641" lon="-3.4128">
        <ele>82</ele>
        <time>2013-01-04T16:35:03Z</time>
      </trkpt>
      <trkpt lat="48.64105" lon="-3.41274">
        <ele>82</ele>
        <time>2013-01-04T16:35:08Z</time>
      </trkpt>
      <trkpt lat="48.6411" lon="-3.41266">
        <ele>82</ele>
        <time>2013-01-04T16:35:14Z</time>
      </trkpt>
      <trkpt lat="48.64115" lon="-3.41258">
        <ele>82</ele>
        <time>2013-01-04T16:35:20Z</time>
      </trkpt>
      <trkpt lat="48.6412" lon="-3.41249">
        <ele>82</ele>
        <time>2013-01-04T16:35:26Z</time>
      </trkpt>
      <trkpt lat="48.64124" lon="-3.41241">
        <ele>82</ele>
        <time>2013-01-04T16:35:31Z</time>
      </trkpt>
      <trkpt lat="48.64127" lon="-3.41233">
        <ele>82</ele>
        <time>2013-01-04T16:35:36Z</time>
      </trkpt>
      <trkpt lat="48.6413" lon="-3.41224">
        <ele>82</ele>
        <time>2013-01-04T16:35:41Z</time>
      </trkpt>
      <trkpt lat="48.64133" lon="-3.41216">
        <ele>82</ele>
        <time>2013-01-04T16:35:46Z</time>
      </trkpt>
      <trkpt lat="48.64136" lon="-3.41206">
        <ele>82</ele>
        <time>2013-01-04T16:35:51Z</time>
      </trkpt>
      <trkpt lat="48.64138" lon="-3.41198">
        <ele>82</ele>
        <time>2013-01-04T16:35:56Z</time>
      </trkpt>
      <trkpt lat="48.6414" lon="-3.41189">
        <ele>82</ele>
        <time>2013-01-04T16:36:01Z</time>
      </trkpt>
      <trkpt lat="48.64141" lon="-3.4118">
        <ele>82</ele>
        <time>2013-01-04T16:36:06Z</time>
      </trkpt>
      <trkpt lat="48.64142" lon="-3.41172">
        <ele>82</ele>
        <time>2013-01-04T16:36:11Z</time>
      </trkpt>
      <trkpt lat="48.64144" lon="-3.41163">
        <ele>82</ele>
        <time>2013-01-04T16:36:16Z</time>
      </trkpt>
      <trkpt lat="48.64145" lon="-3.41154">
        <ele>82</ele>
        <time>2013-01-04T16:36:21Z</time>
      </trkpt>
      <trkpt lat="48.64147" lon="-3.41145">
        <ele>82</ele>
        <time>2013-01-04T16:36:26Z</time>
      </trkpt>
      <trkpt lat="48.64148" lon="-3.41136">
        <ele>82</ele>
        <time>2013-01-04T16:36:31Z</time>
      </trkpt>
      <trkpt lat="48.6415" lon="-3.41128">
        <ele>82</ele>
        <time>2013-01-04T16:36:36Z</time>
      </trkpt>
      <trkpt lat="48.64152" lon="-3.4112">
        <ele>82</ele>
        <time>2013-01-04T16:36:41Z</time>
      </trkpt>
      <trkpt lat="48.64154" lon="-3.41111">
        <ele>82</ele>
        <time>2013-01-04T16:36:46Z</time>
      </trkpt>
      <trkpt lat="48.64156" lon="-3.41104">
        <ele>82</ele>
        <time>2013-01-04T16:36:51Z</time>
      </trkpt>
      <trkpt lat="48.64159" lon="-3.41097">
        <ele>82</ele>
        <time>2013-01-04T16:36:56Z</time>
      </trkpt>
      <trkpt lat="48.64162" lon="-3.4109">
        <ele>82</ele>
        <time>2013-01-04T16:37:01Z</time>
      </trkpt>
      <trkpt lat="48.64166" lon="-3.41081">
        <ele>82</ele>
        <time>2013-01-04T16:37:07Z</time>
      </trkpt>
      <trkpt lat="48.6417" lon="-3.41073">
        <ele>82</ele>
        <time>2013-01-04T16:37:13Z</time>
      </trkpt>
      <trkpt lat="48.64174" lon="-3.41064">
        <ele>82</ele>
        <time>2013-01-04T16:37:19Z</time>
      </trkpt>
      <trkpt lat="48.64178" lon="-3.41055">
        <ele>82</ele>
        <time>2013-01-04T16:37:25Z</time>
      </trkpt>
      <trkpt lat="48.64183" lon="-3.41047">
        <ele>82</ele>
        <time>2013-01-04T16:37:31Z</time>
      </trkpt>
      <trkpt lat="48.64187" lon="-3.41039">
        <ele>83</ele>
        <time>2013-01-04T16:37:37Z</time>
      </trkpt>
      <trkpt lat="48.64191" lon="-3.41031">
        <ele>84</ele>
        <time>2013-01-04T16:37:43Z</time>
      </trkpt>
      <trkpt lat="48.64195" lon="-3.41024">
        <ele>84</ele>
        <time>2013-01-04T16:37:48Z</time>
      </trkpt>
      <trkpt lat="48.64199" lon="-3.41015">
        <ele>84</ele>
        <time>2013-01-04T16:37:54Z</time>
      </trkpt>
      <trkpt lat="48.64202" lon="-3.41008">
        <ele>84</ele>
        <time>2013-01-04T16:37:59Z</time>
      </trkpt>
      <trkpt lat="48.64207" lon="-3.41">
        <ele>85</ele>
        <time>2013-01-04T16:38:05Z</time>
      </trkpt>
      <trkpt lat="48.64211" lon="-3.40991">
        <ele>85</ele>
        <time>2013-01-04T16:38:11Z</time>
      </trkpt>
      <trkpt lat="48.64215" lon="-3.40982">
        <ele>85</ele>
        <time>2013-01-04T16:38:17Z</time>
      </trkpt>
      <trkpt lat="48.64221" lon="-3.40973">
        <ele>85</ele>
        <time>2013-01-04T16:38:23Z</time>
      </trkpt>
      <trkpt lat="48.64225" lon="-3.40967">
        <ele>85</ele>
        <time>2013-01-04T16:38:28Z</time>
      </trkpt>
      <trkpt lat="48.64231" lon="-3.40961">
        <ele>86</ele>
        <time>2013-01-04T16:38:34Z</time>
      </trkpt>
      <trkpt lat="48.64237" lon="-3.40956">
        <ele>86</ele>
        <time>2013-01-04T16:38:39Z</time>
      </trkpt>
      <trkpt lat="48.64243" lon="-3.4095">
        <ele>86</ele>
        <time>2013-01-04T16:38:45Z</time>
      </trkpt>
      <trkpt lat="48.64249" lon="-3.40943">
        <ele>86</ele>
        <time>2013-01-04T16:38:51Z</time>
      </trkpt>
      <trkpt lat="48.64255" lon="-3.40936">
        <ele>86</ele>
        <time>2013-01-04T16:38:57Z</time>
      </trkpt>
      <trkpt lat="48.64261" lon="-3.4093">
        <ele>86</ele>
        <time>2013-01-04T16:39:03Z</time>
      </trkpt>
      <trkpt lat="48.64267" lon="-3.40927">
        <ele>86</ele>
        <time>2013-01-04T16:39:08Z</time>
      </trkpt>
      <trkpt lat="48.64273" lon="-3.40924">
        <ele>86</ele>
        <time>2013-01-04T16:39:13Z</time>
      </trkpt>
      <trkpt lat="48.64278" lon="-3.40921">
        <ele>86</ele>
        <time>2013-01-04T16:39:18Z</time>
      </trkpt>
      <trkpt lat="48.64284" lon="-3.40916">
        <ele>86</ele>
        <time>2013-01-04T16:39:23Z</time>
      </trkpt>
      <trkpt lat="48.6429" lon="-3.40911">
        <ele>86</ele>
        <time>2013-01-04T16:39:29Z</time>
      </trkpt>
      <trkpt lat="48.64295" lon="-3.40907">
        <ele>86</ele>
        <time>2013-01-04T16:39:34Z</time>
      </trkpt>
      <trkpt lat="48.643" lon="-3.40901">
        <ele>86</ele>
        <time>2013-01-04T16:39:40Z</time>
      </trkpt>
      <trkpt lat="48.64306" lon="-3.40894">
        <ele>86</ele>
        <time>2013-01-04T16:39:46Z</time>
      </trkpt>
      <trkpt lat="48.64311" lon="-3.40888">
        <ele>86</ele>
        <time>2013-01-04T16:39:52Z</time>
      </trkpt>
      <trkpt lat="48.64317" lon="-3.40886">
        <ele>86</ele>
        <time>2013-01-04T16:39:57Z</time>
      </trkpt>
      <trkpt lat="48.64323" lon="-3.40885">
        <ele>86</ele>
        <time>2013-01-04T16:40:02Z</time>
      </trkpt>
      <trkpt lat="48.64328" lon="-3.40884">
        <ele>86</ele>
        <time>2013-01-04T16:40:07Z</time>
      </trkpt>
      <trkpt lat="48.64334" lon="-3.40883">
        <ele>86</ele>
        <time>2013-01-04T16:40:12Z</time>
      </trkpt>
      <trkpt lat="48.64339" lon="-3.40882">
        <ele>86</ele>
        <time>2013-01-04T16:40:18Z</time>
      </trkpt>
      <trkpt lat="48.64345" lon="-3.4088">
        <ele>86</ele>
        <time>2013-01-04T16:40:23Z</time>
      </trkpt>
      <trkpt lat="48.64351" lon="-3.40878">
        <ele>86</ele>
        <time>2013-01-04T16:40:28Z</time>
      </trkpt>
      <trkpt lat="48.64356" lon="-3.40876">
        <ele>86</ele>
        <time>2013-01-04T16:40:33Z</time>
      </trkpt>
      <trkpt lat="48.64362" lon="-3.40875">
        <ele>86</ele>
        <time>2013-01-04T16:40:38Z</time>
      </trkpt>
      <trkpt lat="48.64369" lon="-3.40874">
        <ele>86</ele>
        <time>2013-01-04T16:40:43Z</time>
      </trkpt>
      <trkpt lat="48.64375" lon="-3.40874">
        <ele>86</ele>
        <time>2013-01-04T16:40:48Z</time>
      </trkpt>
      <trkpt lat="48.64381" lon="-3.40874">
        <ele>86</ele>
        <time>2013-01-04T16:40:53Z</time>
      </trkpt>
      <trkpt lat="48.64388" lon="-3.40874">
        <ele>86</ele>
        <time>2013-01-04T16:40:59Z</time>
      </trkpt>
      <trkpt lat="48.64394" lon="-3.40875">
        <ele>86</ele>
        <time>2013-01-04T16:41:04Z</time>
      </trkpt>
      <trkpt lat="48.64399" lon="-3.40875">
        <ele>86</ele>
        <time>2013-01-04T16:41:09Z</time>
      </trkpt>
      <trkpt lat="48.64404" lon="-3.40874">
        <ele>86</ele>
        <time>2013-01-04T16:41:14Z</time>
      </trkpt>
      <trkpt lat="48.64409" lon="-3.40874">
        <ele>86</ele>
        <time>2013-01-04T16:41:20Z</time>
      </trkpt>
      <trkpt lat="48.64412" lon="-3.40876">
        <ele>86</ele>
        <time>2013-01-04T16:41:25Z</time>
      </trkpt>
      <trkpt lat="48.64418" lon="-3.40877">
        <ele>86</ele>
        <time>2013-01-04T16:41:31Z</time>
      </trkpt>
      <trkpt lat="48.64424" lon="-3.40878">
        <ele>86</ele>
        <time>2013-01-04T16:41:37Z</time>
      </trkpt>
      <trkpt lat="48.6443" lon="-3.40878">
        <ele>86</ele>
        <time>2013-01-04T16:41:43Z</time>
      </trkpt>
      <trkpt lat="48.64435" lon="-3.40878">
        <ele>86</ele>
        <time>2013-01-04T16:41:48Z</time>
      </trkpt>
      <trkpt lat="48.64442" lon="-3.40879">
        <ele>86</ele>
        <time>2013-01-04T16:41:53Z</time>
      </trkpt>
      <trkpt lat="48.64447" lon="-3.40879">
        <ele>86</ele>
        <time>2013-01-04T16:41:58Z</time>
      </trkpt>
      <trkpt lat="48.64453" lon="-3.4088">
        <ele>86</ele>
        <time>2013-01-04T16:42:03Z</time>
      </trkpt>
      <trkpt lat="48.6446" lon="-3.4088">
        <ele>86</ele>
        <time>2013-01-04T16:42:08Z</time>
      </trkpt>
      <trkpt lat="48.64467" lon="-3.40882">
        <ele>87</ele>
        <time>2013-01-04T16:42:13Z</time>
      </trkpt>
      <trkpt lat="48.64473" lon="-3.40882">
        <ele>88</ele>
        <time>2013-01-04T16:42:18Z</time>
      </trkpt>
      <trkpt lat="48.64479" lon="-3.40881">
        <ele>88</ele>
        <time>2013-01-04T16:42:23Z</time>
      </trkpt>
      <trkpt lat="48.64486" lon="-3.40882">
        <ele>88</ele>
        <time>2013-01-04T16:42:29Z</time>
      </trkpt>
      <trkpt lat="48.64492" lon="-3.40883">
        <ele>88</ele>
        <time>2013-01-04T16:42:34Z</time>
      </trkpt>
      <trkpt lat="48.64497" lon="-3.40883">
        <ele>89</ele>
        <time>2013-01-04T16:42:39Z</time>
      </trkpt>
      <trkpt lat="48.64502" lon="-3.40884">
        <ele>90</ele>
        <time>2013-01-04T16:42:45Z</time>
      </trkpt>
      <trkpt lat="48.64508" lon="-3.40885">
        <ele>90</ele>
        <time>2013-01-04T16:42:50Z</time>
      </trkpt>
      <trkpt lat="48.64513" lon="-3.40886">
        <ele>90</ele>
        <time>2013-01-04T16:42:55Z</time>
      </trkpt>
      <trkpt lat="48.64519" lon="-3.40887">
        <ele>90</ele>
        <time>2013-01-04T16:43:01Z</time>
      </trkpt>
      <trkpt lat="48.64524" lon="-3.40889">
        <ele>90</ele>
        <time>2013-01-04T16:43:06Z</time>
      </trkpt>
      <trkpt lat="48.6453" lon="-3.40889">
        <ele>90</ele>
        <time>2013-01-04T16:43:12Z</time>
      </trkpt>
      <trkpt lat="48.64534" lon="-3.4089">
        <ele>90</ele>
        <time>2013-01-04T16:43:17Z</time>
      </trkpt>
      <trkpt lat="48.6454" lon="-3.40891">
        <ele>90</ele>
        <time>2013-01-04T16:43:22Z</time>
      </trkpt>
      <trkpt lat="48.64546" lon="-3.40895">
        <ele>90</ele>
        <time>2013-01-04T16:43:28Z</time>
      </trkpt>
      <trkpt lat="48.64552" lon="-3.40899">
        <ele>90</ele>
        <time>2013-01-04T16:43:34Z</time>
      </trkpt>
      <trkpt lat="48.64556" lon="-3.40904">
        <ele>90</ele>
        <time>2013-01-04T16:43:40Z</time>
      </trkpt>
      <trkpt lat="48.64561" lon="-3.40911">
        <ele>90</ele>
        <time>2013-01-04T16:43:46Z</time>
      </trkpt>
      <trkpt lat="48.64562" lon="-3.40914">
        <ele>90</ele>
        <time>2013-01-04T16:43:57Z</time>
      </trkpt>
      <trkpt lat="48.64566" lon="-3.40921">
        <ele>90</ele>
        <time>2013-01-04T16:44:03Z</time>
      </trkpt>
      <trkpt lat="48.64568" lon="-3.40924">
        <ele>90</ele>
        <time>2013-01-04T16:44:08Z</time>
      </trkpt>
      <trkpt lat="48.64573" lon="-3.40926">
        <ele>90</ele>
        <time>2013-01-04T16:44:14Z</time>
      </trkpt>
      <trkpt lat="48.64575" lon="-3.40926">
        <ele>90</ele>
        <time>2013-01-04T16:44:19Z</time>
      </trkpt>
      <trkpt lat="48.64577" lon="-3.40925">
        <ele>90</ele>
        <time>2013-01-04T16:44:22Z</time>
      </trkpt>
    </trkseg>
  </trk>
</gpx>